<?xml version="1.0" encoding="UTF-8" standalone="no" ?>
<gpx xmlns="http://www.topografix.com/GPX/1/1" xmlns:xsi="http://www.w3.org/2001/XMLSchema-instance" xsi:schemaLocation="http://www.topografix.com/GPX/1/1 http://www.topografix.com/GPX/1/1/gpx.xsd" version="1.1" creator="VisuGPX - https://www.visugpx.com">
  <metadata>
    <name>Jura_Tour des lacs et points de vue</name>
  </metadata>
  <trk>
    <name><![CDATA[27-JUIL-22 03:25:06 PM]]></name>
    <extensions>
      <line xmlns="http://www.topografix.com/GPX/gpx_style/0/2">
        <color>0000FF</color>
        <width>4</width>
      </line>
    </extensions>
    <trkseg>
      <trkpt lat="46.61402" lon="5.84847">
        <ele>512.52</ele>
        <time>2022-07-27T07:52:20Z</time>
      </trkpt>
      <trkpt lat="46.61401" lon="5.84848">
        <ele>568.28</ele>
        <time>2022-07-27T07:52:26Z</time>
      </trkpt>
      <trkpt lat="46.61401" lon="5.84848">
        <ele>568.28</ele>
        <time>2022-07-27T07:52:27Z</time>
      </trkpt>
      <trkpt lat="46.61411" lon="5.84848">
        <ele>568.28</ele>
        <time>2022-07-27T07:52:39Z</time>
      </trkpt>
      <trkpt lat="46.61417" lon="5.8484">
        <ele>567.8</ele>
        <time>2022-07-27T07:52:44Z</time>
      </trkpt>
      <trkpt lat="46.61434" lon="5.84804">
        <ele>567.8</ele>
        <time>2022-07-27T07:52:56Z</time>
      </trkpt>
      <trkpt lat="46.61447" lon="5.84764">
        <ele>567.32</ele>
        <time>2022-07-27T07:53:08Z</time>
      </trkpt>
      <trkpt lat="46.61481" lon="5.84757">
        <ele>566.83</ele>
        <time>2022-07-27T07:53:18Z</time>
      </trkpt>
      <trkpt lat="46.61489" lon="5.84753">
        <ele>567.32</ele>
        <time>2022-07-27T07:53:21Z</time>
      </trkpt>
      <trkpt lat="46.61491" lon="5.84749">
        <ele>567.8</ele>
        <time>2022-07-27T07:53:22Z</time>
      </trkpt>
      <trkpt lat="46.61499" lon="5.84675">
        <ele>567.32</ele>
        <time>2022-07-27T07:53:36Z</time>
      </trkpt>
      <trkpt lat="46.61516" lon="5.84618">
        <ele>567.32</ele>
        <time>2022-07-27T07:53:48Z</time>
      </trkpt>
      <trkpt lat="46.61538" lon="5.84578">
        <ele>566.83</ele>
        <time>2022-07-27T07:53:56Z</time>
      </trkpt>
      <trkpt lat="46.6154" lon="5.84572">
        <ele>567.32</ele>
        <time>2022-07-27T07:53:57Z</time>
      </trkpt>
      <trkpt lat="46.61552" lon="5.8451">
        <ele>567.8</ele>
        <time>2022-07-27T07:54:09Z</time>
      </trkpt>
      <trkpt lat="46.61558" lon="5.84455">
        <ele>569.24</ele>
        <time>2022-07-27T07:54:21Z</time>
      </trkpt>
      <trkpt lat="46.61565" lon="5.84401">
        <ele>571.16</ele>
        <time>2022-07-27T07:54:35Z</time>
      </trkpt>
      <trkpt lat="46.61547" lon="5.84343">
        <ele>569.24</ele>
        <time>2022-07-27T07:54:45Z</time>
      </trkpt>
      <trkpt lat="46.61538" lon="5.84317">
        <ele>567.32</ele>
        <time>2022-07-27T07:54:48Z</time>
      </trkpt>
      <trkpt lat="46.61536" lon="5.84307">
        <ele>566.83</ele>
        <time>2022-07-27T07:54:49Z</time>
      </trkpt>
      <trkpt lat="46.61533" lon="5.84261">
        <ele>563.95</ele>
        <time>2022-07-27T07:54:53Z</time>
      </trkpt>
      <trkpt lat="46.61535" lon="5.8425">
        <ele>563.95</ele>
        <time>2022-07-27T07:54:54Z</time>
      </trkpt>
      <trkpt lat="46.61538" lon="5.8424">
        <ele>564.43</ele>
        <time>2022-07-27T07:54:55Z</time>
      </trkpt>
      <trkpt lat="46.61542" lon="5.84231">
        <ele>564.91</ele>
        <time>2022-07-27T07:54:56Z</time>
      </trkpt>
      <trkpt lat="46.61545" lon="5.84222">
        <ele>564.91</ele>
        <time>2022-07-27T07:54:57Z</time>
      </trkpt>
      <trkpt lat="46.61548" lon="5.84214">
        <ele>565.39</ele>
        <time>2022-07-27T07:54:58Z</time>
      </trkpt>
      <trkpt lat="46.6155" lon="5.84206">
        <ele>565.87</ele>
        <time>2022-07-27T07:54:59Z</time>
      </trkpt>
      <trkpt lat="46.61551" lon="5.84198">
        <ele>565.87</ele>
        <time>2022-07-27T07:55:00Z</time>
      </trkpt>
      <trkpt lat="46.61552" lon="5.84139">
        <ele>565.87</ele>
        <time>2022-07-27T07:55:10Z</time>
      </trkpt>
      <trkpt lat="46.61535" lon="5.84052">
        <ele>564.43</ele>
        <time>2022-07-27T07:55:21Z</time>
      </trkpt>
      <trkpt lat="46.61496" lon="5.83891">
        <ele>561.07</ele>
        <time>2022-07-27T07:55:37Z</time>
      </trkpt>
      <trkpt lat="46.61453" lon="5.8374">
        <ele>558.18</ele>
        <time>2022-07-27T07:55:55Z</time>
      </trkpt>
      <trkpt lat="46.6143" lon="5.83657">
        <ele>557.7</ele>
        <time>2022-07-27T07:56:06Z</time>
      </trkpt>
      <trkpt lat="46.61429" lon="5.83642">
        <ele>557.22</ele>
        <time>2022-07-27T07:56:08Z</time>
      </trkpt>
      <trkpt lat="46.61428" lon="5.8356">
        <ele>556.74</ele>
        <time>2022-07-27T07:56:20Z</time>
      </trkpt>
      <trkpt lat="46.61429" lon="5.83544">
        <ele>556.74</ele>
        <time>2022-07-27T07:56:35Z</time>
      </trkpt>
      <trkpt lat="46.61431" lon="5.83503">
        <ele>556.74</ele>
        <time>2022-07-27T07:56:43Z</time>
      </trkpt>
      <trkpt lat="46.61432" lon="5.83497">
        <ele>556.74</ele>
        <time>2022-07-27T07:56:44Z</time>
      </trkpt>
      <trkpt lat="46.61432" lon="5.8349">
        <ele>557.22</ele>
        <time>2022-07-27T07:56:45Z</time>
      </trkpt>
      <trkpt lat="46.61433" lon="5.83484">
        <ele>556.74</ele>
        <time>2022-07-27T07:56:46Z</time>
      </trkpt>
      <trkpt lat="46.61433" lon="5.83477">
        <ele>556.74</ele>
        <time>2022-07-27T07:56:47Z</time>
      </trkpt>
      <trkpt lat="46.61438" lon="5.83352">
        <ele>556.26</ele>
        <time>2022-07-27T07:57:03Z</time>
      </trkpt>
      <trkpt lat="46.61449" lon="5.83211">
        <ele>555.78</ele>
        <time>2022-07-27T07:57:20Z</time>
      </trkpt>
      <trkpt lat="46.61451" lon="5.83203">
        <ele>555.78</ele>
        <time>2022-07-27T07:57:21Z</time>
      </trkpt>
      <trkpt lat="46.61499" lon="5.83074">
        <ele>555.78</ele>
        <time>2022-07-27T07:57:38Z</time>
      </trkpt>
      <trkpt lat="46.61542" lon="5.82956">
        <ele>555.3</ele>
        <time>2022-07-27T07:57:53Z</time>
      </trkpt>
      <trkpt lat="46.61594" lon="5.82847">
        <ele>555.3</ele>
        <time>2022-07-27T07:58:10Z</time>
      </trkpt>
      <trkpt lat="46.61646" lon="5.8277">
        <ele>554.34</ele>
        <time>2022-07-27T07:58:25Z</time>
      </trkpt>
      <trkpt lat="46.617" lon="5.827">
        <ele>554.34</ele>
        <time>2022-07-27T07:58:42Z</time>
      </trkpt>
      <trkpt lat="46.61739" lon="5.82661">
        <ele>555.3</ele>
        <time>2022-07-27T07:58:53Z</time>
      </trkpt>
      <trkpt lat="46.61783" lon="5.82608">
        <ele>556.74</ele>
        <time>2022-07-27T07:59:08Z</time>
      </trkpt>
      <trkpt lat="46.61816" lon="5.82565">
        <ele>558.18</ele>
        <time>2022-07-27T07:59:22Z</time>
      </trkpt>
      <trkpt lat="46.61844" lon="5.82526">
        <ele>559.62</ele>
        <time>2022-07-27T07:59:36Z</time>
      </trkpt>
      <trkpt lat="46.61875" lon="5.82454">
        <ele>558.66</ele>
        <time>2022-07-27T07:59:51Z</time>
      </trkpt>
      <trkpt lat="46.61904" lon="5.82368">
        <ele>555.78</ele>
        <time>2022-07-27T08:00:02Z</time>
      </trkpt>
      <trkpt lat="46.61934" lon="5.82273">
        <ele>553.38</ele>
        <time>2022-07-27T08:00:13Z</time>
      </trkpt>
      <trkpt lat="46.61938" lon="5.82265">
        <ele>553.38</ele>
        <time>2022-07-27T08:00:14Z</time>
      </trkpt>
      <trkpt lat="46.61942" lon="5.82259">
        <ele>553.86</ele>
        <time>2022-07-27T08:00:15Z</time>
      </trkpt>
      <trkpt lat="46.61957" lon="5.82238">
        <ele>553.86</ele>
        <time>2022-07-27T08:00:19Z</time>
      </trkpt>
      <trkpt lat="46.61961" lon="5.82234">
        <ele>554.34</ele>
        <time>2022-07-27T08:00:20Z</time>
      </trkpt>
      <trkpt lat="46.61966" lon="5.82231">
        <ele>554.34</ele>
        <time>2022-07-27T08:00:21Z</time>
      </trkpt>
      <trkpt lat="46.62034" lon="5.82199">
        <ele>552.9</ele>
        <time>2022-07-27T08:00:35Z</time>
      </trkpt>
      <trkpt lat="46.62066" lon="5.82184">
        <ele>551.93</ele>
        <time>2022-07-27T08:00:41Z</time>
      </trkpt>
      <trkpt lat="46.62072" lon="5.82183">
        <ele>552.41</ele>
        <time>2022-07-27T08:00:42Z</time>
      </trkpt>
      <trkpt lat="46.62088" lon="5.82185">
        <ele>551.93</ele>
        <time>2022-07-27T08:00:45Z</time>
      </trkpt>
      <trkpt lat="46.62093" lon="5.82186">
        <ele>552.41</ele>
        <time>2022-07-27T08:00:46Z</time>
      </trkpt>
      <trkpt lat="46.62123" lon="5.82198">
        <ele>552.9</ele>
        <time>2022-07-27T08:00:52Z</time>
      </trkpt>
      <trkpt lat="46.62129" lon="5.82199">
        <ele>551.93</ele>
        <time>2022-07-27T08:00:53Z</time>
      </trkpt>
      <trkpt lat="46.62164" lon="5.82196">
        <ele>552.41</ele>
        <time>2022-07-27T08:01:00Z</time>
      </trkpt>
      <trkpt lat="46.62168" lon="5.82193">
        <ele>552.41</ele>
        <time>2022-07-27T08:01:01Z</time>
      </trkpt>
      <trkpt lat="46.62173" lon="5.8219">
        <ele>552.41</ele>
        <time>2022-07-27T08:01:02Z</time>
      </trkpt>
      <trkpt lat="46.62226" lon="5.82136">
        <ele>552.41</ele>
        <time>2022-07-27T08:01:15Z</time>
      </trkpt>
      <trkpt lat="46.62295" lon="5.8209">
        <ele>551.93</ele>
        <time>2022-07-27T08:01:30Z</time>
      </trkpt>
      <trkpt lat="46.62326" lon="5.82065">
        <ele>551.93</ele>
        <time>2022-07-27T08:01:37Z</time>
      </trkpt>
      <trkpt lat="46.62331" lon="5.82063">
        <ele>551.93</ele>
        <time>2022-07-27T08:01:38Z</time>
      </trkpt>
      <trkpt lat="46.62336" lon="5.82061">
        <ele>551.93</ele>
        <time>2022-07-27T08:01:39Z</time>
      </trkpt>
      <trkpt lat="46.6234" lon="5.82059">
        <ele>552.41</ele>
        <time>2022-07-27T08:01:40Z</time>
      </trkpt>
      <trkpt lat="46.62345" lon="5.82057">
        <ele>551.93</ele>
        <time>2022-07-27T08:01:41Z</time>
      </trkpt>
      <trkpt lat="46.62406" lon="5.82007">
        <ele>552.9</ele>
        <time>2022-07-27T08:01:55Z</time>
      </trkpt>
      <trkpt lat="46.62414" lon="5.81999">
        <ele>552.41</ele>
        <time>2022-07-27T08:01:57Z</time>
      </trkpt>
      <trkpt lat="46.62446" lon="5.81978">
        <ele>551.93</ele>
        <time>2022-07-27T08:02:04Z</time>
      </trkpt>
      <trkpt lat="46.6245" lon="5.81973">
        <ele>551.93</ele>
        <time>2022-07-27T08:02:05Z</time>
      </trkpt>
      <trkpt lat="46.62454" lon="5.81969">
        <ele>552.41</ele>
        <time>2022-07-27T08:02:06Z</time>
      </trkpt>
      <trkpt lat="46.62461" lon="5.81959">
        <ele>551.93</ele>
        <time>2022-07-27T08:02:08Z</time>
      </trkpt>
      <trkpt lat="46.6248" lon="5.81936">
        <ele>551.93</ele>
        <time>2022-07-27T08:02:13Z</time>
      </trkpt>
      <trkpt lat="46.62535" lon="5.81866">
        <ele>551.93</ele>
        <time>2022-07-27T08:02:27Z</time>
      </trkpt>
      <trkpt lat="46.6254" lon="5.81861">
        <ele>551.45</ele>
        <time>2022-07-27T08:02:28Z</time>
      </trkpt>
      <trkpt lat="46.62561" lon="5.81835">
        <ele>551.45</ele>
        <time>2022-07-27T08:02:33Z</time>
      </trkpt>
      <trkpt lat="46.62564" lon="5.8183">
        <ele>551.93</ele>
        <time>2022-07-27T08:02:34Z</time>
      </trkpt>
      <trkpt lat="46.62568" lon="5.81825">
        <ele>551.93</ele>
        <time>2022-07-27T08:02:35Z</time>
      </trkpt>
      <trkpt lat="46.62575" lon="5.81815">
        <ele>551.93</ele>
        <time>2022-07-27T08:02:37Z</time>
      </trkpt>
      <trkpt lat="46.6258" lon="5.8181">
        <ele>551.93</ele>
        <time>2022-07-27T08:02:38Z</time>
      </trkpt>
      <trkpt lat="46.62588" lon="5.81803">
        <ele>552.41</ele>
        <time>2022-07-27T08:02:40Z</time>
      </trkpt>
      <trkpt lat="46.62611" lon="5.81781">
        <ele>551.93</ele>
        <time>2022-07-27T08:02:45Z</time>
      </trkpt>
      <trkpt lat="46.62615" lon="5.81776">
        <ele>551.93</ele>
        <time>2022-07-27T08:02:46Z</time>
      </trkpt>
      <trkpt lat="46.62633" lon="5.81752">
        <ele>552.41</ele>
        <time>2022-07-27T08:02:51Z</time>
      </trkpt>
      <trkpt lat="46.62642" lon="5.81742">
        <ele>551.93</ele>
        <time>2022-07-27T08:02:53Z</time>
      </trkpt>
      <trkpt lat="46.62647" lon="5.81736">
        <ele>551.93</ele>
        <time>2022-07-27T08:02:54Z</time>
      </trkpt>
      <trkpt lat="46.62651" lon="5.8173">
        <ele>551.45</ele>
        <time>2022-07-27T08:02:55Z</time>
      </trkpt>
      <trkpt lat="46.62659" lon="5.8172">
        <ele>551.93</ele>
        <time>2022-07-27T08:02:57Z</time>
      </trkpt>
      <trkpt lat="46.62677" lon="5.81703">
        <ele>551.93</ele>
        <time>2022-07-27T08:03:01Z</time>
      </trkpt>
      <trkpt lat="46.62681" lon="5.817">
        <ele>551.93</ele>
        <time>2022-07-27T08:03:02Z</time>
      </trkpt>
      <trkpt lat="46.62686" lon="5.81698">
        <ele>551.93</ele>
        <time>2022-07-27T08:03:03Z</time>
      </trkpt>
      <trkpt lat="46.62719" lon="5.8169">
        <ele>552.41</ele>
        <time>2022-07-27T08:03:09Z</time>
      </trkpt>
      <trkpt lat="46.6278" lon="5.8169">
        <ele>552.41</ele>
        <time>2022-07-27T08:03:19Z</time>
      </trkpt>
      <trkpt lat="46.62854" lon="5.8166">
        <ele>552.41</ele>
        <time>2022-07-27T08:03:33Z</time>
      </trkpt>
      <trkpt lat="46.62935" lon="5.81645">
        <ele>551.93</ele>
        <time>2022-07-27T08:03:48Z</time>
      </trkpt>
      <trkpt lat="46.63019" lon="5.81652">
        <ele>552.41</ele>
        <time>2022-07-27T08:04:03Z</time>
      </trkpt>
      <trkpt lat="46.63096" lon="5.81698">
        <ele>552.41</ele>
        <time>2022-07-27T08:04:16Z</time>
      </trkpt>
      <trkpt lat="46.63099" lon="5.81682">
        <ele>552.41</ele>
        <time>2022-07-27T08:04:18Z</time>
      </trkpt>
      <trkpt lat="46.63165" lon="5.81649">
        <ele>552.41</ele>
        <time>2022-07-27T08:04:35Z</time>
      </trkpt>
      <trkpt lat="46.6323" lon="5.81657">
        <ele>551.93</ele>
        <time>2022-07-27T08:04:50Z</time>
      </trkpt>
      <trkpt lat="46.63289" lon="5.81645">
        <ele>554.82</ele>
        <time>2022-07-27T08:05:06Z</time>
      </trkpt>
      <trkpt lat="46.63356" lon="5.81613">
        <ele>557.22</ele>
        <time>2022-07-27T08:05:27Z</time>
      </trkpt>
      <trkpt lat="46.63442" lon="5.81566">
        <ele>558.18</ele>
        <time>2022-07-27T08:05:50Z</time>
      </trkpt>
      <trkpt lat="46.63537" lon="5.81518">
        <ele>558.66</ele>
        <time>2022-07-27T08:06:14Z</time>
      </trkpt>
      <trkpt lat="46.6362" lon="5.81464">
        <ele>557.7</ele>
        <time>2022-07-27T08:06:34Z</time>
      </trkpt>
      <trkpt lat="46.63627" lon="5.81454">
        <ele>557.7</ele>
        <time>2022-07-27T08:06:36Z</time>
      </trkpt>
      <trkpt lat="46.63635" lon="5.81437">
        <ele>557.7</ele>
        <time>2022-07-27T08:06:39Z</time>
      </trkpt>
      <trkpt lat="46.6369" lon="5.81312">
        <ele>555.78</ele>
        <time>2022-07-27T08:06:59Z</time>
      </trkpt>
      <trkpt lat="46.63748" lon="5.81215">
        <ele>554.34</ele>
        <time>2022-07-27T08:07:15Z</time>
      </trkpt>
      <trkpt lat="46.63813" lon="5.81146">
        <ele>555.3</ele>
        <time>2022-07-27T08:07:30Z</time>
      </trkpt>
      <trkpt lat="46.63893" lon="5.81077">
        <ele>552.41</ele>
        <time>2022-07-27T08:07:46Z</time>
      </trkpt>
      <trkpt lat="46.63929" lon="5.8106">
        <ele>550.97</ele>
        <time>2022-07-27T08:07:51Z</time>
      </trkpt>
      <trkpt lat="46.64013" lon="5.80996">
        <ele>550.01</ele>
        <time>2022-07-27T08:08:05Z</time>
      </trkpt>
      <trkpt lat="46.64082" lon="5.8096">
        <ele>550.49</ele>
        <time>2022-07-27T08:08:18Z</time>
      </trkpt>
      <trkpt lat="46.64088" lon="5.80959">
        <ele>550.49</ele>
        <time>2022-07-27T08:08:19Z</time>
      </trkpt>
      <trkpt lat="46.64154" lon="5.80918">
        <ele>551.45</ele>
        <time>2022-07-27T08:08:33Z</time>
      </trkpt>
      <trkpt lat="46.64203" lon="5.8088">
        <ele>551.93</ele>
        <time>2022-07-27T08:08:44Z</time>
      </trkpt>
      <trkpt lat="46.64212" lon="5.80877">
        <ele>551.45</ele>
        <time>2022-07-27T08:08:46Z</time>
      </trkpt>
      <trkpt lat="46.64288" lon="5.80848">
        <ele>551.45</ele>
        <time>2022-07-27T08:09:02Z</time>
      </trkpt>
      <trkpt lat="46.64324" lon="5.80834">
        <ele>550.49</ele>
        <time>2022-07-27T08:09:09Z</time>
      </trkpt>
      <trkpt lat="46.64409" lon="5.8081">
        <ele>549.53</ele>
        <time>2022-07-27T08:09:24Z</time>
      </trkpt>
      <trkpt lat="46.64426" lon="5.80801">
        <ele>549.05</ele>
        <time>2022-07-27T08:09:27Z</time>
      </trkpt>
      <trkpt lat="46.64482" lon="5.80762">
        <ele>548.57</ele>
        <time>2022-07-27T08:09:38Z</time>
      </trkpt>
      <trkpt lat="46.64487" lon="5.80762">
        <ele>548.57</ele>
        <time>2022-07-27T08:09:39Z</time>
      </trkpt>
      <trkpt lat="46.64492" lon="5.80762">
        <ele>549.05</ele>
        <time>2022-07-27T08:09:40Z</time>
      </trkpt>
      <trkpt lat="46.64551" lon="5.80774">
        <ele>550.01</ele>
        <time>2022-07-27T08:09:53Z</time>
      </trkpt>
      <trkpt lat="46.64629" lon="5.80791">
        <ele>551.45</ele>
        <time>2022-07-27T08:10:09Z</time>
      </trkpt>
      <trkpt lat="46.64633" lon="5.80789">
        <ele>551.45</ele>
        <time>2022-07-27T08:10:10Z</time>
      </trkpt>
      <trkpt lat="46.64637" lon="5.80784">
        <ele>550.97</ele>
        <time>2022-07-27T08:10:11Z</time>
      </trkpt>
      <trkpt lat="46.6464" lon="5.80778">
        <ele>551.45</ele>
        <time>2022-07-27T08:10:12Z</time>
      </trkpt>
      <trkpt lat="46.64642" lon="5.80772">
        <ele>551.45</ele>
        <time>2022-07-27T08:10:13Z</time>
      </trkpt>
      <trkpt lat="46.64645" lon="5.80767">
        <ele>551.93</ele>
        <time>2022-07-27T08:10:14Z</time>
      </trkpt>
      <trkpt lat="46.64686" lon="5.80724">
        <ele>553.38</ele>
        <time>2022-07-27T08:10:27Z</time>
      </trkpt>
      <trkpt lat="46.64745" lon="5.80679">
        <ele>554.82</ele>
        <time>2022-07-27T08:10:44Z</time>
      </trkpt>
      <trkpt lat="46.64773" lon="5.80658">
        <ele>555.3</ele>
        <time>2022-07-27T08:10:51Z</time>
      </trkpt>
      <trkpt lat="46.64777" lon="5.80653">
        <ele>554.82</ele>
        <time>2022-07-27T08:10:52Z</time>
      </trkpt>
      <trkpt lat="46.6478" lon="5.80648">
        <ele>554.82</ele>
        <time>2022-07-27T08:10:53Z</time>
      </trkpt>
      <trkpt lat="46.64784" lon="5.80643">
        <ele>555.78</ele>
        <time>2022-07-27T08:10:54Z</time>
      </trkpt>
      <trkpt lat="46.64788" lon="5.80638">
        <ele>555.3</ele>
        <time>2022-07-27T08:10:55Z</time>
      </trkpt>
      <trkpt lat="46.64792" lon="5.80632">
        <ele>555.3</ele>
        <time>2022-07-27T08:10:56Z</time>
      </trkpt>
      <trkpt lat="46.64832" lon="5.80555">
        <ele>553.86</ele>
        <time>2022-07-27T08:11:07Z</time>
      </trkpt>
      <trkpt lat="46.64838" lon="5.80531">
        <ele>553.86</ele>
        <time>2022-07-27T08:11:10Z</time>
      </trkpt>
      <trkpt lat="46.64838" lon="5.80523">
        <ele>554.34</ele>
        <time>2022-07-27T08:11:11Z</time>
      </trkpt>
      <trkpt lat="46.64833" lon="5.80401">
        <ele>552.9</ele>
        <time>2022-07-27T08:11:26Z</time>
      </trkpt>
      <trkpt lat="46.64834" lon="5.80392">
        <ele>552.41</ele>
        <time>2022-07-27T08:11:27Z</time>
      </trkpt>
      <trkpt lat="46.6485" lon="5.80271">
        <ele>549.05</ele>
        <time>2022-07-27T08:11:39Z</time>
      </trkpt>
      <trkpt lat="46.64853" lon="5.80252">
        <ele>549.53</ele>
        <time>2022-07-27T08:11:41Z</time>
      </trkpt>
      <trkpt lat="46.64855" lon="5.80242">
        <ele>549.53</ele>
        <time>2022-07-27T08:11:42Z</time>
      </trkpt>
      <trkpt lat="46.64857" lon="5.80232">
        <ele>549.53</ele>
        <time>2022-07-27T08:11:43Z</time>
      </trkpt>
      <trkpt lat="46.6486" lon="5.80224">
        <ele>549.53</ele>
        <time>2022-07-27T08:11:44Z</time>
      </trkpt>
      <trkpt lat="46.64863" lon="5.80215">
        <ele>550.01</ele>
        <time>2022-07-27T08:11:45Z</time>
      </trkpt>
      <trkpt lat="46.64897" lon="5.801">
        <ele>548.09</ele>
        <time>2022-07-27T08:11:58Z</time>
      </trkpt>
      <trkpt lat="46.64946" lon="5.79967">
        <ele>548.09</ele>
        <time>2022-07-27T08:12:14Z</time>
      </trkpt>
      <trkpt lat="46.64962" lon="5.79924">
        <ele>548.09</ele>
        <time>2022-07-27T08:12:20Z</time>
      </trkpt>
      <trkpt lat="46.64964" lon="5.79918">
        <ele>548.09</ele>
        <time>2022-07-27T08:12:21Z</time>
      </trkpt>
      <trkpt lat="46.64968" lon="5.79911">
        <ele>548.09</ele>
        <time>2022-07-27T08:12:22Z</time>
      </trkpt>
      <trkpt lat="46.64995" lon="5.7985">
        <ele>548.57</ele>
        <time>2022-07-27T08:12:31Z</time>
      </trkpt>
      <trkpt lat="46.65027" lon="5.79793">
        <ele>548.57</ele>
        <time>2022-07-27T08:12:40Z</time>
      </trkpt>
      <trkpt lat="46.65041" lon="5.79764">
        <ele>548.57</ele>
        <time>2022-07-27T08:12:44Z</time>
      </trkpt>
      <trkpt lat="46.65049" lon="5.79752">
        <ele>549.05</ele>
        <time>2022-07-27T08:12:46Z</time>
      </trkpt>
      <trkpt lat="46.65086" lon="5.79641">
        <ele>548.57</ele>
        <time>2022-07-27T08:13:01Z</time>
      </trkpt>
      <trkpt lat="46.65096" lon="5.79603">
        <ele>547.61</ele>
        <time>2022-07-27T08:13:06Z</time>
      </trkpt>
      <trkpt lat="46.65098" lon="5.79596">
        <ele>547.61</ele>
        <time>2022-07-27T08:13:07Z</time>
      </trkpt>
      <trkpt lat="46.65127" lon="5.79516">
        <ele>548.57</ele>
        <time>2022-07-27T08:13:18Z</time>
      </trkpt>
      <trkpt lat="46.65142" lon="5.79483">
        <ele>548.09</ele>
        <time>2022-07-27T08:13:23Z</time>
      </trkpt>
      <trkpt lat="46.65151" lon="5.79465">
        <ele>548.57</ele>
        <time>2022-07-27T08:13:26Z</time>
      </trkpt>
      <trkpt lat="46.65174" lon="5.7941">
        <ele>548.57</ele>
        <time>2022-07-27T08:13:35Z</time>
      </trkpt>
      <trkpt lat="46.65176" lon="5.79404">
        <ele>549.05</ele>
        <time>2022-07-27T08:13:36Z</time>
      </trkpt>
      <trkpt lat="46.65179" lon="5.79397">
        <ele>548.57</ele>
        <time>2022-07-27T08:13:37Z</time>
      </trkpt>
      <trkpt lat="46.65194" lon="5.79359">
        <ele>549.05</ele>
        <time>2022-07-27T08:13:43Z</time>
      </trkpt>
      <trkpt lat="46.65197" lon="5.79352">
        <ele>549.05</ele>
        <time>2022-07-27T08:13:44Z</time>
      </trkpt>
      <trkpt lat="46.65208" lon="5.79316">
        <ele>550.01</ele>
        <time>2022-07-27T08:13:50Z</time>
      </trkpt>
      <trkpt lat="46.6521" lon="5.7931">
        <ele>550.01</ele>
        <time>2022-07-27T08:13:51Z</time>
      </trkpt>
      <trkpt lat="46.65243" lon="5.79231">
        <ele>550.97</ele>
        <time>2022-07-27T08:14:07Z</time>
      </trkpt>
      <trkpt lat="46.65273" lon="5.79152">
        <ele>551.93</ele>
        <time>2022-07-27T08:14:23Z</time>
      </trkpt>
      <trkpt lat="46.65298" lon="5.79083">
        <ele>552.9</ele>
        <time>2022-07-27T08:14:36Z</time>
      </trkpt>
      <trkpt lat="46.65322" lon="5.79031">
        <ele>554.34</ele>
        <time>2022-07-27T08:14:53Z</time>
      </trkpt>
      <trkpt lat="46.65351" lon="5.78971">
        <ele>554.34</ele>
        <time>2022-07-27T08:15:09Z</time>
      </trkpt>
      <trkpt lat="46.65368" lon="5.78884">
        <ele>555.78</ele>
        <time>2022-07-27T08:15:26Z</time>
      </trkpt>
      <trkpt lat="46.65355" lon="5.78786">
        <ele>554.34</ele>
        <time>2022-07-27T08:15:42Z</time>
      </trkpt>
      <trkpt lat="46.65333" lon="5.78664">
        <ele>551.45</ele>
        <time>2022-07-27T08:15:55Z</time>
      </trkpt>
      <trkpt lat="46.65311" lon="5.7854">
        <ele>551.93</ele>
        <time>2022-07-27T08:16:12Z</time>
      </trkpt>
      <trkpt lat="46.65296" lon="5.78426">
        <ele>551.93</ele>
        <time>2022-07-27T08:16:28Z</time>
      </trkpt>
      <trkpt lat="46.65294" lon="5.78387">
        <ele>551.93</ele>
        <time>2022-07-27T08:16:33Z</time>
      </trkpt>
      <trkpt lat="46.65285" lon="5.78303">
        <ele>552.41</ele>
        <time>2022-07-27T08:16:46Z</time>
      </trkpt>
      <trkpt lat="46.65281" lon="5.78211">
        <ele>553.38</ele>
        <time>2022-07-27T08:17:03Z</time>
      </trkpt>
      <trkpt lat="46.65289" lon="5.78137">
        <ele>555.78</ele>
        <time>2022-07-27T08:17:21Z</time>
      </trkpt>
      <trkpt lat="46.65299" lon="5.78075">
        <ele>557.22</ele>
        <time>2022-07-27T08:17:37Z</time>
      </trkpt>
      <trkpt lat="46.65311" lon="5.7802">
        <ele>558.66</ele>
        <time>2022-07-27T08:17:54Z</time>
      </trkpt>
      <trkpt lat="46.6532" lon="5.77989">
        <ele>560.59</ele>
        <time>2022-07-27T08:18:07Z</time>
      </trkpt>
      <trkpt lat="46.65321" lon="5.77988">
        <ele>560.59</ele>
        <time>2022-07-27T08:18:08Z</time>
      </trkpt>
      <trkpt lat="46.65322" lon="5.77986">
        <ele>560.59</ele>
        <time>2022-07-27T08:18:09Z</time>
      </trkpt>
      <trkpt lat="46.65345" lon="5.77954">
        <ele>559.62</ele>
        <time>2022-07-27T08:18:22Z</time>
      </trkpt>
      <trkpt lat="46.65382" lon="5.77913">
        <ele>556.26</ele>
        <time>2022-07-27T08:18:34Z</time>
      </trkpt>
      <trkpt lat="46.65385" lon="5.7791">
        <ele>555.78</ele>
        <time>2022-07-27T08:18:35Z</time>
      </trkpt>
      <trkpt lat="46.65403" lon="5.77897">
        <ele>554.82</ele>
        <time>2022-07-27T08:18:45Z</time>
      </trkpt>
      <trkpt lat="46.65412" lon="5.77896">
        <ele>553.86</ele>
        <time>2022-07-27T08:18:48Z</time>
      </trkpt>
      <trkpt lat="46.65456" lon="5.77881">
        <ele>554.34</ele>
        <time>2022-07-27T08:19:05Z</time>
      </trkpt>
      <trkpt lat="46.65476" lon="5.77858">
        <ele>554.34</ele>
        <time>2022-07-27T08:19:17Z</time>
      </trkpt>
      <trkpt lat="46.6548" lon="5.77857">
        <ele>554.34</ele>
        <time>2022-07-27T08:19:20Z</time>
      </trkpt>
      <trkpt lat="46.65513" lon="5.77879">
        <ele>556.26</ele>
        <time>2022-07-27T08:19:36Z</time>
      </trkpt>
      <trkpt lat="46.65536" lon="5.77884">
        <ele>557.7</ele>
        <time>2022-07-27T08:19:49Z</time>
      </trkpt>
      <trkpt lat="46.65536" lon="5.77883">
        <ele>557.22</ele>
        <time>2022-07-27T08:20:12Z</time>
      </trkpt>
      <trkpt lat="46.65534" lon="5.77879">
        <ele>556.74</ele>
        <time>2022-07-27T08:20:42Z</time>
      </trkpt>
      <trkpt lat="46.65535" lon="5.77884">
        <ele>556.74</ele>
        <time>2022-07-27T08:21:10Z</time>
      </trkpt>
      <trkpt lat="46.65539" lon="5.77881">
        <ele>556.74</ele>
        <time>2022-07-27T08:21:31Z</time>
      </trkpt>
      <trkpt lat="46.6554" lon="5.7788">
        <ele>556.74</ele>
        <time>2022-07-27T08:21:32Z</time>
      </trkpt>
      <trkpt lat="46.65573" lon="5.77867">
        <ele>558.18</ele>
        <time>2022-07-27T08:21:46Z</time>
      </trkpt>
      <trkpt lat="46.65594" lon="5.77859">
        <ele>559.62</ele>
        <time>2022-07-27T08:21:56Z</time>
      </trkpt>
      <trkpt lat="46.65596" lon="5.7786">
        <ele>560.11</ele>
        <time>2022-07-27T08:21:57Z</time>
      </trkpt>
      <trkpt lat="46.65599" lon="5.7786">
        <ele>559.62</ele>
        <time>2022-07-27T08:21:58Z</time>
      </trkpt>
      <trkpt lat="46.65601" lon="5.77859">
        <ele>559.62</ele>
        <time>2022-07-27T08:21:59Z</time>
      </trkpt>
      <trkpt lat="46.65604" lon="5.77859">
        <ele>560.59</ele>
        <time>2022-07-27T08:22:00Z</time>
      </trkpt>
      <trkpt lat="46.65645" lon="5.77843">
        <ele>562.51</ele>
        <time>2022-07-27T08:22:18Z</time>
      </trkpt>
      <trkpt lat="46.65681" lon="5.7783">
        <ele>562.99</ele>
        <time>2022-07-27T08:22:33Z</time>
      </trkpt>
      <trkpt lat="46.65734" lon="5.77792">
        <ele>562.03</ele>
        <time>2022-07-27T08:22:48Z</time>
      </trkpt>
      <trkpt lat="46.65794" lon="5.77733">
        <ele>561.55</ele>
        <time>2022-07-27T08:23:05Z</time>
      </trkpt>
      <trkpt lat="46.65798" lon="5.77731">
        <ele>562.51</ele>
        <time>2022-07-27T08:23:06Z</time>
      </trkpt>
      <trkpt lat="46.65806" lon="5.77728">
        <ele>561.55</ele>
        <time>2022-07-27T08:23:08Z</time>
      </trkpt>
      <trkpt lat="46.65815" lon="5.77726">
        <ele>562.03</ele>
        <time>2022-07-27T08:23:10Z</time>
      </trkpt>
      <trkpt lat="46.65839" lon="5.7773">
        <ele>560.59</ele>
        <time>2022-07-27T08:23:15Z</time>
      </trkpt>
      <trkpt lat="46.65844" lon="5.7773">
        <ele>561.55</ele>
        <time>2022-07-27T08:23:16Z</time>
      </trkpt>
      <trkpt lat="46.65849" lon="5.7773">
        <ele>561.55</ele>
        <time>2022-07-27T08:23:17Z</time>
      </trkpt>
      <trkpt lat="46.65853" lon="5.77728">
        <ele>561.07</ele>
        <time>2022-07-27T08:23:18Z</time>
      </trkpt>
      <trkpt lat="46.65858" lon="5.77726">
        <ele>561.07</ele>
        <time>2022-07-27T08:23:19Z</time>
      </trkpt>
      <trkpt lat="46.65928" lon="5.77686">
        <ele>562.51</ele>
        <time>2022-07-27T08:23:36Z</time>
      </trkpt>
      <trkpt lat="46.66003" lon="5.77638">
        <ele>562.99</ele>
        <time>2022-07-27T08:23:55Z</time>
      </trkpt>
      <trkpt lat="46.66069" lon="5.77594">
        <ele>563.47</ele>
        <time>2022-07-27T08:24:12Z</time>
      </trkpt>
      <trkpt lat="46.6615" lon="5.77524">
        <ele>562.99</ele>
        <time>2022-07-27T08:24:31Z</time>
      </trkpt>
      <trkpt lat="46.66158" lon="5.77518">
        <ele>563.47</ele>
        <time>2022-07-27T08:24:33Z</time>
      </trkpt>
      <trkpt lat="46.66163" lon="5.77517">
        <ele>563.47</ele>
        <time>2022-07-27T08:24:34Z</time>
      </trkpt>
      <trkpt lat="46.66167" lon="5.77517">
        <ele>562.99</ele>
        <time>2022-07-27T08:24:35Z</time>
      </trkpt>
      <trkpt lat="46.66194" lon="5.77526">
        <ele>561.55</ele>
        <time>2022-07-27T08:24:42Z</time>
      </trkpt>
      <trkpt lat="46.66198" lon="5.77527">
        <ele>561.55</ele>
        <time>2022-07-27T08:24:50Z</time>
      </trkpt>
      <trkpt lat="46.66197" lon="5.77526">
        <ele>560.59</ele>
        <time>2022-07-27T08:24:58Z</time>
      </trkpt>
      <trkpt lat="46.66198" lon="5.77527">
        <ele>575.49</ele>
        <time>2022-07-27T08:34:36Z</time>
      </trkpt>
      <trkpt lat="46.66193" lon="5.77513">
        <ele>572.6</ele>
        <time>2022-07-27T08:34:48Z</time>
      </trkpt>
      <trkpt lat="46.66194" lon="5.77512">
        <ele>569.24</ele>
        <time>2022-07-27T08:34:51Z</time>
      </trkpt>
      <trkpt lat="46.66194" lon="5.77514">
        <ele>566.35</ele>
        <time>2022-07-27T08:34:54Z</time>
      </trkpt>
      <trkpt lat="46.66195" lon="5.77515">
        <ele>562.99</ele>
        <time>2022-07-27T08:34:58Z</time>
      </trkpt>
      <trkpt lat="46.66195" lon="5.77515">
        <ele>562.03</ele>
        <time>2022-07-27T08:35:00Z</time>
      </trkpt>
      <trkpt lat="46.66195" lon="5.77516">
        <ele>558.66</ele>
        <time>2022-07-27T08:35:05Z</time>
      </trkpt>
      <trkpt lat="46.66195" lon="5.77516">
        <ele>557.7</ele>
        <time>2022-07-27T08:35:07Z</time>
      </trkpt>
      <trkpt lat="46.66195" lon="5.77517">
        <ele>554.34</ele>
        <time>2022-07-27T08:35:15Z</time>
      </trkpt>
      <trkpt lat="46.66195" lon="5.77518">
        <ele>552.9</ele>
        <time>2022-07-27T08:35:17Z</time>
      </trkpt>
      <trkpt lat="46.66196" lon="5.77516">
        <ele>549.53</ele>
        <time>2022-07-27T08:35:29Z</time>
      </trkpt>
      <trkpt lat="46.66196" lon="5.77517">
        <ele>548.57</ele>
        <time>2022-07-27T08:35:33Z</time>
      </trkpt>
      <trkpt lat="46.66177" lon="5.77519">
        <ele>547.61</ele>
        <time>2022-07-27T08:35:44Z</time>
      </trkpt>
      <trkpt lat="46.66175" lon="5.77506">
        <ele>547.61</ele>
        <time>2022-07-27T08:35:48Z</time>
      </trkpt>
      <trkpt lat="46.66176" lon="5.77502">
        <ele>547.13</ele>
        <time>2022-07-27T08:35:49Z</time>
      </trkpt>
      <trkpt lat="46.66178" lon="5.775">
        <ele>547.13</ele>
        <time>2022-07-27T08:35:50Z</time>
      </trkpt>
      <trkpt lat="46.66179" lon="5.77497">
        <ele>546.65</ele>
        <time>2022-07-27T08:35:51Z</time>
      </trkpt>
      <trkpt lat="46.66182" lon="5.77494">
        <ele>547.13</ele>
        <time>2022-07-27T08:35:52Z</time>
      </trkpt>
      <trkpt lat="46.66185" lon="5.77492">
        <ele>546.65</ele>
        <time>2022-07-27T08:35:53Z</time>
      </trkpt>
      <trkpt lat="46.66251" lon="5.77426">
        <ele>543.28</ele>
        <time>2022-07-27T08:36:12Z</time>
      </trkpt>
      <trkpt lat="46.66334" lon="5.77347">
        <ele>541.84</ele>
        <time>2022-07-27T08:36:32Z</time>
      </trkpt>
      <trkpt lat="46.66392" lon="5.77297">
        <ele>542.8</ele>
        <time>2022-07-27T08:36:46Z</time>
      </trkpt>
      <trkpt lat="46.66423" lon="5.77269">
        <ele>543.28</ele>
        <time>2022-07-27T08:36:53Z</time>
      </trkpt>
      <trkpt lat="46.6647" lon="5.77225">
        <ele>541.84</ele>
        <time>2022-07-27T08:37:03Z</time>
      </trkpt>
      <trkpt lat="46.66518" lon="5.77138">
        <ele>537.99</ele>
        <time>2022-07-27T08:37:15Z</time>
      </trkpt>
      <trkpt lat="46.66547" lon="5.77031">
        <ele>535.11</ele>
        <time>2022-07-27T08:37:26Z</time>
      </trkpt>
      <trkpt lat="46.6655" lon="5.77021">
        <ele>534.63</ele>
        <time>2022-07-27T08:37:27Z</time>
      </trkpt>
      <trkpt lat="46.66586" lon="5.76936">
        <ele>532.23</ele>
        <time>2022-07-27T08:37:36Z</time>
      </trkpt>
      <trkpt lat="46.66621" lon="5.76851">
        <ele>528.86</ele>
        <time>2022-07-27T08:37:45Z</time>
      </trkpt>
      <trkpt lat="46.66651" lon="5.76783">
        <ele>526.94</ele>
        <time>2022-07-27T08:37:52Z</time>
      </trkpt>
      <trkpt lat="46.66656" lon="5.76774">
        <ele>526.46</ele>
        <time>2022-07-27T08:37:53Z</time>
      </trkpt>
      <trkpt lat="46.66663" lon="5.76766">
        <ele>525.5</ele>
        <time>2022-07-27T08:37:54Z</time>
      </trkpt>
      <trkpt lat="46.66669" lon="5.76758">
        <ele>525.5</ele>
        <time>2022-07-27T08:37:55Z</time>
      </trkpt>
      <trkpt lat="46.66677" lon="5.76752">
        <ele>525.98</ele>
        <time>2022-07-27T08:37:56Z</time>
      </trkpt>
      <trkpt lat="46.66684" lon="5.76746">
        <ele>525.5</ele>
        <time>2022-07-27T08:37:57Z</time>
      </trkpt>
      <trkpt lat="46.66692" lon="5.76741">
        <ele>524.54</ele>
        <time>2022-07-27T08:37:58Z</time>
      </trkpt>
      <trkpt lat="46.66701" lon="5.76738">
        <ele>524.06</ele>
        <time>2022-07-27T08:37:59Z</time>
      </trkpt>
      <trkpt lat="46.66709" lon="5.76736">
        <ele>524.54</ele>
        <time>2022-07-27T08:38:00Z</time>
      </trkpt>
      <trkpt lat="46.66718" lon="5.76735">
        <ele>523.09</ele>
        <time>2022-07-27T08:38:01Z</time>
      </trkpt>
      <trkpt lat="46.66726" lon="5.76735">
        <ele>523.09</ele>
        <time>2022-07-27T08:38:02Z</time>
      </trkpt>
      <trkpt lat="46.66735" lon="5.76736">
        <ele>522.61</ele>
        <time>2022-07-27T08:38:03Z</time>
      </trkpt>
      <trkpt lat="46.66743" lon="5.76738">
        <ele>522.61</ele>
        <time>2022-07-27T08:38:04Z</time>
      </trkpt>
      <trkpt lat="46.66751" lon="5.7674">
        <ele>522.13</ele>
        <time>2022-07-27T08:38:05Z</time>
      </trkpt>
      <trkpt lat="46.66782" lon="5.76753">
        <ele>520.69</ele>
        <time>2022-07-27T08:38:09Z</time>
      </trkpt>
      <trkpt lat="46.66829" lon="5.76775">
        <ele>501</ele>
      </trkpt>
      <trkpt lat="46.66847" lon="5.76797">
        <ele>500.3</ele>
        <time>2022-07-27T08:38:22Z</time>
      </trkpt>
      <trkpt lat="46.6698" lon="5.76843">
        <ele>498.6</ele>
        <time>2022-07-27T08:38:44Z</time>
      </trkpt>
      <trkpt lat="46.67084" lon="5.76878">
        <ele>496.8</ele>
      </trkpt>
      <trkpt lat="46.67093" lon="5.7688">
        <ele>496.5</ele>
        <time>2022-07-27T08:39:03Z</time>
      </trkpt>
      <trkpt lat="46.67189" lon="5.76919">
        <ele>495.9</ele>
        <time>2022-07-27T08:39:23Z</time>
      </trkpt>
      <trkpt lat="46.67284" lon="5.76971">
        <ele>495</ele>
        <time>2022-07-27T08:39:43Z</time>
      </trkpt>
      <trkpt lat="46.67358" lon="5.77068">
        <ele>494.5</ele>
        <time>2022-07-27T08:40:02Z</time>
      </trkpt>
      <trkpt lat="46.67433" lon="5.77165">
        <ele>493.6</ele>
        <time>2022-07-27T08:40:21Z</time>
      </trkpt>
      <trkpt lat="46.67511" lon="5.77268">
        <ele>492.9</ele>
        <time>2022-07-27T08:40:43Z</time>
      </trkpt>
      <trkpt lat="46.67576" lon="5.77351">
        <ele>493.6</ele>
        <time>2022-07-27T08:41:00Z</time>
      </trkpt>
      <trkpt lat="46.67631" lon="5.77434">
        <ele>494.7</ele>
        <time>2022-07-27T08:41:17Z</time>
      </trkpt>
      <trkpt lat="46.67657" lon="5.77528">
        <ele>494.3</ele>
        <time>2022-07-27T08:41:34Z</time>
      </trkpt>
      <trkpt lat="46.6766" lon="5.77575">
        <ele>493.7</ele>
        <time>2022-07-27T08:41:50Z</time>
      </trkpt>
      <trkpt lat="46.6765" lon="5.77611">
        <ele>492.8</ele>
        <time>2022-07-27T08:42:07Z</time>
      </trkpt>
      <trkpt lat="46.6764" lon="5.77651">
        <ele>491.1</ele>
        <time>2022-07-27T08:42:10Z</time>
      </trkpt>
      <trkpt lat="46.67636" lon="5.77662">
        <ele>490.9</ele>
        <time>2022-07-27T08:42:11Z</time>
      </trkpt>
      <trkpt lat="46.67632" lon="5.77674">
        <ele>490.8</ele>
        <time>2022-07-27T08:42:12Z</time>
      </trkpt>
      <trkpt lat="46.67631" lon="5.77684">
        <ele>490.7</ele>
        <time>2022-07-27T08:42:13Z</time>
      </trkpt>
      <trkpt lat="46.6763" lon="5.77695">
        <ele>490.7</ele>
        <time>2022-07-27T08:42:15Z</time>
      </trkpt>
      <trkpt lat="46.67635" lon="5.77708">
        <ele>490.4</ele>
        <time>2022-07-27T08:42:17Z</time>
      </trkpt>
      <trkpt lat="46.6764" lon="5.77723">
        <ele>490.1</ele>
        <time>2022-07-27T08:42:20Z</time>
      </trkpt>
      <trkpt lat="46.67644" lon="5.7774">
        <ele>490.2</ele>
        <time>2022-07-27T08:42:30Z</time>
      </trkpt>
      <trkpt lat="46.6765" lon="5.77745">
        <ele>506.27</ele>
        <time>2022-07-27T08:43:10Z</time>
      </trkpt>
      <trkpt lat="46.67649" lon="5.77746">
        <ele>507.71</ele>
        <time>2022-07-27T08:43:15Z</time>
      </trkpt>
      <trkpt lat="46.67649" lon="5.77748">
        <ele>507.71</ele>
        <time>2022-07-27T08:43:18Z</time>
      </trkpt>
      <trkpt lat="46.67666" lon="5.7778">
        <ele>508.19</ele>
        <time>2022-07-27T08:43:31Z</time>
      </trkpt>
      <trkpt lat="46.67689" lon="5.77852">
        <ele>508.67</ele>
        <time>2022-07-27T08:43:44Z</time>
      </trkpt>
      <trkpt lat="46.67724" lon="5.77962">
        <ele>510.12</ele>
        <time>2022-07-27T08:44:03Z</time>
      </trkpt>
      <trkpt lat="46.67735" lon="5.77991">
        <ele>510.6</ele>
        <time>2022-07-27T08:44:14Z</time>
      </trkpt>
      <trkpt lat="46.67735" lon="5.77993">
        <ele>510.12</ele>
        <time>2022-07-27T08:44:15Z</time>
      </trkpt>
      <trkpt lat="46.67727" lon="5.78026">
        <ele>509.16</ele>
        <time>2022-07-27T08:44:24Z</time>
      </trkpt>
      <trkpt lat="46.67724" lon="5.7803">
        <ele>508.67</ele>
        <time>2022-07-27T08:44:25Z</time>
      </trkpt>
      <trkpt lat="46.67721" lon="5.78033">
        <ele>508.67</ele>
        <time>2022-07-27T08:44:26Z</time>
      </trkpt>
      <trkpt lat="46.67719" lon="5.78035">
        <ele>508.19</ele>
        <time>2022-07-27T08:44:27Z</time>
      </trkpt>
      <trkpt lat="46.67717" lon="5.78038">
        <ele>507.71</ele>
        <time>2022-07-27T08:44:28Z</time>
      </trkpt>
      <trkpt lat="46.67714" lon="5.78041">
        <ele>507.71</ele>
        <time>2022-07-27T08:44:29Z</time>
      </trkpt>
      <trkpt lat="46.67694" lon="5.78074">
        <ele>507.23</ele>
        <time>2022-07-27T08:44:40Z</time>
      </trkpt>
      <trkpt lat="46.67689" lon="5.78104">
        <ele>507.23</ele>
        <time>2022-07-27T08:44:49Z</time>
      </trkpt>
      <trkpt lat="46.67689" lon="5.78108">
        <ele>507.71</ele>
        <time>2022-07-27T08:44:50Z</time>
      </trkpt>
      <trkpt lat="46.67688" lon="5.78112">
        <ele>507.23</ele>
        <time>2022-07-27T08:44:51Z</time>
      </trkpt>
      <trkpt lat="46.67681" lon="5.78154">
        <ele>507.71</ele>
        <time>2022-07-27T08:45:02Z</time>
      </trkpt>
      <trkpt lat="46.67675" lon="5.78156">
        <ele>507.71</ele>
        <time>2022-07-27T08:45:06Z</time>
      </trkpt>
      <trkpt lat="46.67673" lon="5.78156">
        <ele>507.23</ele>
        <time>2022-07-27T08:45:08Z</time>
      </trkpt>
      <trkpt lat="46.67665" lon="5.78148">
        <ele>506.75</ele>
        <time>2022-07-27T08:45:21Z</time>
      </trkpt>
      <trkpt lat="46.67665" lon="5.78149">
        <ele>506.75</ele>
        <time>2022-07-27T08:45:51Z</time>
      </trkpt>
      <trkpt lat="46.67666" lon="5.78147">
        <ele>506.27</ele>
        <time>2022-07-27T08:46:29Z</time>
      </trkpt>
      <trkpt lat="46.67664" lon="5.78149">
        <ele>506.27</ele>
        <time>2022-07-27T08:47:09Z</time>
      </trkpt>
      <trkpt lat="46.67663" lon="5.7815">
        <ele>505.79</ele>
        <time>2022-07-27T08:47:44Z</time>
      </trkpt>
      <trkpt lat="46.67662" lon="5.78147">
        <ele>505.79</ele>
        <time>2022-07-27T08:48:12Z</time>
      </trkpt>
      <trkpt lat="46.67663" lon="5.78148">
        <ele>506.27</ele>
        <time>2022-07-27T08:48:41Z</time>
      </trkpt>
      <trkpt lat="46.67666" lon="5.7815">
        <ele>506.27</ele>
        <time>2022-07-27T08:48:55Z</time>
      </trkpt>
      <trkpt lat="46.67671" lon="5.78141">
        <ele>506.27</ele>
        <time>2022-07-27T08:49:00Z</time>
      </trkpt>
      <trkpt lat="46.67691" lon="5.78107">
        <ele>506.75</ele>
        <time>2022-07-27T08:49:15Z</time>
      </trkpt>
      <trkpt lat="46.67694" lon="5.78099">
        <ele>507.71</ele>
        <time>2022-07-27T08:49:17Z</time>
      </trkpt>
      <trkpt lat="46.67696" lon="5.78097">
        <ele>507.23</ele>
        <time>2022-07-27T08:49:18Z</time>
      </trkpt>
      <trkpt lat="46.67697" lon="5.78097">
        <ele>507.23</ele>
        <time>2022-07-27T08:49:19Z</time>
      </trkpt>
      <trkpt lat="46.67699" lon="5.78097">
        <ele>507.23</ele>
        <time>2022-07-27T08:49:20Z</time>
      </trkpt>
      <trkpt lat="46.67701" lon="5.78098">
        <ele>506.75</ele>
        <time>2022-07-27T08:49:21Z</time>
      </trkpt>
      <trkpt lat="46.67703" lon="5.78098">
        <ele>507.23</ele>
        <time>2022-07-27T08:49:22Z</time>
      </trkpt>
      <trkpt lat="46.67704" lon="5.78098">
        <ele>507.23</ele>
        <time>2022-07-27T08:49:23Z</time>
      </trkpt>
      <trkpt lat="46.67705" lon="5.78096">
        <ele>507.71</ele>
        <time>2022-07-27T08:49:24Z</time>
      </trkpt>
      <trkpt lat="46.67706" lon="5.78093">
        <ele>507.23</ele>
        <time>2022-07-27T08:49:25Z</time>
      </trkpt>
      <trkpt lat="46.67706" lon="5.7809">
        <ele>507.71</ele>
        <time>2022-07-27T08:49:26Z</time>
      </trkpt>
      <trkpt lat="46.67715" lon="5.78056">
        <ele>506.75</ele>
        <time>2022-07-27T08:49:37Z</time>
      </trkpt>
      <trkpt lat="46.67722" lon="5.78037">
        <ele>507.23</ele>
        <time>2022-07-27T08:49:45Z</time>
      </trkpt>
      <trkpt lat="46.67724" lon="5.78037">
        <ele>507.23</ele>
        <time>2022-07-27T08:49:46Z</time>
      </trkpt>
      <trkpt lat="46.67726" lon="5.78035">
        <ele>507.23</ele>
        <time>2022-07-27T08:49:47Z</time>
      </trkpt>
      <trkpt lat="46.67753" lon="5.78032">
        <ele>508.67</ele>
        <time>2022-07-27T08:49:59Z</time>
      </trkpt>
      <trkpt lat="46.67786" lon="5.78027">
        <ele>509.64</ele>
        <time>2022-07-27T08:50:12Z</time>
      </trkpt>
      <trkpt lat="46.67795" lon="5.78025">
        <ele>509.64</ele>
        <time>2022-07-27T08:50:24Z</time>
      </trkpt>
      <trkpt lat="46.67799" lon="5.78024">
        <ele>510.12</ele>
        <time>2022-07-27T08:50:34Z</time>
      </trkpt>
      <trkpt lat="46.67801" lon="5.78023">
        <ele>510.6</ele>
        <time>2022-07-27T08:50:35Z</time>
      </trkpt>
      <trkpt lat="46.67825" lon="5.78011">
        <ele>510.6</ele>
        <time>2022-07-27T08:50:45Z</time>
      </trkpt>
      <trkpt lat="46.67877" lon="5.78">
        <ele>491.4</ele>
        <time>2022-07-27T08:51:00Z</time>
      </trkpt>
      <trkpt lat="46.67937" lon="5.77988">
        <ele>492.7</ele>
        <time>2022-07-27T08:51:17Z</time>
      </trkpt>
      <trkpt lat="46.67945" lon="5.77994">
        <ele>493</ele>
        <time>2022-07-27T08:51:19Z</time>
      </trkpt>
      <trkpt lat="46.67954" lon="5.77993">
        <ele>492.8</ele>
        <time>2022-07-27T08:51:20Z</time>
      </trkpt>
      <trkpt lat="46.67959" lon="5.77989">
        <ele>492.7</ele>
        <time>2022-07-27T08:51:21Z</time>
      </trkpt>
      <trkpt lat="46.67965" lon="5.77987">
        <ele>492.6</ele>
        <time>2022-07-27T08:51:22Z</time>
      </trkpt>
      <trkpt lat="46.67969" lon="5.77984">
        <ele>492.6</ele>
        <time>2022-07-27T08:51:23Z</time>
      </trkpt>
      <trkpt lat="46.67983" lon="5.77976">
        <ele>492.2</ele>
        <time>2022-07-27T08:51:27Z</time>
      </trkpt>
      <trkpt lat="46.6801" lon="5.77956">
        <ele>491</ele>
        <time>2022-07-27T08:51:33Z</time>
      </trkpt>
      <trkpt lat="46.68045" lon="5.7792">
        <ele>508.19</ele>
        <time>2022-07-27T08:51:47Z</time>
      </trkpt>
      <trkpt lat="46.68072" lon="5.77935">
        <ele>510.6</ele>
        <time>2022-07-27T08:52:01Z</time>
      </trkpt>
      <trkpt lat="46.68086" lon="5.77967">
        <ele>513</ele>
        <time>2022-07-27T08:52:15Z</time>
      </trkpt>
      <trkpt lat="46.68098" lon="5.78002">
        <ele>515.88</ele>
        <time>2022-07-27T08:52:30Z</time>
      </trkpt>
      <trkpt lat="46.68111" lon="5.78042">
        <ele>518.77</ele>
        <time>2022-07-27T08:52:50Z</time>
      </trkpt>
      <trkpt lat="46.68124" lon="5.78087">
        <ele>521.65</ele>
        <time>2022-07-27T08:53:12Z</time>
      </trkpt>
      <trkpt lat="46.68133" lon="5.78126">
        <ele>524.06</ele>
        <time>2022-07-27T08:53:30Z</time>
      </trkpt>
      <trkpt lat="46.68136" lon="5.78161">
        <ele>526.94</ele>
        <time>2022-07-27T08:53:46Z</time>
      </trkpt>
      <trkpt lat="46.68138" lon="5.78169">
        <ele>526.94</ele>
        <time>2022-07-27T08:53:50Z</time>
      </trkpt>
      <trkpt lat="46.68139" lon="5.7817">
        <ele>527.42</ele>
        <time>2022-07-27T08:53:51Z</time>
      </trkpt>
      <trkpt lat="46.68144" lon="5.78179">
        <ele>527.9</ele>
        <time>2022-07-27T08:53:57Z</time>
      </trkpt>
      <trkpt lat="46.68145" lon="5.78182">
        <ele>528.38</ele>
        <time>2022-07-27T08:53:58Z</time>
      </trkpt>
      <trkpt lat="46.68163" lon="5.78201">
        <ele>530.3</ele>
        <time>2022-07-27T08:54:15Z</time>
      </trkpt>
      <trkpt lat="46.68172" lon="5.78217">
        <ele>531.75</ele>
        <time>2022-07-27T08:54:24Z</time>
      </trkpt>
      <trkpt lat="46.68172" lon="5.78219">
        <ele>531.27</ele>
        <time>2022-07-27T08:54:25Z</time>
      </trkpt>
      <trkpt lat="46.68173" lon="5.78221">
        <ele>531.75</ele>
        <time>2022-07-27T08:54:26Z</time>
      </trkpt>
      <trkpt lat="46.68173" lon="5.78222">
        <ele>532.23</ele>
        <time>2022-07-27T08:54:27Z</time>
      </trkpt>
      <trkpt lat="46.68173" lon="5.78224">
        <ele>532.71</ele>
        <time>2022-07-27T08:54:28Z</time>
      </trkpt>
      <trkpt lat="46.68173" lon="5.78226">
        <ele>532.71</ele>
        <time>2022-07-27T08:54:29Z</time>
      </trkpt>
      <trkpt lat="46.68173" lon="5.78228">
        <ele>532.71</ele>
        <time>2022-07-27T08:54:30Z</time>
      </trkpt>
      <trkpt lat="46.68173" lon="5.78229">
        <ele>532.71</ele>
        <time>2022-07-27T08:54:31Z</time>
      </trkpt>
      <trkpt lat="46.68172" lon="5.78231">
        <ele>533.19</ele>
        <time>2022-07-27T08:54:32Z</time>
      </trkpt>
      <trkpt lat="46.68172" lon="5.78233">
        <ele>533.19</ele>
        <time>2022-07-27T08:54:33Z</time>
      </trkpt>
      <trkpt lat="46.68171" lon="5.78235">
        <ele>533.19</ele>
        <time>2022-07-27T08:54:34Z</time>
      </trkpt>
      <trkpt lat="46.68171" lon="5.78236">
        <ele>533.19</ele>
        <time>2022-07-27T08:54:35Z</time>
      </trkpt>
      <trkpt lat="46.6817" lon="5.78237">
        <ele>533.67</ele>
        <time>2022-07-27T08:54:36Z</time>
      </trkpt>
      <trkpt lat="46.6817" lon="5.78239">
        <ele>533.67</ele>
        <time>2022-07-27T08:54:37Z</time>
      </trkpt>
      <trkpt lat="46.68169" lon="5.78242">
        <ele>533.67</ele>
        <time>2022-07-27T08:54:38Z</time>
      </trkpt>
      <trkpt lat="46.68169" lon="5.78245">
        <ele>534.15</ele>
        <time>2022-07-27T08:54:39Z</time>
      </trkpt>
      <trkpt lat="46.68168" lon="5.78248">
        <ele>534.15</ele>
        <time>2022-07-27T08:54:40Z</time>
      </trkpt>
      <trkpt lat="46.68167" lon="5.7825">
        <ele>534.63</ele>
        <time>2022-07-27T08:54:41Z</time>
      </trkpt>
      <trkpt lat="46.68144" lon="5.78305">
        <ele>535.11</ele>
        <time>2022-07-27T08:54:57Z</time>
      </trkpt>
      <trkpt lat="46.68121" lon="5.78363">
        <ele>535.11</ele>
        <time>2022-07-27T08:55:11Z</time>
      </trkpt>
      <trkpt lat="46.68109" lon="5.78449">
        <ele>536.55</ele>
        <time>2022-07-27T08:55:28Z</time>
      </trkpt>
      <trkpt lat="46.68098" lon="5.78533">
        <ele>536.55</ele>
        <time>2022-07-27T08:55:42Z</time>
      </trkpt>
      <trkpt lat="46.68123" lon="5.78608">
        <ele>537.51</ele>
        <time>2022-07-27T08:55:55Z</time>
      </trkpt>
      <trkpt lat="46.68126" lon="5.78619">
        <ele>537.51</ele>
        <time>2022-07-27T08:55:57Z</time>
      </trkpt>
      <trkpt lat="46.68126" lon="5.78625">
        <ele>537.03</ele>
        <time>2022-07-27T08:55:58Z</time>
      </trkpt>
      <trkpt lat="46.68127" lon="5.78631">
        <ele>537.51</ele>
        <time>2022-07-27T08:55:59Z</time>
      </trkpt>
      <trkpt lat="46.68126" lon="5.78637">
        <ele>537.99</ele>
        <time>2022-07-27T08:56:00Z</time>
      </trkpt>
      <trkpt lat="46.68124" lon="5.78643">
        <ele>537.51</ele>
        <time>2022-07-27T08:56:01Z</time>
      </trkpt>
      <trkpt lat="46.68122" lon="5.78648">
        <ele>537.99</ele>
        <time>2022-07-27T08:56:02Z</time>
      </trkpt>
      <trkpt lat="46.68119" lon="5.78653">
        <ele>537.51</ele>
        <time>2022-07-27T08:56:03Z</time>
      </trkpt>
      <trkpt lat="46.68117" lon="5.78658">
        <ele>537.99</ele>
        <time>2022-07-27T08:56:04Z</time>
      </trkpt>
      <trkpt lat="46.68097" lon="5.78722">
        <ele>538.96</ele>
        <time>2022-07-27T08:56:17Z</time>
      </trkpt>
      <trkpt lat="46.68111" lon="5.78813">
        <ele>539.44</ele>
        <time>2022-07-27T08:56:32Z</time>
      </trkpt>
      <trkpt lat="46.68127" lon="5.78872">
        <ele>539.44</ele>
        <time>2022-07-27T08:56:42Z</time>
      </trkpt>
      <trkpt lat="46.68134" lon="5.789">
        <ele>539.44</ele>
        <time>2022-07-27T08:56:47Z</time>
      </trkpt>
      <trkpt lat="46.68164" lon="5.7898">
        <ele>540.4</ele>
        <time>2022-07-27T08:57:02Z</time>
      </trkpt>
      <trkpt lat="46.68184" lon="5.79032">
        <ele>540.4</ele>
        <time>2022-07-27T08:57:11Z</time>
      </trkpt>
      <trkpt lat="46.68197" lon="5.7912">
        <ele>539.92</ele>
        <time>2022-07-27T08:57:26Z</time>
      </trkpt>
      <trkpt lat="46.68197" lon="5.79126">
        <ele>540.4</ele>
        <time>2022-07-27T08:57:27Z</time>
      </trkpt>
      <trkpt lat="46.68195" lon="5.7915">
        <ele>540.4</ele>
        <time>2022-07-27T08:57:31Z</time>
      </trkpt>
      <trkpt lat="46.68183" lon="5.79236">
        <ele>541.84</ele>
        <time>2022-07-27T08:57:48Z</time>
      </trkpt>
      <trkpt lat="46.68175" lon="5.79314">
        <ele>543.76</ele>
        <time>2022-07-27T08:58:05Z</time>
      </trkpt>
      <trkpt lat="46.68167" lon="5.79392">
        <ele>544.72</ele>
        <time>2022-07-27T08:58:22Z</time>
      </trkpt>
      <trkpt lat="46.68175" lon="5.79478">
        <ele>547.13</ele>
        <time>2022-07-27T08:58:41Z</time>
      </trkpt>
      <trkpt lat="46.68189" lon="5.79541">
        <ele>549.05</ele>
        <time>2022-07-27T08:58:56Z</time>
      </trkpt>
      <trkpt lat="46.68207" lon="5.79616">
        <ele>549.53</ele>
        <time>2022-07-27T08:59:15Z</time>
      </trkpt>
      <trkpt lat="46.6822" lon="5.79677">
        <ele>550.49</ele>
        <time>2022-07-27T08:59:28Z</time>
      </trkpt>
      <trkpt lat="46.68245" lon="5.79773">
        <ele>550.49</ele>
        <time>2022-07-27T08:59:45Z</time>
      </trkpt>
      <trkpt lat="46.68268" lon="5.79843">
        <ele>551.93</ele>
        <time>2022-07-27T09:00:00Z</time>
      </trkpt>
      <trkpt lat="46.68302" lon="5.79925">
        <ele>552.9</ele>
        <time>2022-07-27T09:00:18Z</time>
      </trkpt>
      <trkpt lat="46.68328" lon="5.79964">
        <ele>554.82</ele>
        <time>2022-07-27T09:00:33Z</time>
      </trkpt>
      <trkpt lat="46.68357" lon="5.79993">
        <ele>555.78</ele>
        <time>2022-07-27T09:00:47Z</time>
      </trkpt>
      <trkpt lat="46.68392" lon="5.80018">
        <ele>558.18</ele>
        <time>2022-07-27T09:01:04Z</time>
      </trkpt>
      <trkpt lat="46.68435" lon="5.8002">
        <ele>561.07</ele>
        <time>2022-07-27T09:01:24Z</time>
      </trkpt>
      <trkpt lat="46.68469" lon="5.80003">
        <ele>562.51</ele>
        <time>2022-07-27T09:01:42Z</time>
      </trkpt>
      <trkpt lat="46.68493" lon="5.79993">
        <ele>564.43</ele>
        <time>2022-07-27T09:01:56Z</time>
      </trkpt>
      <trkpt lat="46.68514" lon="5.79985">
        <ele>566.35</ele>
        <time>2022-07-27T09:02:09Z</time>
      </trkpt>
      <trkpt lat="46.6854" lon="5.79979">
        <ele>567.8</ele>
        <time>2022-07-27T09:02:24Z</time>
      </trkpt>
      <trkpt lat="46.68565" lon="5.79977">
        <ele>570.68</ele>
        <time>2022-07-27T09:02:39Z</time>
      </trkpt>
      <trkpt lat="46.68591" lon="5.79983">
        <ele>572.12</ele>
        <time>2022-07-27T09:02:54Z</time>
      </trkpt>
      <trkpt lat="46.68598" lon="5.79987">
        <ele>573.08</ele>
        <time>2022-07-27T09:02:59Z</time>
      </trkpt>
      <trkpt lat="46.68606" lon="5.7999">
        <ele>574.04</ele>
        <time>2022-07-27T09:03:05Z</time>
      </trkpt>
      <trkpt lat="46.68608" lon="5.79991">
        <ele>574.04</ele>
        <time>2022-07-27T09:03:06Z</time>
      </trkpt>
      <trkpt lat="46.68629" lon="5.80003">
        <ele>576.45</ele>
        <time>2022-07-27T09:03:21Z</time>
      </trkpt>
      <trkpt lat="46.68642" lon="5.8002">
        <ele>577.41</ele>
        <time>2022-07-27T09:03:30Z</time>
      </trkpt>
      <trkpt lat="46.68644" lon="5.80021">
        <ele>577.41</ele>
        <time>2022-07-27T09:03:31Z</time>
      </trkpt>
      <trkpt lat="46.68646" lon="5.80023">
        <ele>577.41</ele>
        <time>2022-07-27T09:03:32Z</time>
      </trkpt>
      <trkpt lat="46.68668" lon="5.80046">
        <ele>580.29</ele>
        <time>2022-07-27T09:03:48Z</time>
      </trkpt>
      <trkpt lat="46.68671" lon="5.80064">
        <ele>580.77</ele>
        <time>2022-07-27T09:03:54Z</time>
      </trkpt>
      <trkpt lat="46.68649" lon="5.80058">
        <ele>583.18</ele>
        <time>2022-07-27T09:04:07Z</time>
      </trkpt>
      <trkpt lat="46.68629" lon="5.80072">
        <ele>585.58</ele>
        <time>2022-07-27T09:04:21Z</time>
      </trkpt>
      <trkpt lat="46.68608" lon="5.80076">
        <ele>587.5</ele>
        <time>2022-07-27T09:04:33Z</time>
      </trkpt>
      <trkpt lat="46.6858" lon="5.80099">
        <ele>589.43</ele>
        <time>2022-07-27T09:04:49Z</time>
      </trkpt>
      <trkpt lat="46.68559" lon="5.80139">
        <ele>591.35</ele>
        <time>2022-07-27T09:05:04Z</time>
      </trkpt>
      <trkpt lat="46.68557" lon="5.80145">
        <ele>592.31</ele>
        <time>2022-07-27T09:05:06Z</time>
      </trkpt>
      <trkpt lat="46.68543" lon="5.80196">
        <ele>594.71</ele>
        <time>2022-07-27T09:05:23Z</time>
      </trkpt>
      <trkpt lat="46.68532" lon="5.80247">
        <ele>596.15</ele>
        <time>2022-07-27T09:05:41Z</time>
      </trkpt>
      <trkpt lat="46.6852" lon="5.80297">
        <ele>598.56</ele>
        <time>2022-07-27T09:05:59Z</time>
      </trkpt>
      <trkpt lat="46.68509" lon="5.80342">
        <ele>600</ele>
        <time>2022-07-27T09:06:16Z</time>
      </trkpt>
      <trkpt lat="46.68491" lon="5.80372">
        <ele>602.4</ele>
        <time>2022-07-27T09:06:30Z</time>
      </trkpt>
      <trkpt lat="46.6847" lon="5.80404">
        <ele>604.33</ele>
        <time>2022-07-27T09:06:45Z</time>
      </trkpt>
      <trkpt lat="46.68455" lon="5.80441">
        <ele>606.25</ele>
        <time>2022-07-27T09:07:01Z</time>
      </trkpt>
      <trkpt lat="46.68459" lon="5.80488">
        <ele>608.65</ele>
        <time>2022-07-27T09:07:17Z</time>
      </trkpt>
      <trkpt lat="46.6846" lon="5.80496">
        <ele>608.65</ele>
        <time>2022-07-27T09:07:20Z</time>
      </trkpt>
      <trkpt lat="46.68461" lon="5.80498">
        <ele>608.65</ele>
        <time>2022-07-27T09:07:21Z</time>
      </trkpt>
      <trkpt lat="46.6847" lon="5.80532">
        <ele>610.09</ele>
        <time>2022-07-27T09:07:36Z</time>
      </trkpt>
      <trkpt lat="46.68479" lon="5.80575">
        <ele>611.54</ele>
        <time>2022-07-27T09:07:51Z</time>
      </trkpt>
      <trkpt lat="46.68495" lon="5.80646">
        <ele>612.5</ele>
        <time>2022-07-27T09:08:11Z</time>
      </trkpt>
      <trkpt lat="46.68509" lon="5.80697">
        <ele>614.42</ele>
        <time>2022-07-27T09:08:26Z</time>
      </trkpt>
      <trkpt lat="46.68516" lon="5.80726">
        <ele>616.34</ele>
        <time>2022-07-27T09:08:38Z</time>
      </trkpt>
      <trkpt lat="46.68529" lon="5.80772">
        <ele>618.75</ele>
        <time>2022-07-27T09:08:55Z</time>
      </trkpt>
      <trkpt lat="46.68539" lon="5.80816">
        <ele>621.63</ele>
        <time>2022-07-27T09:09:12Z</time>
      </trkpt>
      <trkpt lat="46.68555" lon="5.80875">
        <ele>624.51</ele>
        <time>2022-07-27T09:09:30Z</time>
      </trkpt>
      <trkpt lat="46.68567" lon="5.80927">
        <ele>625.96</ele>
        <time>2022-07-27T09:09:45Z</time>
      </trkpt>
      <trkpt lat="46.6858" lon="5.80984">
        <ele>626.44</ele>
        <time>2022-07-27T09:09:59Z</time>
      </trkpt>
      <trkpt lat="46.68605" lon="5.81072">
        <ele>625.96</ele>
        <time>2022-07-27T09:10:16Z</time>
      </trkpt>
      <trkpt lat="46.68614" lon="5.81102">
        <ele>626.44</ele>
        <time>2022-07-27T09:10:21Z</time>
      </trkpt>
      <trkpt lat="46.68646" lon="5.81222">
        <ele>625.96</ele>
        <time>2022-07-27T09:10:40Z</time>
      </trkpt>
      <trkpt lat="46.68672" lon="5.8132">
        <ele>624.99</ele>
        <time>2022-07-27T09:10:55Z</time>
      </trkpt>
      <trkpt lat="46.68685" lon="5.81366">
        <ele>624.99</ele>
        <time>2022-07-27T09:11:01Z</time>
      </trkpt>
      <trkpt lat="46.68687" lon="5.81373">
        <ele>624.51</ele>
        <time>2022-07-27T09:11:02Z</time>
      </trkpt>
      <trkpt lat="46.68702" lon="5.81428">
        <ele>625.96</ele>
        <time>2022-07-27T09:11:11Z</time>
      </trkpt>
      <trkpt lat="46.68703" lon="5.81434">
        <ele>625.96</ele>
        <time>2022-07-27T09:11:12Z</time>
      </trkpt>
      <trkpt lat="46.68727" lon="5.81533">
        <ele>625.47</ele>
        <time>2022-07-27T09:11:28Z</time>
      </trkpt>
      <trkpt lat="46.6875" lon="5.81624">
        <ele>625.47</ele>
        <time>2022-07-27T09:11:41Z</time>
      </trkpt>
      <trkpt lat="46.68766" lon="5.81685">
        <ele>626.92</ele>
        <time>2022-07-27T09:11:53Z</time>
      </trkpt>
      <trkpt lat="46.6878" lon="5.81746">
        <ele>628.84</ele>
        <time>2022-07-27T09:12:08Z</time>
      </trkpt>
      <trkpt lat="46.68798" lon="5.81829">
        <ele>629.32</ele>
        <time>2022-07-27T09:12:24Z</time>
      </trkpt>
      <trkpt lat="46.68806" lon="5.81911">
        <ele>628.36</ele>
        <time>2022-07-27T09:12:39Z</time>
      </trkpt>
      <trkpt lat="46.68807" lon="5.81924">
        <ele>628.36</ele>
        <time>2022-07-27T09:12:41Z</time>
      </trkpt>
      <trkpt lat="46.68807" lon="5.8193">
        <ele>628.36</ele>
        <time>2022-07-27T09:12:42Z</time>
      </trkpt>
      <trkpt lat="46.68806" lon="5.81936">
        <ele>628.36</ele>
        <time>2022-07-27T09:12:43Z</time>
      </trkpt>
      <trkpt lat="46.68805" lon="5.81943">
        <ele>628.36</ele>
        <time>2022-07-27T09:12:44Z</time>
      </trkpt>
      <trkpt lat="46.68803" lon="5.81951">
        <ele>627.88</ele>
        <time>2022-07-27T09:12:45Z</time>
      </trkpt>
      <trkpt lat="46.68801" lon="5.81958">
        <ele>627.4</ele>
        <time>2022-07-27T09:12:46Z</time>
      </trkpt>
      <trkpt lat="46.68798" lon="5.81965">
        <ele>626.92</ele>
        <time>2022-07-27T09:12:47Z</time>
      </trkpt>
      <trkpt lat="46.68744" lon="5.82067">
        <ele>625.47</ele>
        <time>2022-07-27T09:13:02Z</time>
      </trkpt>
      <trkpt lat="46.68737" lon="5.82076">
        <ele>625.47</ele>
        <time>2022-07-27T09:13:04Z</time>
      </trkpt>
      <trkpt lat="46.68674" lon="5.82119">
        <ele>626.44</ele>
        <time>2022-07-27T09:13:19Z</time>
      </trkpt>
      <trkpt lat="46.68634" lon="5.82146">
        <ele>626.92</ele>
        <time>2022-07-27T09:13:29Z</time>
      </trkpt>
      <trkpt lat="46.68565" lon="5.82174">
        <ele>628.36</ele>
        <time>2022-07-27T09:13:47Z</time>
      </trkpt>
      <trkpt lat="46.685" lon="5.82183">
        <ele>627.88</ele>
        <time>2022-07-27T09:14:02Z</time>
      </trkpt>
      <trkpt lat="46.68491" lon="5.82184">
        <ele>627.88</ele>
        <time>2022-07-27T09:14:04Z</time>
      </trkpt>
      <trkpt lat="46.68424" lon="5.8219">
        <ele>629.32</ele>
        <time>2022-07-27T09:14:20Z</time>
      </trkpt>
      <trkpt lat="46.68387" lon="5.8222">
        <ele>629.8</ele>
        <time>2022-07-27T09:14:34Z</time>
      </trkpt>
      <trkpt lat="46.68337" lon="5.82278">
        <ele>631.72</ele>
        <time>2022-07-27T09:14:51Z</time>
      </trkpt>
      <trkpt lat="46.68282" lon="5.82346">
        <ele>632.2</ele>
        <time>2022-07-27T09:15:12Z</time>
      </trkpt>
      <trkpt lat="46.68234" lon="5.82407">
        <ele>631.72</ele>
        <time>2022-07-27T09:15:29Z</time>
      </trkpt>
      <trkpt lat="46.68224" lon="5.8242">
        <ele>631.24</ele>
        <time>2022-07-27T09:15:32Z</time>
      </trkpt>
      <trkpt lat="46.6822" lon="5.82424">
        <ele>630.76</ele>
        <time>2022-07-27T09:15:33Z</time>
      </trkpt>
      <trkpt lat="46.68215" lon="5.82428">
        <ele>631.24</ele>
        <time>2022-07-27T09:15:34Z</time>
      </trkpt>
      <trkpt lat="46.6821" lon="5.8243">
        <ele>630.76</ele>
        <time>2022-07-27T09:15:35Z</time>
      </trkpt>
      <trkpt lat="46.68205" lon="5.82432">
        <ele>630.28</ele>
        <time>2022-07-27T09:15:36Z</time>
      </trkpt>
      <trkpt lat="46.682" lon="5.82432">
        <ele>630.28</ele>
        <time>2022-07-27T09:15:37Z</time>
      </trkpt>
      <trkpt lat="46.68195" lon="5.82432">
        <ele>630.76</ele>
        <time>2022-07-27T09:15:38Z</time>
      </trkpt>
      <trkpt lat="46.68189" lon="5.82431">
        <ele>630.76</ele>
        <time>2022-07-27T09:15:39Z</time>
      </trkpt>
      <trkpt lat="46.68179" lon="5.82428">
        <ele>629.8</ele>
        <time>2022-07-27T09:15:41Z</time>
      </trkpt>
      <trkpt lat="46.68159" lon="5.82421">
        <ele>629.8</ele>
        <time>2022-07-27T09:15:45Z</time>
      </trkpt>
      <trkpt lat="46.68154" lon="5.8242">
        <ele>630.28</ele>
        <time>2022-07-27T09:15:46Z</time>
      </trkpt>
      <trkpt lat="46.68139" lon="5.82418">
        <ele>629.8</ele>
        <time>2022-07-27T09:15:49Z</time>
      </trkpt>
      <trkpt lat="46.68134" lon="5.82419">
        <ele>629.8</ele>
        <time>2022-07-27T09:15:50Z</time>
      </trkpt>
      <trkpt lat="46.68038" lon="5.82426">
        <ele>629.32</ele>
        <time>2022-07-27T09:16:07Z</time>
      </trkpt>
      <trkpt lat="46.68001" lon="5.82407">
        <ele>629.32</ele>
        <time>2022-07-27T09:16:14Z</time>
      </trkpt>
      <trkpt lat="46.6795" lon="5.8235">
        <ele>630.28</ele>
        <time>2022-07-27T09:16:27Z</time>
      </trkpt>
      <trkpt lat="46.67912" lon="5.82302">
        <ele>631.24</ele>
        <time>2022-07-27T09:16:41Z</time>
      </trkpt>
      <trkpt lat="46.67854" lon="5.82246">
        <ele>628.84</ele>
        <time>2022-07-27T09:16:54Z</time>
      </trkpt>
      <trkpt lat="46.67848" lon="5.82244">
        <ele>628.84</ele>
        <time>2022-07-27T09:16:55Z</time>
      </trkpt>
      <trkpt lat="46.67841" lon="5.82242">
        <ele>628.84</ele>
        <time>2022-07-27T09:16:56Z</time>
      </trkpt>
      <trkpt lat="46.67835" lon="5.8224">
        <ele>628.36</ele>
        <time>2022-07-27T09:16:57Z</time>
      </trkpt>
      <trkpt lat="46.67828" lon="5.82239">
        <ele>628.36</ele>
        <time>2022-07-27T09:16:58Z</time>
      </trkpt>
      <trkpt lat="46.67821" lon="5.82239">
        <ele>627.88</ele>
        <time>2022-07-27T09:16:59Z</time>
      </trkpt>
      <trkpt lat="46.67815" lon="5.82239">
        <ele>627.88</ele>
        <time>2022-07-27T09:17:00Z</time>
      </trkpt>
      <trkpt lat="46.67807" lon="5.82239">
        <ele>627.88</ele>
        <time>2022-07-27T09:17:01Z</time>
      </trkpt>
      <trkpt lat="46.6777" lon="5.82253">
        <ele>625.47</ele>
        <time>2022-07-27T09:17:06Z</time>
      </trkpt>
      <trkpt lat="46.67761" lon="5.82259">
        <ele>624.51</ele>
        <time>2022-07-27T09:17:07Z</time>
      </trkpt>
      <trkpt lat="46.67729" lon="5.8229">
        <ele>623.07</ele>
        <time>2022-07-27T09:17:11Z</time>
      </trkpt>
      <trkpt lat="46.67687" lon="5.82329">
        <ele>620.67</ele>
        <time>2022-07-27T09:17:16Z</time>
      </trkpt>
      <trkpt lat="46.67621" lon="5.82401">
        <ele>621.63</ele>
        <time>2022-07-27T09:17:27Z</time>
      </trkpt>
      <trkpt lat="46.67584" lon="5.82447">
        <ele>621.63</ele>
        <time>2022-07-27T09:17:38Z</time>
      </trkpt>
      <trkpt lat="46.67579" lon="5.82449">
        <ele>621.63</ele>
        <time>2022-07-27T09:17:39Z</time>
      </trkpt>
      <trkpt lat="46.67574" lon="5.82452">
        <ele>620.67</ele>
        <time>2022-07-27T09:17:40Z</time>
      </trkpt>
      <trkpt lat="46.67568" lon="5.82453">
        <ele>620.19</ele>
        <time>2022-07-27T09:17:41Z</time>
      </trkpt>
      <trkpt lat="46.67562" lon="5.82453">
        <ele>619.71</ele>
        <time>2022-07-27T09:17:42Z</time>
      </trkpt>
      <trkpt lat="46.67555" lon="5.82452">
        <ele>619.71</ele>
        <time>2022-07-27T09:17:43Z</time>
      </trkpt>
      <trkpt lat="46.67548" lon="5.82451">
        <ele>619.23</ele>
        <time>2022-07-27T09:17:44Z</time>
      </trkpt>
      <trkpt lat="46.67542" lon="5.82448">
        <ele>618.75</ele>
        <time>2022-07-27T09:17:45Z</time>
      </trkpt>
      <trkpt lat="46.67536" lon="5.82445">
        <ele>618.75</ele>
        <time>2022-07-27T09:17:46Z</time>
      </trkpt>
      <trkpt lat="46.67531" lon="5.82441">
        <ele>618.75</ele>
        <time>2022-07-27T09:17:47Z</time>
      </trkpt>
      <trkpt lat="46.67463" lon="5.82406">
        <ele>619.71</ele>
        <time>2022-07-27T09:18:01Z</time>
      </trkpt>
      <trkpt lat="46.67441" lon="5.82406">
        <ele>619.23</ele>
        <time>2022-07-27T09:18:05Z</time>
      </trkpt>
      <trkpt lat="46.67436" lon="5.82407">
        <ele>619.71</ele>
        <time>2022-07-27T09:18:06Z</time>
      </trkpt>
      <trkpt lat="46.6743" lon="5.82409">
        <ele>619.71</ele>
        <time>2022-07-27T09:18:07Z</time>
      </trkpt>
      <trkpt lat="46.6739" lon="5.82422">
        <ele>618.75</ele>
        <time>2022-07-27T09:18:14Z</time>
      </trkpt>
      <trkpt lat="46.67383" lon="5.82422">
        <ele>618.75</ele>
        <time>2022-07-27T09:18:15Z</time>
      </trkpt>
      <trkpt lat="46.67377" lon="5.82421">
        <ele>618.26</ele>
        <time>2022-07-27T09:18:16Z</time>
      </trkpt>
      <trkpt lat="46.6737" lon="5.8242">
        <ele>617.78</ele>
        <time>2022-07-27T09:18:17Z</time>
      </trkpt>
      <trkpt lat="46.67363" lon="5.82417">
        <ele>617.3</ele>
        <time>2022-07-27T09:18:18Z</time>
      </trkpt>
      <trkpt lat="46.67316" lon="5.824">
        <ele>615.38</ele>
        <time>2022-07-27T09:18:24Z</time>
      </trkpt>
      <trkpt lat="46.67308" lon="5.82399">
        <ele>615.38</ele>
        <time>2022-07-27T09:18:25Z</time>
      </trkpt>
      <trkpt lat="46.67301" lon="5.82399">
        <ele>614.9</ele>
        <time>2022-07-27T09:18:26Z</time>
      </trkpt>
      <trkpt lat="46.67186" lon="5.82399">
        <ele>613.46</ele>
        <time>2022-07-27T09:18:42Z</time>
      </trkpt>
      <trkpt lat="46.67089" lon="5.82391">
        <ele>612.5</ele>
        <time>2022-07-27T09:18:57Z</time>
      </trkpt>
      <trkpt lat="46.67032" lon="5.82395">
        <ele>612.02</ele>
        <time>2022-07-27T09:19:07Z</time>
      </trkpt>
      <trkpt lat="46.67023" lon="5.82392">
        <ele>612.5</ele>
        <time>2022-07-27T09:19:09Z</time>
      </trkpt>
      <trkpt lat="46.67019" lon="5.8239">
        <ele>612.98</ele>
        <time>2022-07-27T09:19:10Z</time>
      </trkpt>
      <trkpt lat="46.67016" lon="5.82386">
        <ele>612.5</ele>
        <time>2022-07-27T09:19:11Z</time>
      </trkpt>
      <trkpt lat="46.66972" lon="5.82327">
        <ele>614.9</ele>
        <time>2022-07-27T09:19:27Z</time>
      </trkpt>
      <trkpt lat="46.6695" lon="5.82302">
        <ele>614.9</ele>
        <time>2022-07-27T09:19:40Z</time>
      </trkpt>
      <trkpt lat="46.66933" lon="5.8228">
        <ele>613.94</ele>
        <time>2022-07-27T09:19:52Z</time>
      </trkpt>
      <trkpt lat="46.66915" lon="5.82266">
        <ele>613.46</ele>
        <time>2022-07-27T09:20:02Z</time>
      </trkpt>
      <trkpt lat="46.66877" lon="5.82252">
        <ele>612.02</ele>
        <time>2022-07-27T09:20:15Z</time>
      </trkpt>
      <trkpt lat="46.66835" lon="5.82264">
        <ele>610.09</ele>
        <time>2022-07-27T09:20:29Z</time>
      </trkpt>
      <trkpt lat="46.66831" lon="5.82265">
        <ele>610.09</ele>
        <time>2022-07-27T09:20:31Z</time>
      </trkpt>
      <trkpt lat="46.6683" lon="5.82266">
        <ele>610.09</ele>
        <time>2022-07-27T09:20:32Z</time>
      </trkpt>
      <trkpt lat="46.66803" lon="5.823">
        <ele>609.13</ele>
        <time>2022-07-27T09:20:43Z</time>
      </trkpt>
      <trkpt lat="46.66801" lon="5.823">
        <ele>609.61</ele>
        <time>2022-07-27T09:20:44Z</time>
      </trkpt>
      <trkpt lat="46.668" lon="5.82299">
        <ele>609.61</ele>
        <time>2022-07-27T09:20:45Z</time>
      </trkpt>
      <trkpt lat="46.66798" lon="5.82297">
        <ele>609.61</ele>
        <time>2022-07-27T09:20:46Z</time>
      </trkpt>
      <trkpt lat="46.66797" lon="5.82295">
        <ele>609.61</ele>
        <time>2022-07-27T09:20:47Z</time>
      </trkpt>
      <trkpt lat="46.66795" lon="5.82293">
        <ele>609.13</ele>
        <time>2022-07-27T09:20:48Z</time>
      </trkpt>
      <trkpt lat="46.66793" lon="5.82291">
        <ele>609.13</ele>
        <time>2022-07-27T09:20:49Z</time>
      </trkpt>
      <trkpt lat="46.6679" lon="5.82288">
        <ele>609.13</ele>
        <time>2022-07-27T09:20:50Z</time>
      </trkpt>
      <trkpt lat="46.66787" lon="5.82286">
        <ele>609.13</ele>
        <time>2022-07-27T09:20:51Z</time>
      </trkpt>
      <trkpt lat="46.66784" lon="5.82282">
        <ele>608.65</ele>
        <time>2022-07-27T09:20:52Z</time>
      </trkpt>
      <trkpt lat="46.66781" lon="5.82278">
        <ele>608.65</ele>
        <time>2022-07-27T09:20:53Z</time>
      </trkpt>
      <trkpt lat="46.66779" lon="5.82274">
        <ele>609.13</ele>
        <time>2022-07-27T09:20:54Z</time>
      </trkpt>
      <trkpt lat="46.66778" lon="5.8227">
        <ele>608.65</ele>
        <time>2022-07-27T09:20:55Z</time>
      </trkpt>
      <trkpt lat="46.66776" lon="5.82265">
        <ele>608.65</ele>
        <time>2022-07-27T09:20:56Z</time>
      </trkpt>
      <trkpt lat="46.66776" lon="5.8226">
        <ele>609.13</ele>
        <time>2022-07-27T09:20:57Z</time>
      </trkpt>
      <trkpt lat="46.66776" lon="5.82256">
        <ele>608.65</ele>
        <time>2022-07-27T09:20:58Z</time>
      </trkpt>
      <trkpt lat="46.66776" lon="5.82251">
        <ele>608.65</ele>
        <time>2022-07-27T09:20:59Z</time>
      </trkpt>
      <trkpt lat="46.66776" lon="5.82246">
        <ele>608.65</ele>
        <time>2022-07-27T09:21:00Z</time>
      </trkpt>
      <trkpt lat="46.66775" lon="5.82241">
        <ele>609.13</ele>
        <time>2022-07-27T09:21:01Z</time>
      </trkpt>
      <trkpt lat="46.66767" lon="5.8221">
        <ele>607.21</ele>
        <time>2022-07-27T09:21:09Z</time>
      </trkpt>
      <trkpt lat="46.66763" lon="5.82188">
        <ele>605.29</ele>
        <time>2022-07-27T09:21:13Z</time>
      </trkpt>
      <trkpt lat="46.66764" lon="5.82182">
        <ele>605.29</ele>
        <time>2022-07-27T09:21:14Z</time>
      </trkpt>
      <trkpt lat="46.66766" lon="5.82175">
        <ele>603.85</ele>
        <time>2022-07-27T09:21:15Z</time>
      </trkpt>
      <trkpt lat="46.66769" lon="5.82167">
        <ele>603.36</ele>
        <time>2022-07-27T09:21:16Z</time>
      </trkpt>
      <trkpt lat="46.66772" lon="5.82158">
        <ele>602.88</ele>
        <time>2022-07-27T09:21:17Z</time>
      </trkpt>
      <trkpt lat="46.66808" lon="5.82052">
        <ele>600.48</ele>
        <time>2022-07-27T09:21:28Z</time>
      </trkpt>
      <trkpt lat="46.66809" lon="5.82041">
        <ele>600.48</ele>
        <time>2022-07-27T09:21:29Z</time>
      </trkpt>
      <trkpt lat="46.66809" lon="5.82032">
        <ele>600.48</ele>
        <time>2022-07-27T09:21:30Z</time>
      </trkpt>
      <trkpt lat="46.66807" lon="5.82024">
        <ele>600.96</ele>
        <time>2022-07-27T09:21:31Z</time>
      </trkpt>
      <trkpt lat="46.66805" lon="5.82018">
        <ele>600.96</ele>
        <time>2022-07-27T09:21:32Z</time>
      </trkpt>
      <trkpt lat="46.66804" lon="5.82013">
        <ele>602.4</ele>
        <time>2022-07-27T09:21:33Z</time>
      </trkpt>
      <trkpt lat="46.66802" lon="5.8201">
        <ele>602.4</ele>
        <time>2022-07-27T09:21:34Z</time>
      </trkpt>
      <trkpt lat="46.66801" lon="5.82008">
        <ele>602.88</ele>
        <time>2022-07-27T09:21:35Z</time>
      </trkpt>
      <trkpt lat="46.66791" lon="5.81991">
        <ele>605.77</ele>
        <time>2022-07-27T09:21:46Z</time>
      </trkpt>
      <trkpt lat="46.6679" lon="5.81989">
        <ele>605.77</ele>
        <time>2022-07-27T09:21:47Z</time>
      </trkpt>
      <trkpt lat="46.6679" lon="5.81987">
        <ele>605.77</ele>
        <time>2022-07-27T09:21:48Z</time>
      </trkpt>
      <trkpt lat="46.66789" lon="5.81985">
        <ele>605.77</ele>
        <time>2022-07-27T09:21:49Z</time>
      </trkpt>
      <trkpt lat="46.66788" lon="5.81982">
        <ele>605.77</ele>
        <time>2022-07-27T09:21:50Z</time>
      </trkpt>
      <trkpt lat="46.66788" lon="5.8198">
        <ele>606.25</ele>
        <time>2022-07-27T09:21:51Z</time>
      </trkpt>
      <trkpt lat="46.66787" lon="5.81978">
        <ele>606.73</ele>
        <time>2022-07-27T09:21:52Z</time>
      </trkpt>
      <trkpt lat="46.66781" lon="5.81944">
        <ele>607.69</ele>
        <time>2022-07-27T09:22:09Z</time>
      </trkpt>
      <trkpt lat="46.6678" lon="5.81943">
        <ele>607.69</ele>
        <time>2022-07-27T09:22:31Z</time>
      </trkpt>
      <trkpt lat="46.6678" lon="5.81942">
        <ele>607.69</ele>
        <time>2022-07-27T09:22:32Z</time>
      </trkpt>
      <trkpt lat="46.66781" lon="5.8194">
        <ele>608.17</ele>
        <time>2022-07-27T09:22:33Z</time>
      </trkpt>
      <trkpt lat="46.66781" lon="5.81937">
        <ele>608.17</ele>
        <time>2022-07-27T09:22:34Z</time>
      </trkpt>
      <trkpt lat="46.66788" lon="5.81886">
        <ele>608.65</ele>
        <time>2022-07-27T09:22:50Z</time>
      </trkpt>
      <trkpt lat="46.66794" lon="5.81855">
        <ele>611.54</ele>
        <time>2022-07-27T09:23:01Z</time>
      </trkpt>
      <trkpt lat="46.66805" lon="5.81824">
        <ele>614.9</ele>
        <time>2022-07-27T09:23:14Z</time>
      </trkpt>
      <trkpt lat="46.66812" lon="5.81768">
        <ele>617.3</ele>
        <time>2022-07-27T09:23:34Z</time>
      </trkpt>
      <trkpt lat="46.66814" lon="5.81723">
        <ele>620.67</ele>
        <time>2022-07-27T09:23:49Z</time>
      </trkpt>
      <trkpt lat="46.66813" lon="5.81711">
        <ele>621.15</ele>
        <time>2022-07-27T09:23:54Z</time>
      </trkpt>
      <trkpt lat="46.66814" lon="5.81709">
        <ele>620.67</ele>
        <time>2022-07-27T09:23:55Z</time>
      </trkpt>
      <trkpt lat="46.66815" lon="5.81707">
        <ele>620.67</ele>
        <time>2022-07-27T09:23:56Z</time>
      </trkpt>
      <trkpt lat="46.66817" lon="5.81707">
        <ele>620.19</ele>
        <time>2022-07-27T09:23:57Z</time>
      </trkpt>
      <trkpt lat="46.66818" lon="5.81706">
        <ele>620.19</ele>
        <time>2022-07-27T09:23:58Z</time>
      </trkpt>
      <trkpt lat="46.6682" lon="5.81705">
        <ele>620.19</ele>
        <time>2022-07-27T09:23:59Z</time>
      </trkpt>
      <trkpt lat="46.66841" lon="5.81671">
        <ele>620.67</ele>
        <time>2022-07-27T09:24:10Z</time>
      </trkpt>
      <trkpt lat="46.66887" lon="5.816">
        <ele>620.19</ele>
        <time>2022-07-27T09:24:27Z</time>
      </trkpt>
      <trkpt lat="46.6689" lon="5.81595">
        <ele>620.67</ele>
        <time>2022-07-27T09:24:28Z</time>
      </trkpt>
      <trkpt lat="46.66938" lon="5.81508">
        <ele>620.19</ele>
        <time>2022-07-27T09:24:47Z</time>
      </trkpt>
      <trkpt lat="46.66979" lon="5.81443">
        <ele>618.75</ele>
        <time>2022-07-27T09:25:04Z</time>
      </trkpt>
      <trkpt lat="46.6698" lon="5.81433">
        <ele>618.26</ele>
        <time>2022-07-27T09:25:06Z</time>
      </trkpt>
      <trkpt lat="46.66978" lon="5.8142">
        <ele>617.78</ele>
        <time>2022-07-27T09:25:08Z</time>
      </trkpt>
      <trkpt lat="46.66977" lon="5.81413">
        <ele>617.78</ele>
        <time>2022-07-27T09:25:09Z</time>
      </trkpt>
      <trkpt lat="46.66975" lon="5.81381">
        <ele>618.75</ele>
        <time>2022-07-27T09:25:19Z</time>
      </trkpt>
      <trkpt lat="46.66977" lon="5.81373">
        <ele>618.26</ele>
        <time>2022-07-27T09:25:31Z</time>
      </trkpt>
      <trkpt lat="46.66977" lon="5.81374">
        <ele>619.23</ele>
        <time>2022-07-27T09:26:12Z</time>
      </trkpt>
      <trkpt lat="46.66977" lon="5.81373">
        <ele>618.75</ele>
        <time>2022-07-27T09:26:56Z</time>
      </trkpt>
      <trkpt lat="46.66975" lon="5.81373">
        <ele>619.23</ele>
        <time>2022-07-27T09:27:23Z</time>
      </trkpt>
      <trkpt lat="46.66972" lon="5.81382">
        <ele>618.75</ele>
        <time>2022-07-27T09:28:04Z</time>
      </trkpt>
      <trkpt lat="46.66974" lon="5.81375">
        <ele>618.75</ele>
        <time>2022-07-27T09:28:54Z</time>
      </trkpt>
      <trkpt lat="46.66972" lon="5.81372">
        <ele>619.23</ele>
        <time>2022-07-27T09:29:40Z</time>
      </trkpt>
      <trkpt lat="46.66977" lon="5.81377">
        <ele>619.23</ele>
        <time>2022-07-27T09:29:57Z</time>
      </trkpt>
      <trkpt lat="46.66977" lon="5.81378">
        <ele>619.23</ele>
        <time>2022-07-27T09:29:58Z</time>
      </trkpt>
      <trkpt lat="46.66977" lon="5.8138">
        <ele>618.75</ele>
        <time>2022-07-27T09:29:59Z</time>
      </trkpt>
      <trkpt lat="46.66977" lon="5.81423">
        <ele>618.26</ele>
        <time>2022-07-27T09:30:10Z</time>
      </trkpt>
      <trkpt lat="46.66978" lon="5.8143">
        <ele>617.78</ele>
        <time>2022-07-27T09:30:11Z</time>
      </trkpt>
      <trkpt lat="46.6698" lon="5.81436">
        <ele>618.75</ele>
        <time>2022-07-27T09:30:12Z</time>
      </trkpt>
      <trkpt lat="46.66981" lon="5.81441">
        <ele>618.75</ele>
        <time>2022-07-27T09:30:13Z</time>
      </trkpt>
      <trkpt lat="46.66982" lon="5.81444">
        <ele>619.71</ele>
        <time>2022-07-27T09:30:14Z</time>
      </trkpt>
      <trkpt lat="46.66981" lon="5.81447">
        <ele>619.71</ele>
        <time>2022-07-27T09:30:15Z</time>
      </trkpt>
      <trkpt lat="46.6698" lon="5.81449">
        <ele>619.71</ele>
        <time>2022-07-27T09:30:16Z</time>
      </trkpt>
      <trkpt lat="46.66978" lon="5.8145">
        <ele>620.19</ele>
        <time>2022-07-27T09:30:17Z</time>
      </trkpt>
      <trkpt lat="46.66976" lon="5.81452">
        <ele>619.71</ele>
        <time>2022-07-27T09:30:18Z</time>
      </trkpt>
      <trkpt lat="46.66974" lon="5.81454">
        <ele>619.71</ele>
        <time>2022-07-27T09:30:19Z</time>
      </trkpt>
      <trkpt lat="46.66973" lon="5.81456">
        <ele>619.71</ele>
        <time>2022-07-27T09:30:20Z</time>
      </trkpt>
      <trkpt lat="46.66971" lon="5.81459">
        <ele>619.71</ele>
        <time>2022-07-27T09:30:21Z</time>
      </trkpt>
      <trkpt lat="46.6697" lon="5.81461">
        <ele>619.71</ele>
        <time>2022-07-27T09:30:22Z</time>
      </trkpt>
      <trkpt lat="46.66951" lon="5.81494">
        <ele>620.19</ele>
        <time>2022-07-27T09:30:36Z</time>
      </trkpt>
      <trkpt lat="46.66928" lon="5.81524">
        <ele>620.19</ele>
        <time>2022-07-27T09:30:49Z</time>
      </trkpt>
      <trkpt lat="46.66905" lon="5.81561">
        <ele>619.71</ele>
        <time>2022-07-27T09:31:01Z</time>
      </trkpt>
      <trkpt lat="46.66876" lon="5.81613">
        <ele>620.19</ele>
        <time>2022-07-27T09:31:15Z</time>
      </trkpt>
      <trkpt lat="46.66837" lon="5.81675">
        <ele>620.19</ele>
        <time>2022-07-27T09:31:32Z</time>
      </trkpt>
      <trkpt lat="46.66811" lon="5.81727">
        <ele>619.23</ele>
        <time>2022-07-27T09:31:46Z</time>
      </trkpt>
      <trkpt lat="46.66809" lon="5.81734">
        <ele>618.75</ele>
        <time>2022-07-27T09:31:47Z</time>
      </trkpt>
      <trkpt lat="46.66808" lon="5.81742">
        <ele>618.26</ele>
        <time>2022-07-27T09:31:48Z</time>
      </trkpt>
      <trkpt lat="46.66808" lon="5.81751">
        <ele>618.26</ele>
        <time>2022-07-27T09:31:49Z</time>
      </trkpt>
      <trkpt lat="46.66807" lon="5.81759">
        <ele>617.78</ele>
        <time>2022-07-27T09:31:50Z</time>
      </trkpt>
      <trkpt lat="46.66807" lon="5.81787">
        <ele>615.86</ele>
        <time>2022-07-27T09:31:54Z</time>
      </trkpt>
      <trkpt lat="46.66806" lon="5.81814">
        <ele>613.94</ele>
        <time>2022-07-27T09:32:04Z</time>
      </trkpt>
      <trkpt lat="46.66805" lon="5.81813">
        <ele>613.94</ele>
        <time>2022-07-27T09:32:06Z</time>
      </trkpt>
      <trkpt lat="46.66806" lon="5.81814">
        <ele>611.06</ele>
        <time>2022-07-27T09:44:16Z</time>
      </trkpt>
      <trkpt lat="46.66803" lon="5.81822">
        <ele>612.02</ele>
        <time>2022-07-27T09:44:20Z</time>
      </trkpt>
      <trkpt lat="46.668" lon="5.81832">
        <ele>609.13</ele>
        <time>2022-07-27T09:44:34Z</time>
      </trkpt>
      <trkpt lat="46.66795" lon="5.81862">
        <ele>606.25</ele>
        <time>2022-07-27T09:44:38Z</time>
      </trkpt>
      <trkpt lat="46.66789" lon="5.81891">
        <ele>604.81</ele>
        <time>2022-07-27T09:44:40Z</time>
      </trkpt>
      <trkpt lat="46.66783" lon="5.81957">
        <ele>603.36</ele>
        <time>2022-07-27T09:44:45Z</time>
      </trkpt>
      <trkpt lat="46.66785" lon="5.81969">
        <ele>602.4</ele>
        <time>2022-07-27T09:44:46Z</time>
      </trkpt>
      <trkpt lat="46.66788" lon="5.81982">
        <ele>601.92</ele>
        <time>2022-07-27T09:44:47Z</time>
      </trkpt>
      <trkpt lat="46.66799" lon="5.8202">
        <ele>598.56</ele>
        <time>2022-07-27T09:44:50Z</time>
      </trkpt>
      <trkpt lat="46.66809" lon="5.82062">
        <ele>595.67</ele>
        <time>2022-07-27T09:44:53Z</time>
      </trkpt>
      <trkpt lat="46.6681" lon="5.82075">
        <ele>596.15</ele>
        <time>2022-07-27T09:44:54Z</time>
      </trkpt>
      <trkpt lat="46.6681" lon="5.82086">
        <ele>596.15</ele>
        <time>2022-07-27T09:44:55Z</time>
      </trkpt>
      <trkpt lat="46.66808" lon="5.82097">
        <ele>596.15</ele>
        <time>2022-07-27T09:44:56Z</time>
      </trkpt>
      <trkpt lat="46.66803" lon="5.82108">
        <ele>597.12</ele>
        <time>2022-07-27T09:44:57Z</time>
      </trkpt>
      <trkpt lat="46.66798" lon="5.82119">
        <ele>596.64</ele>
        <time>2022-07-27T09:44:58Z</time>
      </trkpt>
      <trkpt lat="46.66794" lon="5.82129">
        <ele>597.6</ele>
        <time>2022-07-27T09:44:59Z</time>
      </trkpt>
      <trkpt lat="46.66773" lon="5.82179">
        <ele>600.48</ele>
        <time>2022-07-27T09:45:08Z</time>
      </trkpt>
      <trkpt lat="46.66777" lon="5.82215">
        <ele>603.85</ele>
        <time>2022-07-27T09:45:20Z</time>
      </trkpt>
      <trkpt lat="46.66777" lon="5.82263">
        <ele>603.85</ele>
        <time>2022-07-27T09:45:32Z</time>
      </trkpt>
      <trkpt lat="46.66788" lon="5.82295">
        <ele>604.33</ele>
        <time>2022-07-27T09:45:40Z</time>
      </trkpt>
      <trkpt lat="46.66787" lon="5.82299">
        <ele>605.29</ele>
        <time>2022-07-27T09:45:41Z</time>
      </trkpt>
      <trkpt lat="46.66785" lon="5.82304">
        <ele>604.81</ele>
        <time>2022-07-27T09:45:42Z</time>
      </trkpt>
      <trkpt lat="46.66782" lon="5.82308">
        <ele>604.81</ele>
        <time>2022-07-27T09:45:43Z</time>
      </trkpt>
      <trkpt lat="46.66779" lon="5.82312">
        <ele>605.29</ele>
        <time>2022-07-27T09:45:44Z</time>
      </trkpt>
      <trkpt lat="46.66777" lon="5.82316">
        <ele>605.29</ele>
        <time>2022-07-27T09:45:45Z</time>
      </trkpt>
      <trkpt lat="46.66739" lon="5.82362">
        <ele>603.36</ele>
        <time>2022-07-27T09:45:57Z</time>
      </trkpt>
      <trkpt lat="46.66679" lon="5.82421">
        <ele>603.36</ele>
        <time>2022-07-27T09:46:12Z</time>
      </trkpt>
      <trkpt lat="46.66621" lon="5.82483">
        <ele>604.81</ele>
        <time>2022-07-27T09:46:30Z</time>
      </trkpt>
      <trkpt lat="46.6658" lon="5.82504">
        <ele>606.73</ele>
        <time>2022-07-27T09:46:43Z</time>
      </trkpt>
      <trkpt lat="46.66567" lon="5.82511">
        <ele>607.21</ele>
        <time>2022-07-27T09:46:46Z</time>
      </trkpt>
      <trkpt lat="46.66563" lon="5.82514">
        <ele>606.73</ele>
        <time>2022-07-27T09:46:47Z</time>
      </trkpt>
      <trkpt lat="46.66495" lon="5.82566">
        <ele>603.85</ele>
        <time>2022-07-27T09:47:00Z</time>
      </trkpt>
      <trkpt lat="46.66471" lon="5.82577">
        <ele>602.88</ele>
        <time>2022-07-27T09:47:04Z</time>
      </trkpt>
      <trkpt lat="46.66399" lon="5.82589">
        <ele>600</ele>
        <time>2022-07-27T09:47:15Z</time>
      </trkpt>
      <trkpt lat="46.66392" lon="5.82593">
        <ele>600</ele>
        <time>2022-07-27T09:47:16Z</time>
      </trkpt>
      <trkpt lat="46.66385" lon="5.82598">
        <ele>599.52</ele>
        <time>2022-07-27T09:47:17Z</time>
      </trkpt>
      <trkpt lat="46.66379" lon="5.82605">
        <ele>598.56</ele>
        <time>2022-07-27T09:47:18Z</time>
      </trkpt>
      <trkpt lat="46.66373" lon="5.82613">
        <ele>598.56</ele>
        <time>2022-07-27T09:47:19Z</time>
      </trkpt>
      <trkpt lat="46.66368" lon="5.82623">
        <ele>598.08</ele>
        <time>2022-07-27T09:47:20Z</time>
      </trkpt>
      <trkpt lat="46.66364" lon="5.82633">
        <ele>598.08</ele>
        <time>2022-07-27T09:47:21Z</time>
      </trkpt>
      <trkpt lat="46.66354" lon="5.82665">
        <ele>597.12</ele>
        <time>2022-07-27T09:47:24Z</time>
      </trkpt>
      <trkpt lat="46.66352" lon="5.82676">
        <ele>597.6</ele>
        <time>2022-07-27T09:47:25Z</time>
      </trkpt>
      <trkpt lat="46.66351" lon="5.82686">
        <ele>597.12</ele>
        <time>2022-07-27T09:47:26Z</time>
      </trkpt>
      <trkpt lat="46.66343" lon="5.82751">
        <ele>600</ele>
        <time>2022-07-27T09:47:35Z</time>
      </trkpt>
      <trkpt lat="46.66318" lon="5.82852">
        <ele>601.44</ele>
        <time>2022-07-27T09:47:54Z</time>
      </trkpt>
      <trkpt lat="46.66296" lon="5.82934">
        <ele>602.88</ele>
        <time>2022-07-27T09:48:12Z</time>
      </trkpt>
      <trkpt lat="46.66295" lon="5.82953">
        <ele>602.88</ele>
        <time>2022-07-27T09:48:25Z</time>
      </trkpt>
      <trkpt lat="46.66288" lon="5.82983">
        <ele>603.36</ele>
        <time>2022-07-27T09:48:36Z</time>
      </trkpt>
      <trkpt lat="46.66261" lon="5.83071">
        <ele>605.29</ele>
        <time>2022-07-27T09:48:54Z</time>
      </trkpt>
      <trkpt lat="46.6624" lon="5.83123">
        <ele>607.69</ele>
        <time>2022-07-27T09:49:10Z</time>
      </trkpt>
      <trkpt lat="46.66206" lon="5.83171">
        <ele>609.61</ele>
        <time>2022-07-27T09:49:29Z</time>
      </trkpt>
      <trkpt lat="46.66166" lon="5.83203">
        <ele>610.57</ele>
        <time>2022-07-27T09:49:44Z</time>
      </trkpt>
      <trkpt lat="46.66121" lon="5.83239">
        <ele>611.54</ele>
        <time>2022-07-27T09:50:03Z</time>
      </trkpt>
      <trkpt lat="46.66087" lon="5.83281">
        <ele>613.46</ele>
        <time>2022-07-27T09:50:18Z</time>
      </trkpt>
      <trkpt lat="46.66059" lon="5.83312">
        <ele>615.38</ele>
        <time>2022-07-27T09:50:31Z</time>
      </trkpt>
      <trkpt lat="46.66032" lon="5.83357">
        <ele>616.82</ele>
        <time>2022-07-27T09:50:47Z</time>
      </trkpt>
      <trkpt lat="46.66014" lon="5.83406">
        <ele>618.75</ele>
        <time>2022-07-27T09:51:02Z</time>
      </trkpt>
      <trkpt lat="46.6601" lon="5.83457">
        <ele>620.19</ele>
        <time>2022-07-27T09:51:16Z</time>
      </trkpt>
      <trkpt lat="46.66018" lon="5.83504">
        <ele>623.07</ele>
        <time>2022-07-27T09:51:30Z</time>
      </trkpt>
      <trkpt lat="46.66038" lon="5.83548">
        <ele>624.99</ele>
        <time>2022-07-27T09:51:47Z</time>
      </trkpt>
      <trkpt lat="46.66047" lon="5.83584">
        <ele>626.92</ele>
        <time>2022-07-27T09:52:00Z</time>
      </trkpt>
      <trkpt lat="46.66048" lon="5.836">
        <ele>627.88</ele>
        <time>2022-07-27T09:52:06Z</time>
      </trkpt>
      <trkpt lat="46.66047" lon="5.83603">
        <ele>627.88</ele>
        <time>2022-07-27T09:52:07Z</time>
      </trkpt>
      <trkpt lat="46.6604" lon="5.83629">
        <ele>629.8</ele>
        <time>2022-07-27T09:52:16Z</time>
      </trkpt>
      <trkpt lat="46.66039" lon="5.83631">
        <ele>630.28</ele>
        <time>2022-07-27T09:52:17Z</time>
      </trkpt>
      <trkpt lat="46.66038" lon="5.83633">
        <ele>630.28</ele>
        <time>2022-07-27T09:52:18Z</time>
      </trkpt>
      <trkpt lat="46.66038" lon="5.83636">
        <ele>630.28</ele>
        <time>2022-07-27T09:52:19Z</time>
      </trkpt>
      <trkpt lat="46.66038" lon="5.83638">
        <ele>630.28</ele>
        <time>2022-07-27T09:52:20Z</time>
      </trkpt>
      <trkpt lat="46.66037" lon="5.83641">
        <ele>631.24</ele>
        <time>2022-07-27T09:52:21Z</time>
      </trkpt>
      <trkpt lat="46.66037" lon="5.83643">
        <ele>631.24</ele>
        <time>2022-07-27T09:52:22Z</time>
      </trkpt>
      <trkpt lat="46.66036" lon="5.83646">
        <ele>630.76</ele>
        <time>2022-07-27T09:52:23Z</time>
      </trkpt>
      <trkpt lat="46.66033" lon="5.83664">
        <ele>632.2</ele>
        <time>2022-07-27T09:52:29Z</time>
      </trkpt>
      <trkpt lat="46.66018" lon="5.83705">
        <ele>634.13</ele>
        <time>2022-07-27T09:52:47Z</time>
      </trkpt>
      <trkpt lat="46.66007" lon="5.83745">
        <ele>635.57</ele>
        <time>2022-07-27T09:53:03Z</time>
      </trkpt>
      <trkpt lat="46.65991" lon="5.83783">
        <ele>636.53</ele>
        <time>2022-07-27T09:53:18Z</time>
      </trkpt>
      <trkpt lat="46.65984" lon="5.83838">
        <ele>638.93</ele>
        <time>2022-07-27T09:53:34Z</time>
      </trkpt>
      <trkpt lat="46.65986" lon="5.83897">
        <ele>640.38</ele>
        <time>2022-07-27T09:53:52Z</time>
      </trkpt>
      <trkpt lat="46.6598" lon="5.83957">
        <ele>641.82</ele>
        <time>2022-07-27T09:54:09Z</time>
      </trkpt>
      <trkpt lat="46.65973" lon="5.84019">
        <ele>643.74</ele>
        <time>2022-07-27T09:54:26Z</time>
      </trkpt>
      <trkpt lat="46.65968" lon="5.84106">
        <ele>644.7</ele>
        <time>2022-07-27T09:54:46Z</time>
      </trkpt>
      <trkpt lat="46.65967" lon="5.84187">
        <ele>647.1</ele>
        <time>2022-07-27T09:55:05Z</time>
      </trkpt>
      <trkpt lat="46.65969" lon="5.84269">
        <ele>649.03</ele>
        <time>2022-07-27T09:55:23Z</time>
      </trkpt>
      <trkpt lat="46.65969" lon="5.84342">
        <ele>651.43</ele>
        <time>2022-07-27T09:55:40Z</time>
      </trkpt>
      <trkpt lat="46.65974" lon="5.84406">
        <ele>652.39</ele>
        <time>2022-07-27T09:55:57Z</time>
      </trkpt>
      <trkpt lat="46.65982" lon="5.8447">
        <ele>655.28</ele>
        <time>2022-07-27T09:56:15Z</time>
      </trkpt>
      <trkpt lat="46.65971" lon="5.84545">
        <ele>656.72</ele>
        <time>2022-07-27T09:56:33Z</time>
      </trkpt>
      <trkpt lat="46.65954" lon="5.84625">
        <ele>657.68</ele>
        <time>2022-07-27T09:56:53Z</time>
      </trkpt>
      <trkpt lat="46.6593" lon="5.84705">
        <ele>659.6</ele>
        <time>2022-07-27T09:57:11Z</time>
      </trkpt>
      <trkpt lat="46.65916" lon="5.84768">
        <ele>662.01</ele>
        <time>2022-07-27T09:57:28Z</time>
      </trkpt>
      <trkpt lat="46.65901" lon="5.84809">
        <ele>663.93</ele>
        <time>2022-07-27T09:57:44Z</time>
      </trkpt>
      <trkpt lat="46.65885" lon="5.84862">
        <ele>665.85</ele>
        <time>2022-07-27T09:58:06Z</time>
      </trkpt>
      <trkpt lat="46.65873" lon="5.84912">
        <ele>667.77</ele>
        <time>2022-07-27T09:58:23Z</time>
      </trkpt>
      <trkpt lat="46.65865" lon="5.84957">
        <ele>669.7</ele>
        <time>2022-07-27T09:58:38Z</time>
      </trkpt>
      <trkpt lat="46.65855" lon="5.8501">
        <ele>670.66</ele>
        <time>2022-07-27T09:58:54Z</time>
      </trkpt>
      <trkpt lat="46.65848" lon="5.85072">
        <ele>671.62</ele>
        <time>2022-07-27T09:59:10Z</time>
      </trkpt>
      <trkpt lat="46.65829" lon="5.85149">
        <ele>669.22</ele>
        <time>2022-07-27T09:59:23Z</time>
      </trkpt>
      <trkpt lat="46.65795" lon="5.85261">
        <ele>665.37</ele>
        <time>2022-07-27T09:59:35Z</time>
      </trkpt>
      <trkpt lat="46.65788" lon="5.85266">
        <ele>665.37</ele>
        <time>2022-07-27T09:59:36Z</time>
      </trkpt>
      <trkpt lat="46.65781" lon="5.85271">
        <ele>664.89</ele>
        <time>2022-07-27T09:59:37Z</time>
      </trkpt>
      <trkpt lat="46.65767" lon="5.85279">
        <ele>663.93</ele>
        <time>2022-07-27T09:59:39Z</time>
      </trkpt>
      <trkpt lat="46.65762" lon="5.85282">
        <ele>663.93</ele>
        <time>2022-07-27T09:59:40Z</time>
      </trkpt>
      <trkpt lat="46.65756" lon="5.85284">
        <ele>663.93</ele>
        <time>2022-07-27T09:59:41Z</time>
      </trkpt>
      <trkpt lat="46.65749" lon="5.85283">
        <ele>663.93</ele>
        <time>2022-07-27T09:59:42Z</time>
      </trkpt>
      <trkpt lat="46.65743" lon="5.85282">
        <ele>663.93</ele>
        <time>2022-07-27T09:59:43Z</time>
      </trkpt>
      <trkpt lat="46.65701" lon="5.8527">
        <ele>664.41</ele>
        <time>2022-07-27T09:59:50Z</time>
      </trkpt>
      <trkpt lat="46.65695" lon="5.85272">
        <ele>664.41</ele>
        <time>2022-07-27T09:59:51Z</time>
      </trkpt>
      <trkpt lat="46.65691" lon="5.85276">
        <ele>663.93</ele>
        <time>2022-07-27T09:59:52Z</time>
      </trkpt>
      <trkpt lat="46.65687" lon="5.85282">
        <ele>664.41</ele>
        <time>2022-07-27T09:59:53Z</time>
      </trkpt>
      <trkpt lat="46.65684" lon="5.85288">
        <ele>664.89</ele>
        <time>2022-07-27T09:59:54Z</time>
      </trkpt>
      <trkpt lat="46.65682" lon="5.85293">
        <ele>664.41</ele>
        <time>2022-07-27T09:59:55Z</time>
      </trkpt>
      <trkpt lat="46.6568" lon="5.85299">
        <ele>664.89</ele>
        <time>2022-07-27T09:59:56Z</time>
      </trkpt>
      <trkpt lat="46.65655" lon="5.85359">
        <ele>664.89</ele>
        <time>2022-07-27T10:00:10Z</time>
      </trkpt>
      <trkpt lat="46.65662" lon="5.85414">
        <ele>664.89</ele>
        <time>2022-07-27T10:00:20Z</time>
      </trkpt>
      <trkpt lat="46.65658" lon="5.85519">
        <ele>665.85</ele>
        <time>2022-07-27T10:00:38Z</time>
      </trkpt>
      <trkpt lat="46.65644" lon="5.8561">
        <ele>666.33</ele>
        <time>2022-07-27T10:00:55Z</time>
      </trkpt>
      <trkpt lat="46.65629" lon="5.85698">
        <ele>667.77</ele>
        <time>2022-07-27T10:01:12Z</time>
      </trkpt>
      <trkpt lat="46.65615" lon="5.8578">
        <ele>668.25</ele>
        <time>2022-07-27T10:01:31Z</time>
      </trkpt>
      <trkpt lat="46.65617" lon="5.85879">
        <ele>668.25</ele>
        <time>2022-07-27T10:01:49Z</time>
      </trkpt>
      <trkpt lat="46.65638" lon="5.85976">
        <ele>668.25</ele>
        <time>2022-07-27T10:02:04Z</time>
      </trkpt>
      <trkpt lat="46.65656" lon="5.86101">
        <ele>668.73</ele>
        <time>2022-07-27T10:02:25Z</time>
      </trkpt>
      <trkpt lat="46.65668" lon="5.86175">
        <ele>670.18</ele>
        <time>2022-07-27T10:02:41Z</time>
      </trkpt>
      <trkpt lat="46.65677" lon="5.86249">
        <ele>670.66</ele>
        <time>2022-07-27T10:02:58Z</time>
      </trkpt>
      <trkpt lat="46.65683" lon="5.8631">
        <ele>673.06</ele>
        <time>2022-07-27T10:03:15Z</time>
      </trkpt>
      <trkpt lat="46.65675" lon="5.86385">
        <ele>674.02</ele>
        <time>2022-07-27T10:03:32Z</time>
      </trkpt>
      <trkpt lat="46.65665" lon="5.86448">
        <ele>674.98</ele>
        <time>2022-07-27T10:03:47Z</time>
      </trkpt>
      <trkpt lat="46.65657" lon="5.86504">
        <ele>676.91</ele>
        <time>2022-07-27T10:04:03Z</time>
      </trkpt>
      <trkpt lat="46.65644" lon="5.86566">
        <ele>678.83</ele>
        <time>2022-07-27T10:04:20Z</time>
      </trkpt>
      <trkpt lat="46.65633" lon="5.86616">
        <ele>682.19</ele>
        <time>2022-07-27T10:04:35Z</time>
      </trkpt>
      <trkpt lat="46.65623" lon="5.86673">
        <ele>684.12</ele>
        <time>2022-07-27T10:04:50Z</time>
      </trkpt>
      <trkpt lat="46.65614" lon="5.86731">
        <ele>686.52</ele>
        <time>2022-07-27T10:05:06Z</time>
      </trkpt>
      <trkpt lat="46.65612" lon="5.86788">
        <ele>688.44</ele>
        <time>2022-07-27T10:05:21Z</time>
      </trkpt>
      <trkpt lat="46.65625" lon="5.86846">
        <ele>689.88</ele>
        <time>2022-07-27T10:05:38Z</time>
      </trkpt>
      <trkpt lat="46.65632" lon="5.86906">
        <ele>692.77</ele>
        <time>2022-07-27T10:05:54Z</time>
      </trkpt>
      <trkpt lat="46.65632" lon="5.86975">
        <ele>694.69</ele>
        <time>2022-07-27T10:06:13Z</time>
      </trkpt>
      <trkpt lat="46.65641" lon="5.87047">
        <ele>696.13</ele>
        <time>2022-07-27T10:06:32Z</time>
      </trkpt>
      <trkpt lat="46.65654" lon="5.87113">
        <ele>699.5</ele>
        <time>2022-07-27T10:06:50Z</time>
      </trkpt>
      <trkpt lat="46.65666" lon="5.87166">
        <ele>700.94</ele>
        <time>2022-07-27T10:07:09Z</time>
      </trkpt>
      <trkpt lat="46.65686" lon="5.87205">
        <ele>703.34</ele>
        <time>2022-07-27T10:07:26Z</time>
      </trkpt>
      <trkpt lat="46.65698" lon="5.8725">
        <ele>704.3</ele>
        <time>2022-07-27T10:07:41Z</time>
      </trkpt>
      <trkpt lat="46.65677" lon="5.87287">
        <ele>706.71</ele>
        <time>2022-07-27T10:07:55Z</time>
      </trkpt>
      <trkpt lat="46.65656" lon="5.87301">
        <ele>708.15</ele>
        <time>2022-07-27T10:08:08Z</time>
      </trkpt>
      <trkpt lat="46.65623" lon="5.87318">
        <ele>709.59</ele>
        <time>2022-07-27T10:08:21Z</time>
      </trkpt>
      <trkpt lat="46.65596" lon="5.87341">
        <ele>711.99</ele>
        <time>2022-07-27T10:08:37Z</time>
      </trkpt>
      <trkpt lat="46.65564" lon="5.87367">
        <ele>713.92</ele>
        <time>2022-07-27T10:08:53Z</time>
      </trkpt>
      <trkpt lat="46.65528" lon="5.87399">
        <ele>716.32</ele>
        <time>2022-07-27T10:09:10Z</time>
      </trkpt>
      <trkpt lat="46.65493" lon="5.87429">
        <ele>718.72</ele>
        <time>2022-07-27T10:09:26Z</time>
      </trkpt>
      <trkpt lat="46.6546" lon="5.87448">
        <ele>720.65</ele>
        <time>2022-07-27T10:09:41Z</time>
      </trkpt>
      <trkpt lat="46.65435" lon="5.87467">
        <ele>722.09</ele>
        <time>2022-07-27T10:09:54Z</time>
      </trkpt>
      <trkpt lat="46.65405" lon="5.87493">
        <ele>724.01</ele>
        <time>2022-07-27T10:10:08Z</time>
      </trkpt>
      <trkpt lat="46.65385" lon="5.87521">
        <ele>725.93</ele>
        <time>2022-07-27T10:10:21Z</time>
      </trkpt>
      <trkpt lat="46.6538" lon="5.87531">
        <ele>725.93</ele>
        <time>2022-07-27T10:10:26Z</time>
      </trkpt>
      <trkpt lat="46.65378" lon="5.87534">
        <ele>726.89</ele>
        <time>2022-07-27T10:10:27Z</time>
      </trkpt>
      <trkpt lat="46.65377" lon="5.87537">
        <ele>726.41</ele>
        <time>2022-07-27T10:10:28Z</time>
      </trkpt>
      <trkpt lat="46.65346" lon="5.87584">
        <ele>728.82</ele>
        <time>2022-07-27T10:10:44Z</time>
      </trkpt>
      <trkpt lat="46.65316" lon="5.87623">
        <ele>730.74</ele>
        <time>2022-07-27T10:10:58Z</time>
      </trkpt>
      <trkpt lat="46.65283" lon="5.87666">
        <ele>732.18</ele>
        <time>2022-07-27T10:11:14Z</time>
      </trkpt>
      <trkpt lat="46.65271" lon="5.87697">
        <ele>733.62</ele>
        <time>2022-07-27T10:11:27Z</time>
      </trkpt>
      <trkpt lat="46.65257" lon="5.87732">
        <ele>735.55</ele>
        <time>2022-07-27T10:11:41Z</time>
      </trkpt>
      <trkpt lat="46.65237" lon="5.87772">
        <ele>737.47</ele>
        <time>2022-07-27T10:11:55Z</time>
      </trkpt>
      <trkpt lat="46.65208" lon="5.87822">
        <ele>738.91</ele>
        <time>2022-07-27T10:12:11Z</time>
      </trkpt>
      <trkpt lat="46.65187" lon="5.87856">
        <ele>740.83</ele>
        <time>2022-07-27T10:12:25Z</time>
      </trkpt>
      <trkpt lat="46.65174" lon="5.87894">
        <ele>742.76</ele>
        <time>2022-07-27T10:12:39Z</time>
      </trkpt>
      <trkpt lat="46.65161" lon="5.8793">
        <ele>744.2</ele>
        <time>2022-07-27T10:12:53Z</time>
      </trkpt>
      <trkpt lat="46.65142" lon="5.8797">
        <ele>745.16</ele>
        <time>2022-07-27T10:13:11Z</time>
      </trkpt>
      <trkpt lat="46.65111" lon="5.88002">
        <ele>747.56</ele>
        <time>2022-07-27T10:13:27Z</time>
      </trkpt>
      <trkpt lat="46.65078" lon="5.88042">
        <ele>749</ele>
        <time>2022-07-27T10:13:43Z</time>
      </trkpt>
      <trkpt lat="46.65056" lon="5.88079">
        <ele>750.45</ele>
        <time>2022-07-27T10:13:58Z</time>
      </trkpt>
      <trkpt lat="46.65041" lon="5.88115">
        <ele>751.89</ele>
        <time>2022-07-27T10:14:13Z</time>
      </trkpt>
      <trkpt lat="46.65025" lon="5.8816">
        <ele>754.29</ele>
        <time>2022-07-27T10:14:29Z</time>
      </trkpt>
      <trkpt lat="46.6501" lon="5.88204">
        <ele>755.25</ele>
        <time>2022-07-27T10:14:41Z</time>
      </trkpt>
      <trkpt lat="46.64985" lon="5.8825">
        <ele>756.69</ele>
        <time>2022-07-27T10:14:54Z</time>
      </trkpt>
      <trkpt lat="46.6497" lon="5.88292">
        <ele>758.14</ele>
        <time>2022-07-27T10:15:08Z</time>
      </trkpt>
      <trkpt lat="46.64967" lon="5.88342">
        <ele>759.58</ele>
        <time>2022-07-27T10:15:20Z</time>
      </trkpt>
      <trkpt lat="46.64966" lon="5.88346">
        <ele>759.58</ele>
        <time>2022-07-27T10:15:21Z</time>
      </trkpt>
      <trkpt lat="46.64957" lon="5.88403">
        <ele>760.54</ele>
        <time>2022-07-27T10:15:35Z</time>
      </trkpt>
      <trkpt lat="46.6495" lon="5.8848">
        <ele>761.02</ele>
        <time>2022-07-27T10:15:52Z</time>
      </trkpt>
      <trkpt lat="46.64937" lon="5.88559">
        <ele>762.46</ele>
        <time>2022-07-27T10:16:08Z</time>
      </trkpt>
      <trkpt lat="46.64922" lon="5.88628">
        <ele>764.39</ele>
        <time>2022-07-27T10:16:27Z</time>
      </trkpt>
      <trkpt lat="46.6491" lon="5.88683">
        <ele>765.83</ele>
        <time>2022-07-27T10:16:44Z</time>
      </trkpt>
      <trkpt lat="46.649" lon="5.88741">
        <ele>767.75</ele>
        <time>2022-07-27T10:17:00Z</time>
      </trkpt>
      <trkpt lat="46.64892" lon="5.88794">
        <ele>769.67</ele>
        <time>2022-07-27T10:17:18Z</time>
      </trkpt>
      <trkpt lat="46.64889" lon="5.88839">
        <ele>771.11</ele>
        <time>2022-07-27T10:17:33Z</time>
      </trkpt>
      <trkpt lat="46.64884" lon="5.88905">
        <ele>772.56</ele>
        <time>2022-07-27T10:17:53Z</time>
      </trkpt>
      <trkpt lat="46.64878" lon="5.88958">
        <ele>774.96</ele>
        <time>2022-07-27T10:18:09Z</time>
      </trkpt>
      <trkpt lat="46.64873" lon="5.89033">
        <ele>777.36</ele>
        <time>2022-07-27T10:18:31Z</time>
      </trkpt>
      <trkpt lat="46.64863" lon="5.89084">
        <ele>779.29</ele>
        <time>2022-07-27T10:18:47Z</time>
      </trkpt>
      <trkpt lat="46.64854" lon="5.89141">
        <ele>781.21</ele>
        <time>2022-07-27T10:19:03Z</time>
      </trkpt>
      <trkpt lat="46.64842" lon="5.89201">
        <ele>783.61</ele>
        <time>2022-07-27T10:19:20Z</time>
      </trkpt>
      <trkpt lat="46.64834" lon="5.89256">
        <ele>784.57</ele>
        <time>2022-07-27T10:19:36Z</time>
      </trkpt>
      <trkpt lat="46.64822" lon="5.89314">
        <ele>786.98</ele>
        <time>2022-07-27T10:19:52Z</time>
      </trkpt>
      <trkpt lat="46.64794" lon="5.89373">
        <ele>788.42</ele>
        <time>2022-07-27T10:20:09Z</time>
      </trkpt>
      <trkpt lat="46.64777" lon="5.89426">
        <ele>790.34</ele>
        <time>2022-07-27T10:20:23Z</time>
      </trkpt>
      <trkpt lat="46.64779" lon="5.89487">
        <ele>790.82</ele>
        <time>2022-07-27T10:20:38Z</time>
      </trkpt>
      <trkpt lat="46.64772" lon="5.89546">
        <ele>793.22</ele>
        <time>2022-07-27T10:20:53Z</time>
      </trkpt>
      <trkpt lat="46.64789" lon="5.89603">
        <ele>794.67</ele>
        <time>2022-07-27T10:21:07Z</time>
      </trkpt>
      <trkpt lat="46.64788" lon="5.8965">
        <ele>796.59</ele>
        <time>2022-07-27T10:21:19Z</time>
      </trkpt>
      <trkpt lat="46.64774" lon="5.89719">
        <ele>798.99</ele>
        <time>2022-07-27T10:21:35Z</time>
      </trkpt>
      <trkpt lat="46.64767" lon="5.89769">
        <ele>799.95</ele>
        <time>2022-07-27T10:21:48Z</time>
      </trkpt>
      <trkpt lat="46.64768" lon="5.89773">
        <ele>800.44</ele>
        <time>2022-07-27T10:21:49Z</time>
      </trkpt>
      <trkpt lat="46.64769" lon="5.89777">
        <ele>800.44</ele>
        <time>2022-07-27T10:21:50Z</time>
      </trkpt>
      <trkpt lat="46.6478" lon="5.89842">
        <ele>802.84</ele>
        <time>2022-07-27T10:22:07Z</time>
      </trkpt>
      <trkpt lat="46.64788" lon="5.899">
        <ele>804.28</ele>
        <time>2022-07-27T10:22:24Z</time>
      </trkpt>
      <trkpt lat="46.64793" lon="5.89974">
        <ele>806.2</ele>
        <time>2022-07-27T10:22:42Z</time>
      </trkpt>
      <trkpt lat="46.6482" lon="5.90036">
        <ele>807.16</ele>
        <time>2022-07-27T10:22:58Z</time>
      </trkpt>
      <trkpt lat="46.64818" lon="5.90076">
        <ele>808.61</ele>
        <time>2022-07-27T10:23:09Z</time>
      </trkpt>
      <trkpt lat="46.64788" lon="5.90125">
        <ele>809.09</ele>
        <time>2022-07-27T10:23:23Z</time>
      </trkpt>
      <trkpt lat="46.64769" lon="5.90172">
        <ele>809.57</ele>
        <time>2022-07-27T10:23:35Z</time>
      </trkpt>
      <trkpt lat="46.64737" lon="5.90198">
        <ele>811.01</ele>
        <time>2022-07-27T10:23:47Z</time>
      </trkpt>
      <trkpt lat="46.64677" lon="5.90215">
        <ele>811.97</ele>
        <time>2022-07-27T10:24:03Z</time>
      </trkpt>
      <trkpt lat="46.64665" lon="5.90213">
        <ele>811.49</ele>
        <time>2022-07-27T10:24:06Z</time>
      </trkpt>
      <trkpt lat="46.64657" lon="5.9021">
        <ele>811.01</ele>
        <time>2022-07-27T10:24:08Z</time>
      </trkpt>
      <trkpt lat="46.64648" lon="5.90204">
        <ele>811.01</ele>
        <time>2022-07-27T10:24:10Z</time>
      </trkpt>
      <trkpt lat="46.64644" lon="5.902">
        <ele>811.01</ele>
        <time>2022-07-27T10:24:11Z</time>
      </trkpt>
      <trkpt lat="46.64591" lon="5.90165">
        <ele>809.57</ele>
        <time>2022-07-27T10:24:21Z</time>
      </trkpt>
      <trkpt lat="46.64586" lon="5.90164">
        <ele>809.57</ele>
        <time>2022-07-27T10:24:22Z</time>
      </trkpt>
      <trkpt lat="46.6458" lon="5.90164">
        <ele>809.57</ele>
        <time>2022-07-27T10:24:23Z</time>
      </trkpt>
      <trkpt lat="46.64503" lon="5.90145">
        <ele>808.13</ele>
        <time>2022-07-27T10:24:37Z</time>
      </trkpt>
      <trkpt lat="46.64475" lon="5.90126">
        <ele>807.16</ele>
        <time>2022-07-27T10:24:42Z</time>
      </trkpt>
      <trkpt lat="46.64468" lon="5.90123">
        <ele>807.16</ele>
        <time>2022-07-27T10:24:43Z</time>
      </trkpt>
      <trkpt lat="46.64462" lon="5.90121">
        <ele>807.16</ele>
        <time>2022-07-27T10:24:44Z</time>
      </trkpt>
      <trkpt lat="46.64456" lon="5.90119">
        <ele>807.64</ele>
        <time>2022-07-27T10:24:45Z</time>
      </trkpt>
      <trkpt lat="46.6445" lon="5.90119">
        <ele>807.16</ele>
        <time>2022-07-27T10:24:46Z</time>
      </trkpt>
      <trkpt lat="46.64444" lon="5.9012">
        <ele>806.68</ele>
        <time>2022-07-27T10:24:47Z</time>
      </trkpt>
      <trkpt lat="46.64438" lon="5.90122">
        <ele>806.68</ele>
        <time>2022-07-27T10:24:48Z</time>
      </trkpt>
      <trkpt lat="46.64432" lon="5.90125">
        <ele>806.68</ele>
        <time>2022-07-27T10:24:49Z</time>
      </trkpt>
      <trkpt lat="46.64419" lon="5.90133">
        <ele>806.2</ele>
        <time>2022-07-27T10:24:51Z</time>
      </trkpt>
      <trkpt lat="46.64366" lon="5.90182">
        <ele>803.8</ele>
        <time>2022-07-27T10:25:03Z</time>
      </trkpt>
      <trkpt lat="46.64363" lon="5.90184">
        <ele>804.28</ele>
        <time>2022-07-27T10:25:14Z</time>
      </trkpt>
      <trkpt lat="46.64367" lon="5.90182">
        <ele>804.76</ele>
        <time>2022-07-27T10:25:41Z</time>
      </trkpt>
      <trkpt lat="46.64366" lon="5.90177">
        <ele>804.28</ele>
        <time>2022-07-27T10:25:59Z</time>
      </trkpt>
      <trkpt lat="46.64365" lon="5.90176">
        <ele>804.76</ele>
        <time>2022-07-27T10:26:00Z</time>
      </trkpt>
      <trkpt lat="46.64363" lon="5.90175">
        <ele>803.8</ele>
        <time>2022-07-27T10:26:01Z</time>
      </trkpt>
      <trkpt lat="46.64362" lon="5.90173">
        <ele>804.28</ele>
        <time>2022-07-27T10:26:02Z</time>
      </trkpt>
      <trkpt lat="46.6436" lon="5.90172">
        <ele>803.8</ele>
        <time>2022-07-27T10:26:03Z</time>
      </trkpt>
      <trkpt lat="46.64327" lon="5.90139">
        <ele>802.36</ele>
        <time>2022-07-27T10:26:14Z</time>
      </trkpt>
      <trkpt lat="46.64323" lon="5.90135">
        <ele>802.36</ele>
        <time>2022-07-27T10:26:15Z</time>
      </trkpt>
      <trkpt lat="46.64307" lon="5.90125">
        <ele>801.4</ele>
        <time>2022-07-27T10:26:18Z</time>
      </trkpt>
      <trkpt lat="46.64301" lon="5.90122">
        <ele>801.4</ele>
        <time>2022-07-27T10:26:19Z</time>
      </trkpt>
      <trkpt lat="46.64269" lon="5.90112">
        <ele>800.92</ele>
        <time>2022-07-27T10:26:24Z</time>
      </trkpt>
      <trkpt lat="46.64263" lon="5.90108">
        <ele>799.95</ele>
        <time>2022-07-27T10:26:25Z</time>
      </trkpt>
      <trkpt lat="46.6422" lon="5.9007">
        <ele>799.47</ele>
        <time>2022-07-27T10:26:33Z</time>
      </trkpt>
      <trkpt lat="46.64215" lon="5.90064">
        <ele>799.95</ele>
        <time>2022-07-27T10:26:34Z</time>
      </trkpt>
      <trkpt lat="46.64176" lon="5.90009">
        <ele>798.03</ele>
        <time>2022-07-27T10:26:43Z</time>
      </trkpt>
      <trkpt lat="46.64118" lon="5.89961">
        <ele>797.07</ele>
        <time>2022-07-27T10:26:56Z</time>
      </trkpt>
      <trkpt lat="46.64112" lon="5.89957">
        <ele>797.07</ele>
        <time>2022-07-27T10:26:58Z</time>
      </trkpt>
      <trkpt lat="46.6411" lon="5.8996">
        <ele>797.07</ele>
        <time>2022-07-27T10:26:59Z</time>
      </trkpt>
      <trkpt lat="46.6411" lon="5.89963">
        <ele>797.07</ele>
        <time>2022-07-27T10:27:00Z</time>
      </trkpt>
      <trkpt lat="46.64111" lon="5.89966">
        <ele>796.59</ele>
        <time>2022-07-27T10:27:01Z</time>
      </trkpt>
      <trkpt lat="46.64113" lon="5.89969">
        <ele>796.59</ele>
        <time>2022-07-27T10:27:02Z</time>
      </trkpt>
      <trkpt lat="46.64115" lon="5.89971">
        <ele>796.59</ele>
        <time>2022-07-27T10:27:03Z</time>
      </trkpt>
      <trkpt lat="46.64117" lon="5.89974">
        <ele>796.11</ele>
        <time>2022-07-27T10:27:04Z</time>
      </trkpt>
      <trkpt lat="46.6412" lon="5.8998">
        <ele>796.59</ele>
        <time>2022-07-27T10:27:13Z</time>
      </trkpt>
      <trkpt lat="46.64121" lon="5.8998">
        <ele>796.11</ele>
        <time>2022-07-27T10:27:31Z</time>
      </trkpt>
      <trkpt lat="46.64122" lon="5.89982">
        <ele>796.11</ele>
        <time>2022-07-27T10:27:32Z</time>
      </trkpt>
      <trkpt lat="46.64124" lon="5.89983">
        <ele>796.11</ele>
        <time>2022-07-27T10:27:33Z</time>
      </trkpt>
      <trkpt lat="46.64125" lon="5.89984">
        <ele>795.63</ele>
        <time>2022-07-27T10:27:34Z</time>
      </trkpt>
      <trkpt lat="46.64127" lon="5.89986">
        <ele>795.63</ele>
        <time>2022-07-27T10:27:35Z</time>
      </trkpt>
      <trkpt lat="46.64128" lon="5.89988">
        <ele>795.63</ele>
        <time>2022-07-27T10:27:36Z</time>
      </trkpt>
      <trkpt lat="46.6413" lon="5.89991">
        <ele>795.15</ele>
        <time>2022-07-27T10:27:37Z</time>
      </trkpt>
      <trkpt lat="46.64133" lon="5.89993">
        <ele>795.15</ele>
        <time>2022-07-27T10:27:38Z</time>
      </trkpt>
      <trkpt lat="46.64154" lon="5.90031">
        <ele>793.71</ele>
        <time>2022-07-27T10:27:46Z</time>
      </trkpt>
      <trkpt lat="46.64159" lon="5.90046">
        <ele>792.74</ele>
        <time>2022-07-27T10:27:48Z</time>
      </trkpt>
      <trkpt lat="46.64161" lon="5.90054">
        <ele>792.26</ele>
        <time>2022-07-27T10:27:49Z</time>
      </trkpt>
      <trkpt lat="46.64168" lon="5.90087">
        <ele>790.82</ele>
        <time>2022-07-27T10:27:53Z</time>
      </trkpt>
      <trkpt lat="46.64173" lon="5.90131">
        <ele>789.38</ele>
        <time>2022-07-27T10:27:58Z</time>
      </trkpt>
      <trkpt lat="46.64182" lon="5.90178">
        <ele>786.5</ele>
        <time>2022-07-27T10:28:04Z</time>
      </trkpt>
      <trkpt lat="46.64184" lon="5.90184">
        <ele>786.02</ele>
        <time>2022-07-27T10:28:05Z</time>
      </trkpt>
      <trkpt lat="46.64204" lon="5.90245">
        <ele>782.65</ele>
        <time>2022-07-27T10:28:14Z</time>
      </trkpt>
      <trkpt lat="46.64206" lon="5.90252">
        <ele>782.65</ele>
        <time>2022-07-27T10:28:15Z</time>
      </trkpt>
      <trkpt lat="46.64223" lon="5.90319">
        <ele>779.29</ele>
        <time>2022-07-27T10:28:24Z</time>
      </trkpt>
      <trkpt lat="46.64224" lon="5.90335">
        <ele>777.84</ele>
        <time>2022-07-27T10:28:26Z</time>
      </trkpt>
      <trkpt lat="46.64224" lon="5.90357">
        <ele>776.4</ele>
        <time>2022-07-27T10:28:29Z</time>
      </trkpt>
      <trkpt lat="46.64225" lon="5.90365">
        <ele>775.92</ele>
        <time>2022-07-27T10:28:30Z</time>
      </trkpt>
      <trkpt lat="46.64229" lon="5.90381">
        <ele>774.96</ele>
        <time>2022-07-27T10:28:32Z</time>
      </trkpt>
      <trkpt lat="46.64236" lon="5.90417">
        <ele>773.04</ele>
        <time>2022-07-27T10:28:37Z</time>
      </trkpt>
      <trkpt lat="46.64238" lon="5.90423">
        <ele>771.6</ele>
        <time>2022-07-27T10:28:38Z</time>
      </trkpt>
      <trkpt lat="46.6424" lon="5.90427">
        <ele>771.6</ele>
        <time>2022-07-27T10:28:39Z</time>
      </trkpt>
      <trkpt lat="46.64246" lon="5.90438">
        <ele>770.15</ele>
        <time>2022-07-27T10:28:42Z</time>
      </trkpt>
      <trkpt lat="46.64248" lon="5.90442">
        <ele>769.19</ele>
        <time>2022-07-27T10:28:44Z</time>
      </trkpt>
      <trkpt lat="46.64248" lon="5.90444">
        <ele>769.67</ele>
        <time>2022-07-27T10:28:45Z</time>
      </trkpt>
      <trkpt lat="46.64247" lon="5.90447">
        <ele>769.19</ele>
        <time>2022-07-27T10:28:46Z</time>
      </trkpt>
      <trkpt lat="46.64245" lon="5.90452">
        <ele>769.19</ele>
        <time>2022-07-27T10:28:48Z</time>
      </trkpt>
      <trkpt lat="46.64244" lon="5.90455">
        <ele>769.19</ele>
        <time>2022-07-27T10:28:49Z</time>
      </trkpt>
      <trkpt lat="46.64243" lon="5.90457">
        <ele>769.19</ele>
        <time>2022-07-27T10:28:50Z</time>
      </trkpt>
      <trkpt lat="46.64242" lon="5.9046">
        <ele>768.71</ele>
        <time>2022-07-27T10:28:51Z</time>
      </trkpt>
      <trkpt lat="46.6424" lon="5.90463">
        <ele>768.71</ele>
        <time>2022-07-27T10:28:52Z</time>
      </trkpt>
      <trkpt lat="46.64238" lon="5.90465">
        <ele>768.71</ele>
        <time>2022-07-27T10:28:53Z</time>
      </trkpt>
      <trkpt lat="46.64236" lon="5.90467">
        <ele>768.71</ele>
        <time>2022-07-27T10:28:54Z</time>
      </trkpt>
      <trkpt lat="46.64234" lon="5.90468">
        <ele>768.23</ele>
        <time>2022-07-27T10:28:55Z</time>
      </trkpt>
      <trkpt lat="46.64233" lon="5.9047">
        <ele>768.71</ele>
        <time>2022-07-27T10:28:56Z</time>
      </trkpt>
      <trkpt lat="46.64221" lon="5.90495">
        <ele>767.27</ele>
        <time>2022-07-27T10:29:11Z</time>
      </trkpt>
      <trkpt lat="46.6422" lon="5.90495">
        <ele>767.75</ele>
        <time>2022-07-27T10:29:17Z</time>
      </trkpt>
      <trkpt lat="46.64219" lon="5.90495">
        <ele>766.79</ele>
        <time>2022-07-27T10:29:18Z</time>
      </trkpt>
      <trkpt lat="46.64215" lon="5.905">
        <ele>766.79</ele>
        <time>2022-07-27T10:29:33Z</time>
      </trkpt>
      <trkpt lat="46.64212" lon="5.90501">
        <ele>765.83</ele>
        <time>2022-07-27T10:29:43Z</time>
      </trkpt>
      <trkpt lat="46.64211" lon="5.90501">
        <ele>765.83</ele>
        <time>2022-07-27T10:29:44Z</time>
      </trkpt>
      <trkpt lat="46.6421" lon="5.90501">
        <ele>765.83</ele>
        <time>2022-07-27T10:29:45Z</time>
      </trkpt>
      <trkpt lat="46.64185" lon="5.9053">
        <ele>764.39</ele>
        <time>2022-07-27T10:29:59Z</time>
      </trkpt>
      <trkpt lat="46.64173" lon="5.90569">
        <ele>764.39</ele>
        <time>2022-07-27T10:30:11Z</time>
      </trkpt>
      <trkpt lat="46.64164" lon="5.90616">
        <ele>764.87</ele>
        <time>2022-07-27T10:30:25Z</time>
      </trkpt>
      <trkpt lat="46.64155" lon="5.90665">
        <ele>765.83</ele>
        <time>2022-07-27T10:30:39Z</time>
      </trkpt>
      <trkpt lat="46.64155" lon="5.9071">
        <ele>765.35</ele>
        <time>2022-07-27T10:30:51Z</time>
      </trkpt>
      <trkpt lat="46.64154" lon="5.90727">
        <ele>766.31</ele>
        <time>2022-07-27T10:30:56Z</time>
      </trkpt>
      <trkpt lat="46.64152" lon="5.9075">
        <ele>766.79</ele>
        <time>2022-07-27T10:31:10Z</time>
      </trkpt>
      <trkpt lat="46.64143" lon="5.90769">
        <ele>768.71</ele>
        <time>2022-07-27T10:31:23Z</time>
      </trkpt>
      <trkpt lat="46.64133" lon="5.90786">
        <ele>768.71</ele>
        <time>2022-07-27T10:31:35Z</time>
      </trkpt>
      <trkpt lat="46.64114" lon="5.90812">
        <ele>770.15</ele>
        <time>2022-07-27T10:31:48Z</time>
      </trkpt>
      <trkpt lat="46.64113" lon="5.90814">
        <ele>770.63</ele>
        <time>2022-07-27T10:31:49Z</time>
      </trkpt>
      <trkpt lat="46.64113" lon="5.90816">
        <ele>770.15</ele>
        <time>2022-07-27T10:31:50Z</time>
      </trkpt>
      <trkpt lat="46.64111" lon="5.90845">
        <ele>768.71</ele>
        <time>2022-07-27T10:32:02Z</time>
      </trkpt>
      <trkpt lat="46.64111" lon="5.90853">
        <ele>767.75</ele>
        <time>2022-07-27T10:32:05Z</time>
      </trkpt>
      <trkpt lat="46.64114" lon="5.90889">
        <ele>765.83</ele>
        <time>2022-07-27T10:32:17Z</time>
      </trkpt>
      <trkpt lat="46.64113" lon="5.90898">
        <ele>764.87</ele>
        <time>2022-07-27T10:32:21Z</time>
      </trkpt>
      <trkpt lat="46.6412" lon="5.90908">
        <ele>763.9</ele>
        <time>2022-07-27T10:32:34Z</time>
      </trkpt>
      <trkpt lat="46.6412" lon="5.90911">
        <ele>763.9</ele>
        <time>2022-07-27T10:32:44Z</time>
      </trkpt>
      <trkpt lat="46.64118" lon="5.90907">
        <ele>765.83</ele>
        <time>2022-07-27T11:01:47Z</time>
      </trkpt>
      <trkpt lat="46.64121" lon="5.90915">
        <ele>765.83</ele>
        <time>2022-07-27T11:01:57Z</time>
      </trkpt>
      <trkpt lat="46.6412" lon="5.90918">
        <ele>765.35</ele>
        <time>2022-07-27T11:02:23Z</time>
      </trkpt>
      <trkpt lat="46.6412" lon="5.90912">
        <ele>762.46</ele>
        <time>2022-07-27T11:02:36Z</time>
      </trkpt>
      <trkpt lat="46.64121" lon="5.90913">
        <ele>763.42</ele>
        <time>2022-07-27T11:02:37Z</time>
      </trkpt>
      <trkpt lat="46.64122" lon="5.90912">
        <ele>758.14</ele>
        <time>2022-07-27T11:02:45Z</time>
      </trkpt>
      <trkpt lat="46.64122" lon="5.90912">
        <ele>767.27</ele>
        <time>2022-07-27T11:02:46Z</time>
      </trkpt>
      <trkpt lat="46.64119" lon="5.9091">
        <ele>765.83</ele>
        <time>2022-07-27T11:03:07Z</time>
      </trkpt>
      <trkpt lat="46.64095" lon="5.90897">
        <ele>766.31</ele>
        <time>2022-07-27T11:03:21Z</time>
      </trkpt>
      <trkpt lat="46.64079" lon="5.90872">
        <ele>766.79</ele>
        <time>2022-07-27T11:03:32Z</time>
      </trkpt>
      <trkpt lat="46.64067" lon="5.90838">
        <ele>768.71</ele>
        <time>2022-07-27T11:03:50Z</time>
      </trkpt>
      <trkpt lat="46.64057" lon="5.90805">
        <ele>769.67</ele>
        <time>2022-07-27T11:04:08Z</time>
      </trkpt>
      <trkpt lat="46.64056" lon="5.90798">
        <ele>769.67</ele>
        <time>2022-07-27T11:04:12Z</time>
      </trkpt>
      <trkpt lat="46.64055" lon="5.90797">
        <ele>769.67</ele>
        <time>2022-07-27T11:04:13Z</time>
      </trkpt>
      <trkpt lat="46.64054" lon="5.90795">
        <ele>770.15</ele>
        <time>2022-07-27T11:04:14Z</time>
      </trkpt>
      <trkpt lat="46.64052" lon="5.90794">
        <ele>769.67</ele>
        <time>2022-07-27T11:04:15Z</time>
      </trkpt>
      <trkpt lat="46.64051" lon="5.90793">
        <ele>770.15</ele>
        <time>2022-07-27T11:04:16Z</time>
      </trkpt>
      <trkpt lat="46.6405" lon="5.90791">
        <ele>770.63</ele>
        <time>2022-07-27T11:04:17Z</time>
      </trkpt>
      <trkpt lat="46.64042" lon="5.90791">
        <ele>771.6</ele>
        <time>2022-07-27T11:04:33Z</time>
      </trkpt>
      <trkpt lat="46.6404" lon="5.90795">
        <ele>771.11</ele>
        <time>2022-07-27T11:04:59Z</time>
      </trkpt>
      <trkpt lat="46.64037" lon="5.90799">
        <ele>770.63</ele>
        <time>2022-07-27T11:05:37Z</time>
      </trkpt>
      <trkpt lat="46.64038" lon="5.90805">
        <ele>771.11</ele>
        <time>2022-07-27T11:06:09Z</time>
      </trkpt>
      <trkpt lat="46.64038" lon="5.90804">
        <ele>771.6</ele>
        <time>2022-07-27T11:06:40Z</time>
      </trkpt>
      <trkpt lat="46.6404" lon="5.9081">
        <ele>772.08</ele>
        <time>2022-07-27T11:07:11Z</time>
      </trkpt>
      <trkpt lat="46.64043" lon="5.90803">
        <ele>771.6</ele>
        <time>2022-07-27T11:07:30Z</time>
      </trkpt>
      <trkpt lat="46.64046" lon="5.90803">
        <ele>771.6</ele>
        <time>2022-07-27T11:07:34Z</time>
      </trkpt>
      <trkpt lat="46.64057" lon="5.90792">
        <ele>771.6</ele>
        <time>2022-07-27T11:07:43Z</time>
      </trkpt>
      <trkpt lat="46.64061" lon="5.90765">
        <ele>774</ele>
        <time>2022-07-27T11:07:58Z</time>
      </trkpt>
      <trkpt lat="46.64067" lon="5.9074">
        <ele>776.88</ele>
        <time>2022-07-27T11:08:12Z</time>
      </trkpt>
      <trkpt lat="46.64066" lon="5.90738">
        <ele>776.88</ele>
        <time>2022-07-27T11:08:13Z</time>
      </trkpt>
      <trkpt lat="46.64067" lon="5.90736">
        <ele>776.88</ele>
        <time>2022-07-27T11:08:14Z</time>
      </trkpt>
      <trkpt lat="46.64073" lon="5.90713">
        <ele>778.81</ele>
        <time>2022-07-27T11:08:29Z</time>
      </trkpt>
      <trkpt lat="46.6408" lon="5.90675">
        <ele>781.69</ele>
        <time>2022-07-27T11:08:46Z</time>
      </trkpt>
      <trkpt lat="46.64083" lon="5.90661">
        <ele>783.61</ele>
        <time>2022-07-27T11:08:53Z</time>
      </trkpt>
      <trkpt lat="46.64084" lon="5.90657">
        <ele>783.61</ele>
        <time>2022-07-27T11:08:55Z</time>
      </trkpt>
      <trkpt lat="46.64085" lon="5.90655">
        <ele>783.61</ele>
        <time>2022-07-27T11:08:56Z</time>
      </trkpt>
      <trkpt lat="46.64086" lon="5.90653">
        <ele>783.61</ele>
        <time>2022-07-27T11:08:57Z</time>
      </trkpt>
      <trkpt lat="46.64086" lon="5.90651">
        <ele>783.61</ele>
        <time>2022-07-27T11:08:58Z</time>
      </trkpt>
      <trkpt lat="46.64086" lon="5.90649">
        <ele>784.09</ele>
        <time>2022-07-27T11:08:59Z</time>
      </trkpt>
      <trkpt lat="46.64088" lon="5.90623">
        <ele>785.53</ele>
        <time>2022-07-27T11:09:15Z</time>
      </trkpt>
      <trkpt lat="46.6409" lon="5.90597">
        <ele>787.46</ele>
        <time>2022-07-27T11:09:32Z</time>
      </trkpt>
      <trkpt lat="46.64097" lon="5.90572">
        <ele>787.94</ele>
        <time>2022-07-27T11:09:46Z</time>
      </trkpt>
      <trkpt lat="46.64097" lon="5.90566">
        <ele>789.86</ele>
        <time>2022-07-27T11:09:49Z</time>
      </trkpt>
      <trkpt lat="46.64097" lon="5.90565">
        <ele>788.9</ele>
        <time>2022-07-27T11:09:50Z</time>
      </trkpt>
      <trkpt lat="46.64097" lon="5.90564">
        <ele>789.38</ele>
        <time>2022-07-27T11:09:51Z</time>
      </trkpt>
      <trkpt lat="46.64097" lon="5.90562">
        <ele>788.9</ele>
        <time>2022-07-27T11:09:52Z</time>
      </trkpt>
      <trkpt lat="46.64097" lon="5.9056">
        <ele>789.38</ele>
        <time>2022-07-27T11:09:53Z</time>
      </trkpt>
      <trkpt lat="46.64097" lon="5.90559">
        <ele>788.9</ele>
        <time>2022-07-27T11:09:54Z</time>
      </trkpt>
      <trkpt lat="46.64097" lon="5.90556">
        <ele>789.38</ele>
        <time>2022-07-27T11:09:55Z</time>
      </trkpt>
      <trkpt lat="46.64098" lon="5.90555">
        <ele>789.86</ele>
        <time>2022-07-27T11:09:56Z</time>
      </trkpt>
      <trkpt lat="46.64098" lon="5.90552">
        <ele>789.38</ele>
        <time>2022-07-27T11:09:57Z</time>
      </trkpt>
      <trkpt lat="46.64098" lon="5.9055">
        <ele>789.38</ele>
        <time>2022-07-27T11:09:58Z</time>
      </trkpt>
      <trkpt lat="46.64096" lon="5.90532">
        <ele>790.82</ele>
        <time>2022-07-27T11:10:12Z</time>
      </trkpt>
      <trkpt lat="46.641" lon="5.90534">
        <ele>790.82</ele>
        <time>2022-07-27T11:10:32Z</time>
      </trkpt>
      <trkpt lat="46.64101" lon="5.90524">
        <ele>790.34</ele>
        <time>2022-07-27T11:10:52Z</time>
      </trkpt>
      <trkpt lat="46.64102" lon="5.90493">
        <ele>792.74</ele>
        <time>2022-07-27T11:11:09Z</time>
      </trkpt>
      <trkpt lat="46.6411" lon="5.90458">
        <ele>796.11</ele>
        <time>2022-07-27T11:11:25Z</time>
      </trkpt>
      <trkpt lat="46.6411" lon="5.90456">
        <ele>795.63</ele>
        <time>2022-07-27T11:11:26Z</time>
      </trkpt>
      <trkpt lat="46.6411" lon="5.90454">
        <ele>796.11</ele>
        <time>2022-07-27T11:11:27Z</time>
      </trkpt>
      <trkpt lat="46.64111" lon="5.90452">
        <ele>796.59</ele>
        <time>2022-07-27T11:11:28Z</time>
      </trkpt>
      <trkpt lat="46.64113" lon="5.90439">
        <ele>797.07</ele>
        <time>2022-07-27T11:11:35Z</time>
      </trkpt>
      <trkpt lat="46.64116" lon="5.90407">
        <ele>799.95</ele>
        <time>2022-07-27T11:11:52Z</time>
      </trkpt>
      <trkpt lat="46.64112" lon="5.9038">
        <ele>799.95</ele>
        <time>2022-07-27T11:12:05Z</time>
      </trkpt>
      <trkpt lat="46.6411" lon="5.90368">
        <ele>800.44</ele>
        <time>2022-07-27T11:12:11Z</time>
      </trkpt>
      <trkpt lat="46.6411" lon="5.90366">
        <ele>800.44</ele>
        <time>2022-07-27T11:12:12Z</time>
      </trkpt>
      <trkpt lat="46.6411" lon="5.90362">
        <ele>800.44</ele>
        <time>2022-07-27T11:12:14Z</time>
      </trkpt>
      <trkpt lat="46.64099" lon="5.9031">
        <ele>799.47</ele>
        <time>2022-07-27T11:12:27Z</time>
      </trkpt>
      <trkpt lat="46.64089" lon="5.90268">
        <ele>800.44</ele>
        <time>2022-07-27T11:12:41Z</time>
      </trkpt>
      <trkpt lat="46.64077" lon="5.90233">
        <ele>803.32</ele>
        <time>2022-07-27T11:12:58Z</time>
      </trkpt>
      <trkpt lat="46.64067" lon="5.90203">
        <ele>806.2</ele>
        <time>2022-07-27T11:13:14Z</time>
      </trkpt>
      <trkpt lat="46.64049" lon="5.90166">
        <ele>807.64</ele>
        <time>2022-07-27T11:13:33Z</time>
      </trkpt>
      <trkpt lat="46.64039" lon="5.90143">
        <ele>808.61</ele>
        <time>2022-07-27T11:13:44Z</time>
      </trkpt>
      <trkpt lat="46.64038" lon="5.90141">
        <ele>808.61</ele>
        <time>2022-07-27T11:13:45Z</time>
      </trkpt>
      <trkpt lat="46.64037" lon="5.90139">
        <ele>809.09</ele>
        <time>2022-07-27T11:13:46Z</time>
      </trkpt>
      <trkpt lat="46.64036" lon="5.90136">
        <ele>808.61</ele>
        <time>2022-07-27T11:13:47Z</time>
      </trkpt>
      <trkpt lat="46.64035" lon="5.90134">
        <ele>809.09</ele>
        <time>2022-07-27T11:13:48Z</time>
      </trkpt>
      <trkpt lat="46.64006" lon="5.90099">
        <ele>809.57</ele>
        <time>2022-07-27T11:14:04Z</time>
      </trkpt>
      <trkpt lat="46.63995" lon="5.90088">
        <ele>811.01</ele>
        <time>2022-07-27T11:14:12Z</time>
      </trkpt>
      <trkpt lat="46.63994" lon="5.90087">
        <ele>811.01</ele>
        <time>2022-07-27T11:14:13Z</time>
      </trkpt>
      <trkpt lat="46.63993" lon="5.90085">
        <ele>811.01</ele>
        <time>2022-07-27T11:14:14Z</time>
      </trkpt>
      <trkpt lat="46.63992" lon="5.90084">
        <ele>811.01</ele>
        <time>2022-07-27T11:14:15Z</time>
      </trkpt>
      <trkpt lat="46.6399" lon="5.90081">
        <ele>811.49</ele>
        <time>2022-07-27T11:14:16Z</time>
      </trkpt>
      <trkpt lat="46.63989" lon="5.9008">
        <ele>811.49</ele>
        <time>2022-07-27T11:14:17Z</time>
      </trkpt>
      <trkpt lat="46.63988" lon="5.90077">
        <ele>811.97</ele>
        <time>2022-07-27T11:14:18Z</time>
      </trkpt>
      <trkpt lat="46.63986" lon="5.90075">
        <ele>811.97</ele>
        <time>2022-07-27T11:14:19Z</time>
      </trkpt>
      <trkpt lat="46.63985" lon="5.90073">
        <ele>811.97</ele>
        <time>2022-07-27T11:14:20Z</time>
      </trkpt>
      <trkpt lat="46.63984" lon="5.90071">
        <ele>812.45</ele>
        <time>2022-07-27T11:14:21Z</time>
      </trkpt>
      <trkpt lat="46.63961" lon="5.90052">
        <ele>814.85</ele>
        <time>2022-07-27T11:14:38Z</time>
      </trkpt>
      <trkpt lat="46.63926" lon="5.90028">
        <ele>814.37</ele>
        <time>2022-07-27T11:14:54Z</time>
      </trkpt>
      <trkpt lat="46.63879" lon="5.90021">
        <ele>811.49</ele>
        <time>2022-07-27T11:15:04Z</time>
      </trkpt>
      <trkpt lat="46.63873" lon="5.90018">
        <ele>811.49</ele>
        <time>2022-07-27T11:15:05Z</time>
      </trkpt>
      <trkpt lat="46.63794" lon="5.89971">
        <ele>808.13</ele>
        <time>2022-07-27T11:15:17Z</time>
      </trkpt>
      <trkpt lat="46.63787" lon="5.89967">
        <ele>808.13</ele>
        <time>2022-07-27T11:15:18Z</time>
      </trkpt>
      <trkpt lat="46.63779" lon="5.89965">
        <ele>807.64</ele>
        <time>2022-07-27T11:15:19Z</time>
      </trkpt>
      <trkpt lat="46.63763" lon="5.89962">
        <ele>806.2</ele>
        <time>2022-07-27T11:15:21Z</time>
      </trkpt>
      <trkpt lat="46.63736" lon="5.89955">
        <ele>805.72</ele>
        <time>2022-07-27T11:15:24Z</time>
      </trkpt>
      <trkpt lat="46.63728" lon="5.89951">
        <ele>805.72</ele>
        <time>2022-07-27T11:15:25Z</time>
      </trkpt>
      <trkpt lat="46.63703" lon="5.89934">
        <ele>804.28</ele>
        <time>2022-07-27T11:15:28Z</time>
      </trkpt>
      <trkpt lat="46.63651" lon="5.89872">
        <ele>806.2</ele>
        <time>2022-07-27T11:15:38Z</time>
      </trkpt>
      <trkpt lat="46.63613" lon="5.89828">
        <ele>807.64</ele>
        <time>2022-07-27T11:15:51Z</time>
      </trkpt>
      <trkpt lat="46.63576" lon="5.89801">
        <ele>807.16</ele>
        <time>2022-07-27T11:16:02Z</time>
      </trkpt>
      <trkpt lat="46.63568" lon="5.89798">
        <ele>806.2</ele>
        <time>2022-07-27T11:16:04Z</time>
      </trkpt>
      <trkpt lat="46.63563" lon="5.89798">
        <ele>806.68</ele>
        <time>2022-07-27T11:16:05Z</time>
      </trkpt>
      <trkpt lat="46.63496" lon="5.89784">
        <ele>803.32</ele>
        <time>2022-07-27T11:16:16Z</time>
      </trkpt>
      <trkpt lat="46.63479" lon="5.89784">
        <ele>802.36</ele>
        <time>2022-07-27T11:16:18Z</time>
      </trkpt>
      <trkpt lat="46.63432" lon="5.89788">
        <ele>799.47</ele>
        <time>2022-07-27T11:16:23Z</time>
      </trkpt>
      <trkpt lat="46.63404" lon="5.89792">
        <ele>798.51</ele>
        <time>2022-07-27T11:16:26Z</time>
      </trkpt>
      <trkpt lat="46.63395" lon="5.8979">
        <ele>798.51</ele>
        <time>2022-07-27T11:16:27Z</time>
      </trkpt>
      <trkpt lat="46.63386" lon="5.89787">
        <ele>797.55</ele>
        <time>2022-07-27T11:16:28Z</time>
      </trkpt>
      <trkpt lat="46.63378" lon="5.89783">
        <ele>798.03</ele>
        <time>2022-07-27T11:16:29Z</time>
      </trkpt>
      <trkpt lat="46.6337" lon="5.89777">
        <ele>798.03</ele>
        <time>2022-07-27T11:16:30Z</time>
      </trkpt>
      <trkpt lat="46.63363" lon="5.8977">
        <ele>797.55</ele>
        <time>2022-07-27T11:16:31Z</time>
      </trkpt>
      <trkpt lat="46.63286" lon="5.89713">
        <ele>797.07</ele>
        <time>2022-07-27T11:16:43Z</time>
      </trkpt>
      <trkpt lat="46.63275" lon="5.89707">
        <ele>797.07</ele>
        <time>2022-07-27T11:16:45Z</time>
      </trkpt>
      <trkpt lat="46.63249" lon="5.89692">
        <ele>797.07</ele>
        <time>2022-07-27T11:16:50Z</time>
      </trkpt>
      <trkpt lat="46.63236" lon="5.89682">
        <ele>797.07</ele>
        <time>2022-07-27T11:16:53Z</time>
      </trkpt>
      <trkpt lat="46.63233" lon="5.89679">
        <ele>797.07</ele>
        <time>2022-07-27T11:16:54Z</time>
      </trkpt>
      <trkpt lat="46.63231" lon="5.89677">
        <ele>797.55</ele>
        <time>2022-07-27T11:17:03Z</time>
      </trkpt>
      <trkpt lat="46.63231" lon="5.89678">
        <ele>797.07</ele>
        <time>2022-07-27T11:17:24Z</time>
      </trkpt>
      <trkpt lat="46.6323" lon="5.89677">
        <ele>797.07</ele>
        <time>2022-07-27T11:17:25Z</time>
      </trkpt>
      <trkpt lat="46.63199" lon="5.89648">
        <ele>797.55</ele>
        <time>2022-07-27T11:17:36Z</time>
      </trkpt>
      <trkpt lat="46.63129" lon="5.89582">
        <ele>796.59</ele>
        <time>2022-07-27T11:17:53Z</time>
      </trkpt>
      <trkpt lat="46.63113" lon="5.89567">
        <ele>797.55</ele>
        <time>2022-07-27T11:17:57Z</time>
      </trkpt>
      <trkpt lat="46.63052" lon="5.89508">
        <ele>799.47</ele>
        <time>2022-07-27T11:18:15Z</time>
      </trkpt>
      <trkpt lat="46.62988" lon="5.89439">
        <ele>797.55</ele>
        <time>2022-07-27T11:18:32Z</time>
      </trkpt>
      <trkpt lat="46.62909" lon="5.89362">
        <ele>796.59</ele>
        <time>2022-07-27T11:18:49Z</time>
      </trkpt>
      <trkpt lat="46.62864" lon="5.89323">
        <ele>799.95</ele>
        <time>2022-07-27T11:19:00Z</time>
      </trkpt>
      <trkpt lat="46.62833" lon="5.89295">
        <ele>798.99</ele>
        <time>2022-07-27T11:19:08Z</time>
      </trkpt>
      <trkpt lat="46.62784" lon="5.89252">
        <ele>798.51</ele>
        <time>2022-07-27T11:19:23Z</time>
      </trkpt>
      <trkpt lat="46.62763" lon="5.89232">
        <ele>798.99</ele>
        <time>2022-07-27T11:19:30Z</time>
      </trkpt>
      <trkpt lat="46.62696" lon="5.8918">
        <ele>798.03</ele>
        <time>2022-07-27T11:19:45Z</time>
      </trkpt>
      <trkpt lat="46.62625" lon="5.89136">
        <ele>797.07</ele>
        <time>2022-07-27T11:19:58Z</time>
      </trkpt>
      <trkpt lat="46.62572" lon="5.89102">
        <ele>793.71</ele>
        <time>2022-07-27T11:20:07Z</time>
      </trkpt>
      <trkpt lat="46.62453" lon="5.89037">
        <ele>793.22</ele>
        <time>2022-07-27T11:20:27Z</time>
      </trkpt>
      <trkpt lat="46.62371" lon="5.88999">
        <ele>792.26</ele>
        <time>2022-07-27T11:20:41Z</time>
      </trkpt>
      <trkpt lat="46.62262" lon="5.88953">
        <ele>791.3</ele>
        <time>2022-07-27T11:21:00Z</time>
      </trkpt>
      <trkpt lat="46.62183" lon="5.88906">
        <ele>790.34</ele>
        <time>2022-07-27T11:21:15Z</time>
      </trkpt>
      <trkpt lat="46.62102" lon="5.88874">
        <ele>790.34</ele>
        <time>2022-07-27T11:21:30Z</time>
      </trkpt>
      <trkpt lat="46.6209" lon="5.88871">
        <ele>791.78</ele>
        <time>2022-07-27T11:21:33Z</time>
      </trkpt>
      <trkpt lat="46.62089" lon="5.88873">
        <ele>790.34</ele>
        <time>2022-07-27T11:21:34Z</time>
      </trkpt>
      <trkpt lat="46.62091" lon="5.88873">
        <ele>789.38</ele>
        <time>2022-07-27T11:21:35Z</time>
      </trkpt>
      <trkpt lat="46.62119" lon="5.88884">
        <ele>790.82</ele>
        <time>2022-07-27T11:21:47Z</time>
      </trkpt>
      <trkpt lat="46.62123" lon="5.88891">
        <ele>789.38</ele>
        <time>2022-07-27T11:22:00Z</time>
      </trkpt>
      <trkpt lat="46.62122" lon="5.88895">
        <ele>788.9</ele>
        <time>2022-07-27T11:22:13Z</time>
      </trkpt>
      <trkpt lat="46.62122" lon="5.88897">
        <ele>788.9</ele>
        <time>2022-07-27T11:22:44Z</time>
      </trkpt>
      <trkpt lat="46.6212" lon="5.88897">
        <ele>789.38</ele>
        <time>2022-07-27T11:23:19Z</time>
      </trkpt>
      <trkpt lat="46.62118" lon="5.88895">
        <ele>789.38</ele>
        <time>2022-07-27T11:23:53Z</time>
      </trkpt>
      <trkpt lat="46.62122" lon="5.88894">
        <ele>789.86</ele>
        <time>2022-07-27T11:24:24Z</time>
      </trkpt>
      <trkpt lat="46.62123" lon="5.8889">
        <ele>789.86</ele>
        <time>2022-07-27T11:24:35Z</time>
      </trkpt>
      <trkpt lat="46.62122" lon="5.88888">
        <ele>789.38</ele>
        <time>2022-07-27T11:24:36Z</time>
      </trkpt>
      <trkpt lat="46.62121" lon="5.88886">
        <ele>790.34</ele>
        <time>2022-07-27T11:24:37Z</time>
      </trkpt>
      <trkpt lat="46.62119" lon="5.88884">
        <ele>789.86</ele>
        <time>2022-07-27T11:24:38Z</time>
      </trkpt>
      <trkpt lat="46.62117" lon="5.88882">
        <ele>789.86</ele>
        <time>2022-07-27T11:24:39Z</time>
      </trkpt>
      <trkpt lat="46.62114" lon="5.88881">
        <ele>789.86</ele>
        <time>2022-07-27T11:24:40Z</time>
      </trkpt>
      <trkpt lat="46.62079" lon="5.88867">
        <ele>789.38</ele>
        <time>2022-07-27T11:24:51Z</time>
      </trkpt>
      <trkpt lat="46.62015" lon="5.8883">
        <ele>789.38</ele>
        <time>2022-07-27T11:25:06Z</time>
      </trkpt>
      <trkpt lat="46.61981" lon="5.8881">
        <ele>789.86</ele>
        <time>2022-07-27T11:25:14Z</time>
      </trkpt>
      <trkpt lat="46.61977" lon="5.88807">
        <ele>789.86</ele>
        <time>2022-07-27T11:25:15Z</time>
      </trkpt>
      <trkpt lat="46.61973" lon="5.88805">
        <ele>790.34</ele>
        <time>2022-07-27T11:25:16Z</time>
      </trkpt>
      <trkpt lat="46.61969" lon="5.88802">
        <ele>790.82</ele>
        <time>2022-07-27T11:25:17Z</time>
      </trkpt>
      <trkpt lat="46.61965" lon="5.88801">
        <ele>791.3</ele>
        <time>2022-07-27T11:25:18Z</time>
      </trkpt>
      <trkpt lat="46.61894" lon="5.88779">
        <ele>788.9</ele>
        <time>2022-07-27T11:25:34Z</time>
      </trkpt>
      <trkpt lat="46.61836" lon="5.88756">
        <ele>789.38</ele>
        <time>2022-07-27T11:25:49Z</time>
      </trkpt>
      <trkpt lat="46.6177" lon="5.88715">
        <ele>789.38</ele>
        <time>2022-07-27T11:26:05Z</time>
      </trkpt>
      <trkpt lat="46.61697" lon="5.88674">
        <ele>789.86</ele>
        <time>2022-07-27T11:26:22Z</time>
      </trkpt>
      <trkpt lat="46.61623" lon="5.88653">
        <ele>787.94</ele>
        <time>2022-07-27T11:26:38Z</time>
      </trkpt>
      <trkpt lat="46.61554" lon="5.88662">
        <ele>784.09</ele>
        <time>2022-07-27T11:26:49Z</time>
      </trkpt>
      <trkpt lat="46.61519" lon="5.88664">
        <ele>782.17</ele>
        <time>2022-07-27T11:26:57Z</time>
      </trkpt>
      <trkpt lat="46.61501" lon="5.88671">
        <ele>780.73</ele>
        <time>2022-07-27T11:27:04Z</time>
      </trkpt>
      <trkpt lat="46.61483" lon="5.88666">
        <ele>780.25</ele>
        <time>2022-07-27T11:27:08Z</time>
      </trkpt>
      <trkpt lat="46.61478" lon="5.88662">
        <ele>780.25</ele>
        <time>2022-07-27T11:27:09Z</time>
      </trkpt>
      <trkpt lat="46.61474" lon="5.88658">
        <ele>780.25</ele>
        <time>2022-07-27T11:27:10Z</time>
      </trkpt>
      <trkpt lat="46.61471" lon="5.88652">
        <ele>780.25</ele>
        <time>2022-07-27T11:27:11Z</time>
      </trkpt>
      <trkpt lat="46.61469" lon="5.88647">
        <ele>780.25</ele>
        <time>2022-07-27T11:27:12Z</time>
      </trkpt>
      <trkpt lat="46.61467" lon="5.88641">
        <ele>780.73</ele>
        <time>2022-07-27T11:27:13Z</time>
      </trkpt>
      <trkpt lat="46.61466" lon="5.88636">
        <ele>780.73</ele>
        <time>2022-07-27T11:27:14Z</time>
      </trkpt>
      <trkpt lat="46.61466" lon="5.8863">
        <ele>780.25</ele>
        <time>2022-07-27T11:27:15Z</time>
      </trkpt>
      <trkpt lat="46.61467" lon="5.88624">
        <ele>780.73</ele>
        <time>2022-07-27T11:27:16Z</time>
      </trkpt>
      <trkpt lat="46.61469" lon="5.88619">
        <ele>780.73</ele>
        <time>2022-07-27T11:27:17Z</time>
      </trkpt>
      <trkpt lat="46.61471" lon="5.88614">
        <ele>780.25</ele>
        <time>2022-07-27T11:27:18Z</time>
      </trkpt>
      <trkpt lat="46.61473" lon="5.88608">
        <ele>780.73</ele>
        <time>2022-07-27T11:27:19Z</time>
      </trkpt>
      <trkpt lat="46.6148" lon="5.88592">
        <ele>780.25</ele>
        <time>2022-07-27T11:27:22Z</time>
      </trkpt>
      <trkpt lat="46.61482" lon="5.88587">
        <ele>780.25</ele>
        <time>2022-07-27T11:27:23Z</time>
      </trkpt>
      <trkpt lat="46.61501" lon="5.88551">
        <ele>780.25</ele>
        <time>2022-07-27T11:27:30Z</time>
      </trkpt>
      <trkpt lat="46.61525" lon="5.88524">
        <ele>781.21</ele>
        <time>2022-07-27T11:27:37Z</time>
      </trkpt>
      <trkpt lat="46.6159" lon="5.88455">
        <ele>781.69</ele>
        <time>2022-07-27T11:27:55Z</time>
      </trkpt>
      <trkpt lat="46.61656" lon="5.88407">
        <ele>782.17</ele>
        <time>2022-07-27T11:28:13Z</time>
      </trkpt>
      <trkpt lat="46.61711" lon="5.8836">
        <ele>782.65</ele>
        <time>2022-07-27T11:28:29Z</time>
      </trkpt>
      <trkpt lat="46.61779" lon="5.88297">
        <ele>784.57</ele>
        <time>2022-07-27T11:28:49Z</time>
      </trkpt>
      <trkpt lat="46.61815" lon="5.88228">
        <ele>783.61</ele>
        <time>2022-07-27T11:29:03Z</time>
      </trkpt>
      <trkpt lat="46.61819" lon="5.88143">
        <ele>784.57</ele>
        <time>2022-07-27T11:29:19Z</time>
      </trkpt>
      <trkpt lat="46.61816" lon="5.88049">
        <ele>784.09</ele>
        <time>2022-07-27T11:29:36Z</time>
      </trkpt>
      <trkpt lat="46.61813" lon="5.88024">
        <ele>784.57</ele>
        <time>2022-07-27T11:29:40Z</time>
      </trkpt>
      <trkpt lat="46.61793" lon="5.87914">
        <ele>782.65</ele>
        <time>2022-07-27T11:29:57Z</time>
      </trkpt>
      <trkpt lat="46.61749" lon="5.87774">
        <ele>781.21</ele>
        <time>2022-07-27T11:30:15Z</time>
      </trkpt>
      <trkpt lat="46.61713" lon="5.87679">
        <ele>781.69</ele>
        <time>2022-07-27T11:30:30Z</time>
      </trkpt>
      <trkpt lat="46.617" lon="5.87655">
        <ele>780.73</ele>
        <time>2022-07-27T11:30:34Z</time>
      </trkpt>
      <trkpt lat="46.61697" lon="5.87649">
        <ele>781.21</ele>
        <time>2022-07-27T11:30:35Z</time>
      </trkpt>
      <trkpt lat="46.61695" lon="5.87642">
        <ele>780.25</ele>
        <time>2022-07-27T11:30:36Z</time>
      </trkpt>
      <trkpt lat="46.61694" lon="5.87635">
        <ele>780.25</ele>
        <time>2022-07-27T11:30:37Z</time>
      </trkpt>
      <trkpt lat="46.61693" lon="5.87628">
        <ele>780.25</ele>
        <time>2022-07-27T11:30:38Z</time>
      </trkpt>
      <trkpt lat="46.61693" lon="5.8762">
        <ele>780.25</ele>
        <time>2022-07-27T11:30:39Z</time>
      </trkpt>
      <trkpt lat="46.61693" lon="5.87613">
        <ele>780.25</ele>
        <time>2022-07-27T11:30:40Z</time>
      </trkpt>
      <trkpt lat="46.61693" lon="5.87606">
        <ele>780.73</ele>
        <time>2022-07-27T11:30:41Z</time>
      </trkpt>
      <trkpt lat="46.61695" lon="5.87591">
        <ele>780.25</ele>
        <time>2022-07-27T11:30:43Z</time>
      </trkpt>
      <trkpt lat="46.61694" lon="5.8756">
        <ele>780.25</ele>
        <time>2022-07-27T11:30:47Z</time>
      </trkpt>
      <trkpt lat="46.61693" lon="5.87552">
        <ele>780.73</ele>
        <time>2022-07-27T11:30:48Z</time>
      </trkpt>
      <trkpt lat="46.61692" lon="5.87544">
        <ele>779.77</ele>
        <time>2022-07-27T11:30:49Z</time>
      </trkpt>
      <trkpt lat="46.61689" lon="5.87536">
        <ele>779.77</ele>
        <time>2022-07-27T11:30:50Z</time>
      </trkpt>
      <trkpt lat="46.61687" lon="5.87529">
        <ele>780.73</ele>
        <time>2022-07-27T11:30:51Z</time>
      </trkpt>
      <trkpt lat="46.61666" lon="5.87471">
        <ele>780.73</ele>
        <time>2022-07-27T11:31:00Z</time>
      </trkpt>
      <trkpt lat="46.61655" lon="5.87358">
        <ele>780.25</ele>
        <time>2022-07-27T11:31:15Z</time>
      </trkpt>
      <trkpt lat="46.61643" lon="5.8722">
        <ele>780.73</ele>
        <time>2022-07-27T11:31:34Z</time>
      </trkpt>
      <trkpt lat="46.61632" lon="5.87083">
        <ele>780.25</ele>
        <time>2022-07-27T11:31:54Z</time>
      </trkpt>
      <trkpt lat="46.61633" lon="5.87068">
        <ele>780.25</ele>
        <time>2022-07-27T11:31:56Z</time>
      </trkpt>
      <trkpt lat="46.61635" lon="5.87061">
        <ele>780.25</ele>
        <time>2022-07-27T11:31:57Z</time>
      </trkpt>
      <trkpt lat="46.6164" lon="5.87048">
        <ele>780.25</ele>
        <time>2022-07-27T11:31:59Z</time>
      </trkpt>
      <trkpt lat="46.61643" lon="5.87042">
        <ele>779.77</ele>
        <time>2022-07-27T11:32:00Z</time>
      </trkpt>
      <trkpt lat="46.61647" lon="5.87038">
        <ele>779.77</ele>
        <time>2022-07-27T11:32:01Z</time>
      </trkpt>
      <trkpt lat="46.61651" lon="5.87034">
        <ele>780.25</ele>
        <time>2022-07-27T11:32:02Z</time>
      </trkpt>
      <trkpt lat="46.61654" lon="5.8703">
        <ele>780.25</ele>
        <time>2022-07-27T11:32:03Z</time>
      </trkpt>
      <trkpt lat="46.61719" lon="5.86983">
        <ele>779.77</ele>
        <time>2022-07-27T11:32:19Z</time>
      </trkpt>
      <trkpt lat="46.61781" lon="5.86936">
        <ele>778.81</ele>
        <time>2022-07-27T11:32:34Z</time>
      </trkpt>
      <trkpt lat="46.61792" lon="5.86923">
        <ele>778.81</ele>
        <time>2022-07-27T11:32:37Z</time>
      </trkpt>
      <trkpt lat="46.61795" lon="5.86918">
        <ele>778.81</ele>
        <time>2022-07-27T11:32:38Z</time>
      </trkpt>
      <trkpt lat="46.61819" lon="5.86836">
        <ele>778.32</ele>
        <time>2022-07-27T11:32:51Z</time>
      </trkpt>
      <trkpt lat="46.61845" lon="5.86752">
        <ele>776.88</ele>
        <time>2022-07-27T11:33:03Z</time>
      </trkpt>
      <trkpt lat="46.61846" lon="5.86745">
        <ele>776.88</ele>
        <time>2022-07-27T11:33:04Z</time>
      </trkpt>
      <trkpt lat="46.61846" lon="5.86737">
        <ele>777.36</ele>
        <time>2022-07-27T11:33:05Z</time>
      </trkpt>
      <trkpt lat="46.61846" lon="5.86729">
        <ele>777.36</ele>
        <time>2022-07-27T11:33:06Z</time>
      </trkpt>
      <trkpt lat="46.61844" lon="5.86722">
        <ele>777.36</ele>
        <time>2022-07-27T11:33:07Z</time>
      </trkpt>
      <trkpt lat="46.61842" lon="5.86715">
        <ele>776.88</ele>
        <time>2022-07-27T11:33:08Z</time>
      </trkpt>
      <trkpt lat="46.6184" lon="5.86708">
        <ele>776.88</ele>
        <time>2022-07-27T11:33:09Z</time>
      </trkpt>
      <trkpt lat="46.61836" lon="5.86702">
        <ele>776.4</ele>
        <time>2022-07-27T11:33:10Z</time>
      </trkpt>
      <trkpt lat="46.61833" lon="5.86696">
        <ele>776.88</ele>
        <time>2022-07-27T11:33:11Z</time>
      </trkpt>
      <trkpt lat="46.61817" lon="5.86665">
        <ele>775.92</ele>
        <time>2022-07-27T11:33:16Z</time>
      </trkpt>
      <trkpt lat="46.61814" lon="5.86659">
        <ele>776.4</ele>
        <time>2022-07-27T11:33:17Z</time>
      </trkpt>
      <trkpt lat="46.61813" lon="5.86652">
        <ele>776.88</ele>
        <time>2022-07-27T11:33:18Z</time>
      </trkpt>
      <trkpt lat="46.61813" lon="5.86645">
        <ele>775.92</ele>
        <time>2022-07-27T11:33:19Z</time>
      </trkpt>
      <trkpt lat="46.61812" lon="5.86638">
        <ele>776.4</ele>
        <time>2022-07-27T11:33:20Z</time>
      </trkpt>
      <trkpt lat="46.61812" lon="5.86631">
        <ele>776.4</ele>
        <time>2022-07-27T11:33:21Z</time>
      </trkpt>
      <trkpt lat="46.6181" lon="5.86589">
        <ele>776.4</ele>
        <time>2022-07-27T11:33:27Z</time>
      </trkpt>
      <trkpt lat="46.61809" lon="5.86582">
        <ele>775.92</ele>
        <time>2022-07-27T11:33:28Z</time>
      </trkpt>
      <trkpt lat="46.61807" lon="5.86575">
        <ele>776.4</ele>
        <time>2022-07-27T11:33:29Z</time>
      </trkpt>
      <trkpt lat="46.61797" lon="5.86543">
        <ele>775.92</ele>
        <time>2022-07-27T11:33:34Z</time>
      </trkpt>
      <trkpt lat="46.61795" lon="5.86536">
        <ele>776.4</ele>
        <time>2022-07-27T11:33:35Z</time>
      </trkpt>
      <trkpt lat="46.61791" lon="5.86515">
        <ele>775.44</ele>
        <time>2022-07-27T11:33:38Z</time>
      </trkpt>
      <trkpt lat="46.61781" lon="5.86405">
        <ele>775.92</ele>
        <time>2022-07-27T11:33:53Z</time>
      </trkpt>
      <trkpt lat="46.61782" lon="5.86361">
        <ele>775.92</ele>
        <time>2022-07-27T11:33:59Z</time>
      </trkpt>
      <trkpt lat="46.61781" lon="5.86354">
        <ele>775.44</ele>
        <time>2022-07-27T11:34:00Z</time>
      </trkpt>
      <trkpt lat="46.61779" lon="5.86346">
        <ele>775.44</ele>
        <time>2022-07-27T11:34:01Z</time>
      </trkpt>
      <trkpt lat="46.61777" lon="5.86339">
        <ele>775.44</ele>
        <time>2022-07-27T11:34:02Z</time>
      </trkpt>
      <trkpt lat="46.61774" lon="5.86333">
        <ele>774.96</ele>
        <time>2022-07-27T11:34:03Z</time>
      </trkpt>
      <trkpt lat="46.61771" lon="5.86326">
        <ele>775.44</ele>
        <time>2022-07-27T11:34:04Z</time>
      </trkpt>
      <trkpt lat="46.61767" lon="5.86319">
        <ele>774.96</ele>
        <time>2022-07-27T11:34:05Z</time>
      </trkpt>
      <trkpt lat="46.61764" lon="5.86313">
        <ele>774.96</ele>
        <time>2022-07-27T11:34:06Z</time>
      </trkpt>
      <trkpt lat="46.61751" lon="5.86268">
        <ele>774.96</ele>
        <time>2022-07-27T11:34:13Z</time>
      </trkpt>
      <trkpt lat="46.61746" lon="5.86213">
        <ele>774.48</ele>
        <time>2022-07-27T11:34:21Z</time>
      </trkpt>
      <trkpt lat="46.61745" lon="5.86146">
        <ele>774.48</ele>
        <time>2022-07-27T11:34:31Z</time>
      </trkpt>
      <trkpt lat="46.61744" lon="5.8614">
        <ele>774</ele>
        <time>2022-07-27T11:34:32Z</time>
      </trkpt>
      <trkpt lat="46.61741" lon="5.86127">
        <ele>774</ele>
        <time>2022-07-27T11:34:34Z</time>
      </trkpt>
      <trkpt lat="46.61739" lon="5.86121">
        <ele>773.52</ele>
        <time>2022-07-27T11:34:35Z</time>
      </trkpt>
      <trkpt lat="46.61722" lon="5.86082">
        <ele>773.04</ele>
        <time>2022-07-27T11:34:41Z</time>
      </trkpt>
      <trkpt lat="46.61696" lon="5.8604">
        <ele>773.52</ele>
        <time>2022-07-27T11:34:48Z</time>
      </trkpt>
      <trkpt lat="46.61693" lon="5.86034">
        <ele>774</ele>
        <time>2022-07-27T11:34:49Z</time>
      </trkpt>
      <trkpt lat="46.61691" lon="5.86028">
        <ele>773.52</ele>
        <time>2022-07-27T11:34:50Z</time>
      </trkpt>
      <trkpt lat="46.61688" lon="5.86021">
        <ele>773.52</ele>
        <time>2022-07-27T11:34:51Z</time>
      </trkpt>
      <trkpt lat="46.61687" lon="5.86015">
        <ele>774</ele>
        <time>2022-07-27T11:34:52Z</time>
      </trkpt>
      <trkpt lat="46.61669" lon="5.85948">
        <ele>773.52</ele>
        <time>2022-07-27T11:35:02Z</time>
      </trkpt>
      <trkpt lat="46.61666" lon="5.85941">
        <ele>773.52</ele>
        <time>2022-07-27T11:35:03Z</time>
      </trkpt>
      <trkpt lat="46.61661" lon="5.85928">
        <ele>773.04</ele>
        <time>2022-07-27T11:35:05Z</time>
      </trkpt>
      <trkpt lat="46.61652" lon="5.85894">
        <ele>773.52</ele>
        <time>2022-07-27T11:35:10Z</time>
      </trkpt>
      <trkpt lat="46.61634" lon="5.85806">
        <ele>772.56</ele>
        <time>2022-07-27T11:35:22Z</time>
      </trkpt>
      <trkpt lat="46.61634" lon="5.85798">
        <ele>772.56</ele>
        <time>2022-07-27T11:35:23Z</time>
      </trkpt>
      <trkpt lat="46.61634" lon="5.85791">
        <ele>772.56</ele>
        <time>2022-07-27T11:35:24Z</time>
      </trkpt>
      <trkpt lat="46.61635" lon="5.85783">
        <ele>773.04</ele>
        <time>2022-07-27T11:35:25Z</time>
      </trkpt>
      <trkpt lat="46.61636" lon="5.85775">
        <ele>773.04</ele>
        <time>2022-07-27T11:35:26Z</time>
      </trkpt>
      <trkpt lat="46.61638" lon="5.85768">
        <ele>772.56</ele>
        <time>2022-07-27T11:35:27Z</time>
      </trkpt>
      <trkpt lat="46.61649" lon="5.85731">
        <ele>773.04</ele>
        <time>2022-07-27T11:35:32Z</time>
      </trkpt>
      <trkpt lat="46.6165" lon="5.85723">
        <ele>772.56</ele>
        <time>2022-07-27T11:35:33Z</time>
      </trkpt>
      <trkpt lat="46.6165" lon="5.85715">
        <ele>772.56</ele>
        <time>2022-07-27T11:35:34Z</time>
      </trkpt>
      <trkpt lat="46.6165" lon="5.85707">
        <ele>772.56</ele>
        <time>2022-07-27T11:35:35Z</time>
      </trkpt>
      <trkpt lat="46.61648" lon="5.85698">
        <ele>773.04</ele>
        <time>2022-07-27T11:35:36Z</time>
      </trkpt>
      <trkpt lat="46.61646" lon="5.8569">
        <ele>773.04</ele>
        <time>2022-07-27T11:35:37Z</time>
      </trkpt>
      <trkpt lat="46.61643" lon="5.85683">
        <ele>773.04</ele>
        <time>2022-07-27T11:35:38Z</time>
      </trkpt>
      <trkpt lat="46.61639" lon="5.85676">
        <ele>773.04</ele>
        <time>2022-07-27T11:35:39Z</time>
      </trkpt>
      <trkpt lat="46.61636" lon="5.8567">
        <ele>773.52</ele>
        <time>2022-07-27T11:35:40Z</time>
      </trkpt>
      <trkpt lat="46.61632" lon="5.85664">
        <ele>772.56</ele>
        <time>2022-07-27T11:35:41Z</time>
      </trkpt>
      <trkpt lat="46.61604" lon="5.85575">
        <ele>772.56</ele>
        <time>2022-07-27T11:35:55Z</time>
      </trkpt>
      <trkpt lat="46.61604" lon="5.85568">
        <ele>772.56</ele>
        <time>2022-07-27T11:35:56Z</time>
      </trkpt>
      <trkpt lat="46.61608" lon="5.85456">
        <ele>772.08</ele>
        <time>2022-07-27T11:36:11Z</time>
      </trkpt>
      <trkpt lat="46.6162" lon="5.8534">
        <ele>771.6</ele>
        <time>2022-07-27T11:36:27Z</time>
      </trkpt>
      <trkpt lat="46.61622" lon="5.85331">
        <ele>771.6</ele>
        <time>2022-07-27T11:36:28Z</time>
      </trkpt>
      <trkpt lat="46.61625" lon="5.85324">
        <ele>771.6</ele>
        <time>2022-07-27T11:36:29Z</time>
      </trkpt>
      <trkpt lat="46.61631" lon="5.85311">
        <ele>771.6</ele>
        <time>2022-07-27T11:36:31Z</time>
      </trkpt>
      <trkpt lat="46.61634" lon="5.85305">
        <ele>771.11</ele>
        <time>2022-07-27T11:36:32Z</time>
      </trkpt>
      <trkpt lat="46.6169" lon="5.85221">
        <ele>769.67</ele>
        <time>2022-07-27T11:36:47Z</time>
      </trkpt>
      <trkpt lat="46.61713" lon="5.85172">
        <ele>769.19</ele>
        <time>2022-07-27T11:36:54Z</time>
      </trkpt>
      <trkpt lat="46.61766" lon="5.85117">
        <ele>768.71</ele>
        <time>2022-07-27T11:37:06Z</time>
      </trkpt>
      <trkpt lat="46.61837" lon="5.85058">
        <ele>765.83</ele>
        <time>2022-07-27T11:37:21Z</time>
      </trkpt>
      <trkpt lat="46.61878" lon="5.85028">
        <ele>764.39</ele>
        <time>2022-07-27T11:37:29Z</time>
      </trkpt>
      <trkpt lat="46.61912" lon="5.85">
        <ele>762.94</ele>
        <time>2022-07-27T11:37:35Z</time>
      </trkpt>
      <trkpt lat="46.61917" lon="5.84994">
        <ele>763.42</ele>
        <time>2022-07-27T11:37:36Z</time>
      </trkpt>
      <trkpt lat="46.61927" lon="5.84979">
        <ele>762.94</ele>
        <time>2022-07-27T11:37:38Z</time>
      </trkpt>
      <trkpt lat="46.61931" lon="5.84971">
        <ele>762.46</ele>
        <time>2022-07-27T11:37:39Z</time>
      </trkpt>
      <trkpt lat="46.61935" lon="5.84962">
        <ele>762.46</ele>
        <time>2022-07-27T11:37:40Z</time>
      </trkpt>
      <trkpt lat="46.61938" lon="5.84953">
        <ele>762.46</ele>
        <time>2022-07-27T11:37:41Z</time>
      </trkpt>
      <trkpt lat="46.61941" lon="5.84943">
        <ele>761.98</ele>
        <time>2022-07-27T11:37:42Z</time>
      </trkpt>
      <trkpt lat="46.61943" lon="5.84932">
        <ele>761.98</ele>
        <time>2022-07-27T11:37:43Z</time>
      </trkpt>
      <trkpt lat="46.61944" lon="5.84922">
        <ele>761.02</ele>
        <time>2022-07-27T11:37:44Z</time>
      </trkpt>
      <trkpt lat="46.61965" lon="5.84805">
        <ele>758.14</ele>
        <time>2022-07-27T11:37:54Z</time>
      </trkpt>
      <trkpt lat="46.61975" lon="5.84743">
        <ele>755.73</ele>
        <time>2022-07-27T11:37:59Z</time>
      </trkpt>
      <trkpt lat="46.61995" lon="5.84631">
        <ele>752.85</ele>
        <time>2022-07-27T11:38:08Z</time>
      </trkpt>
      <trkpt lat="46.62001" lon="5.84578">
        <ele>751.41</ele>
        <time>2022-07-27T11:38:12Z</time>
      </trkpt>
      <trkpt lat="46.62001" lon="5.84565">
        <ele>751.41</ele>
        <time>2022-07-27T11:38:13Z</time>
      </trkpt>
      <trkpt lat="46.61999" lon="5.84552">
        <ele>750.45</ele>
        <time>2022-07-27T11:38:14Z</time>
      </trkpt>
      <trkpt lat="46.61997" lon="5.84539">
        <ele>750.45</ele>
        <time>2022-07-27T11:38:15Z</time>
      </trkpt>
      <trkpt lat="46.61994" lon="5.84527">
        <ele>750.45</ele>
        <time>2022-07-27T11:38:16Z</time>
      </trkpt>
      <trkpt lat="46.61991" lon="5.84516">
        <ele>749.49</ele>
        <time>2022-07-27T11:38:17Z</time>
      </trkpt>
      <trkpt lat="46.61987" lon="5.84505">
        <ele>749.97</ele>
        <time>2022-07-27T11:38:18Z</time>
      </trkpt>
      <trkpt lat="46.61982" lon="5.84494">
        <ele>749</ele>
        <time>2022-07-27T11:38:19Z</time>
      </trkpt>
      <trkpt lat="46.61967" lon="5.8446">
        <ele>748.04</ele>
        <time>2022-07-27T11:38:22Z</time>
      </trkpt>
      <trkpt lat="46.61963" lon="5.84448">
        <ele>747.56</ele>
        <time>2022-07-27T11:38:23Z</time>
      </trkpt>
      <trkpt lat="46.6196" lon="5.84436">
        <ele>746.6</ele>
        <time>2022-07-27T11:38:24Z</time>
      </trkpt>
      <trkpt lat="46.61958" lon="5.84423">
        <ele>746.6</ele>
        <time>2022-07-27T11:38:25Z</time>
      </trkpt>
      <trkpt lat="46.61957" lon="5.8441">
        <ele>746.12</ele>
        <time>2022-07-27T11:38:26Z</time>
      </trkpt>
      <trkpt lat="46.61956" lon="5.84398">
        <ele>746.12</ele>
        <time>2022-07-27T11:38:27Z</time>
      </trkpt>
      <trkpt lat="46.61956" lon="5.84386">
        <ele>746.12</ele>
        <time>2022-07-27T11:38:28Z</time>
      </trkpt>
      <trkpt lat="46.61961" lon="5.84296">
        <ele>743.24</ele>
        <time>2022-07-27T11:38:36Z</time>
      </trkpt>
      <trkpt lat="46.61961" lon="5.84205">
        <ele>740.35</ele>
        <time>2022-07-27T11:38:45Z</time>
      </trkpt>
      <trkpt lat="46.61949" lon="5.84048">
        <ele>736.51</ele>
        <time>2022-07-27T11:39:01Z</time>
      </trkpt>
      <trkpt lat="46.61928" lon="5.83929">
        <ele>733.62</ele>
        <time>2022-07-27T11:39:13Z</time>
      </trkpt>
      <trkpt lat="46.61922" lon="5.83895">
        <ele>732.18</ele>
        <time>2022-07-27T11:39:16Z</time>
      </trkpt>
      <trkpt lat="46.61922" lon="5.83883">
        <ele>731.7</ele>
        <time>2022-07-27T11:39:17Z</time>
      </trkpt>
      <trkpt lat="46.61922" lon="5.83871">
        <ele>732.18</ele>
        <time>2022-07-27T11:39:18Z</time>
      </trkpt>
      <trkpt lat="46.61923" lon="5.83859">
        <ele>731.7</ele>
        <time>2022-07-27T11:39:19Z</time>
      </trkpt>
      <trkpt lat="46.61926" lon="5.83848">
        <ele>731.22</ele>
        <time>2022-07-27T11:39:20Z</time>
      </trkpt>
      <trkpt lat="46.61929" lon="5.83837">
        <ele>730.74</ele>
        <time>2022-07-27T11:39:21Z</time>
      </trkpt>
      <trkpt lat="46.61934" lon="5.83827">
        <ele>730.26</ele>
        <time>2022-07-27T11:39:22Z</time>
      </trkpt>
      <trkpt lat="46.6194" lon="5.83818">
        <ele>730.26</ele>
        <time>2022-07-27T11:39:23Z</time>
      </trkpt>
      <trkpt lat="46.61947" lon="5.8381">
        <ele>729.3</ele>
        <time>2022-07-27T11:39:24Z</time>
      </trkpt>
      <trkpt lat="46.61953" lon="5.83802">
        <ele>728.82</ele>
        <time>2022-07-27T11:39:25Z</time>
      </trkpt>
      <trkpt lat="46.61965" lon="5.83786">
        <ele>728.34</ele>
        <time>2022-07-27T11:39:27Z</time>
      </trkpt>
      <trkpt lat="46.61979" lon="5.8376">
        <ele>726.41</ele>
        <time>2022-07-27T11:39:30Z</time>
      </trkpt>
      <trkpt lat="46.61982" lon="5.8375">
        <ele>725.93</ele>
        <time>2022-07-27T11:39:31Z</time>
      </trkpt>
      <trkpt lat="46.61984" lon="5.8374">
        <ele>725.45</ele>
        <time>2022-07-27T11:39:32Z</time>
      </trkpt>
      <trkpt lat="46.61986" lon="5.83728">
        <ele>724.49</ele>
        <time>2022-07-27T11:39:33Z</time>
      </trkpt>
      <trkpt lat="46.61987" lon="5.83716">
        <ele>724.49</ele>
        <time>2022-07-27T11:39:34Z</time>
      </trkpt>
      <trkpt lat="46.61988" lon="5.8369">
        <ele>724.01</ele>
        <time>2022-07-27T11:39:36Z</time>
      </trkpt>
      <trkpt lat="46.61987" lon="5.83677">
        <ele>723.53</ele>
        <time>2022-07-27T11:39:37Z</time>
      </trkpt>
      <trkpt lat="46.61986" lon="5.83663">
        <ele>723.05</ele>
        <time>2022-07-27T11:39:38Z</time>
      </trkpt>
      <trkpt lat="46.61971" lon="5.83583">
        <ele>720.65</ele>
        <time>2022-07-27T11:39:44Z</time>
      </trkpt>
      <trkpt lat="46.6197" lon="5.83569">
        <ele>720.65</ele>
        <time>2022-07-27T11:39:45Z</time>
      </trkpt>
      <trkpt lat="46.6197" lon="5.83556">
        <ele>720.16</ele>
        <time>2022-07-27T11:39:46Z</time>
      </trkpt>
      <trkpt lat="46.61971" lon="5.83541">
        <ele>719.68</ele>
        <time>2022-07-27T11:39:47Z</time>
      </trkpt>
      <trkpt lat="46.61974" lon="5.83528">
        <ele>719.2</ele>
        <time>2022-07-27T11:39:48Z</time>
      </trkpt>
      <trkpt lat="46.61978" lon="5.83516">
        <ele>718.24</ele>
        <time>2022-07-27T11:39:49Z</time>
      </trkpt>
      <trkpt lat="46.61982" lon="5.83505">
        <ele>717.76</ele>
        <time>2022-07-27T11:39:50Z</time>
      </trkpt>
      <trkpt lat="46.61987" lon="5.83494">
        <ele>717.28</ele>
        <time>2022-07-27T11:39:51Z</time>
      </trkpt>
      <trkpt lat="46.61993" lon="5.83484">
        <ele>716.8</ele>
        <time>2022-07-27T11:39:52Z</time>
      </trkpt>
      <trkpt lat="46.62028" lon="5.83409">
        <ele>713.92</ele>
        <time>2022-07-27T11:39:59Z</time>
      </trkpt>
      <trkpt lat="46.62052" lon="5.8334">
        <ele>711.03</ele>
        <time>2022-07-27T11:40:05Z</time>
      </trkpt>
      <trkpt lat="46.62098" lon="5.83246">
        <ele>707.67</ele>
        <time>2022-07-27T11:40:14Z</time>
      </trkpt>
      <trkpt lat="46.62128" lon="5.8318">
        <ele>705.26</ele>
        <time>2022-07-27T11:40:20Z</time>
      </trkpt>
      <trkpt lat="46.62144" lon="5.83149">
        <ele>703.82</ele>
        <time>2022-07-27T11:40:23Z</time>
      </trkpt>
      <trkpt lat="46.6217" lon="5.83101">
        <ele>701.42</ele>
        <time>2022-07-27T11:40:28Z</time>
      </trkpt>
      <trkpt lat="46.62197" lon="5.83051">
        <ele>698.53</ele>
        <time>2022-07-27T11:40:36Z</time>
      </trkpt>
      <trkpt lat="46.62205" lon="5.83035">
        <ele>698.05</ele>
        <time>2022-07-27T11:40:39Z</time>
      </trkpt>
      <trkpt lat="46.62215" lon="5.83021">
        <ele>698.05</ele>
        <time>2022-07-27T11:40:42Z</time>
      </trkpt>
      <trkpt lat="46.62254" lon="5.82967">
        <ele>694.69</ele>
        <time>2022-07-27T11:40:52Z</time>
      </trkpt>
      <trkpt lat="46.62294" lon="5.82924">
        <ele>691.81</ele>
        <time>2022-07-27T11:40:59Z</time>
      </trkpt>
      <trkpt lat="46.62307" lon="5.82913">
        <ele>690.84</ele>
        <time>2022-07-27T11:41:01Z</time>
      </trkpt>
      <trkpt lat="46.62334" lon="5.82895">
        <ele>688.92</ele>
        <time>2022-07-27T11:41:05Z</time>
      </trkpt>
      <trkpt lat="46.62341" lon="5.82892">
        <ele>688.44</ele>
        <time>2022-07-27T11:41:06Z</time>
      </trkpt>
      <trkpt lat="46.62347" lon="5.82891">
        <ele>687.96</ele>
        <time>2022-07-27T11:41:07Z</time>
      </trkpt>
      <trkpt lat="46.62354" lon="5.82891">
        <ele>687.48</ele>
        <time>2022-07-27T11:41:08Z</time>
      </trkpt>
      <trkpt lat="46.62368" lon="5.82895">
        <ele>686.52</ele>
        <time>2022-07-27T11:41:10Z</time>
      </trkpt>
      <trkpt lat="46.6243" lon="5.82926">
        <ele>683.15</ele>
        <time>2022-07-27T11:41:18Z</time>
      </trkpt>
      <trkpt lat="46.62477" lon="5.82951">
        <ele>681.23</ele>
        <time>2022-07-27T11:41:24Z</time>
      </trkpt>
      <trkpt lat="46.62484" lon="5.82953">
        <ele>681.23</ele>
        <time>2022-07-27T11:41:25Z</time>
      </trkpt>
      <trkpt lat="46.62492" lon="5.82953">
        <ele>680.75</ele>
        <time>2022-07-27T11:41:26Z</time>
      </trkpt>
      <trkpt lat="46.625" lon="5.82951">
        <ele>681.23</ele>
        <time>2022-07-27T11:41:27Z</time>
      </trkpt>
      <trkpt lat="46.62508" lon="5.82948">
        <ele>681.23</ele>
        <time>2022-07-27T11:41:28Z</time>
      </trkpt>
      <trkpt lat="46.62515" lon="5.82943">
        <ele>680.27</ele>
        <time>2022-07-27T11:41:29Z</time>
      </trkpt>
      <trkpt lat="46.62539" lon="5.8293">
        <ele>678.83</ele>
        <time>2022-07-27T11:41:32Z</time>
      </trkpt>
      <trkpt lat="46.62593" lon="5.82899">
        <ele>675.94</ele>
        <time>2022-07-27T11:41:39Z</time>
      </trkpt>
      <trkpt lat="46.62654" lon="5.82864">
        <ele>673.06</ele>
        <time>2022-07-27T11:41:47Z</time>
      </trkpt>
      <trkpt lat="46.62679" lon="5.82851">
        <ele>671.14</ele>
        <time>2022-07-27T11:41:50Z</time>
      </trkpt>
      <trkpt lat="46.62729" lon="5.82822">
        <ele>667.77</ele>
        <time>2022-07-27T11:41:56Z</time>
      </trkpt>
      <trkpt lat="46.62737" lon="5.82817">
        <ele>668.25</ele>
        <time>2022-07-27T11:41:57Z</time>
      </trkpt>
      <trkpt lat="46.62761" lon="5.82805">
        <ele>666.81</ele>
        <time>2022-07-27T11:42:00Z</time>
      </trkpt>
      <trkpt lat="46.6277" lon="5.82803">
        <ele>666.33</ele>
        <time>2022-07-27T11:42:01Z</time>
      </trkpt>
      <trkpt lat="46.62779" lon="5.82802">
        <ele>665.85</ele>
        <time>2022-07-27T11:42:02Z</time>
      </trkpt>
      <trkpt lat="46.62788" lon="5.82804">
        <ele>665.37</ele>
        <time>2022-07-27T11:42:03Z</time>
      </trkpt>
      <trkpt lat="46.62796" lon="5.82806">
        <ele>664.89</ele>
        <time>2022-07-27T11:42:04Z</time>
      </trkpt>
      <trkpt lat="46.62804" lon="5.8281">
        <ele>663.93</ele>
        <time>2022-07-27T11:42:05Z</time>
      </trkpt>
      <trkpt lat="46.62812" lon="5.82816">
        <ele>663.93</ele>
        <time>2022-07-27T11:42:06Z</time>
      </trkpt>
      <trkpt lat="46.62819" lon="5.82822">
        <ele>664.41</ele>
        <time>2022-07-27T11:42:07Z</time>
      </trkpt>
      <trkpt lat="46.62826" lon="5.8283">
        <ele>664.41</ele>
        <time>2022-07-27T11:42:08Z</time>
      </trkpt>
      <trkpt lat="46.62834" lon="5.82839">
        <ele>663.45</ele>
        <time>2022-07-27T11:42:09Z</time>
      </trkpt>
      <trkpt lat="46.62842" lon="5.82848">
        <ele>662.97</ele>
        <time>2022-07-27T11:42:10Z</time>
      </trkpt>
      <trkpt lat="46.6285" lon="5.82856">
        <ele>662.49</ele>
        <time>2022-07-27T11:42:11Z</time>
      </trkpt>
      <trkpt lat="46.6286" lon="5.82863">
        <ele>662.01</ele>
        <time>2022-07-27T11:42:12Z</time>
      </trkpt>
      <trkpt lat="46.62908" lon="5.82892">
        <ele>658.16</ele>
        <time>2022-07-27T11:42:17Z</time>
      </trkpt>
      <trkpt lat="46.62949" lon="5.82912">
        <ele>655.28</ele>
        <time>2022-07-27T11:42:21Z</time>
      </trkpt>
      <trkpt lat="46.62959" lon="5.82916">
        <ele>655.28</ele>
        <time>2022-07-27T11:42:22Z</time>
      </trkpt>
      <trkpt lat="46.62992" lon="5.82925">
        <ele>651.43</ele>
        <time>2022-07-27T11:42:25Z</time>
      </trkpt>
      <trkpt lat="46.63003" lon="5.82929">
        <ele>651.91</ele>
        <time>2022-07-27T11:42:26Z</time>
      </trkpt>
      <trkpt lat="46.63057" lon="5.82944">
        <ele>649.03</ele>
        <time>2022-07-27T11:42:31Z</time>
      </trkpt>
      <trkpt lat="46.6312" lon="5.82947">
        <ele>645.66</ele>
        <time>2022-07-27T11:42:37Z</time>
      </trkpt>
      <trkpt lat="46.6313" lon="5.82948">
        <ele>645.18</ele>
        <time>2022-07-27T11:42:38Z</time>
      </trkpt>
      <trkpt lat="46.63151" lon="5.82951">
        <ele>644.22</ele>
        <time>2022-07-27T11:42:40Z</time>
      </trkpt>
      <trkpt lat="46.6316" lon="5.82954">
        <ele>643.26</ele>
        <time>2022-07-27T11:42:41Z</time>
      </trkpt>
      <trkpt lat="46.6317" lon="5.82959">
        <ele>643.26</ele>
        <time>2022-07-27T11:42:42Z</time>
      </trkpt>
      <trkpt lat="46.63179" lon="5.82964">
        <ele>643.26</ele>
        <time>2022-07-27T11:42:43Z</time>
      </trkpt>
      <trkpt lat="46.63188" lon="5.8297">
        <ele>642.78</ele>
        <time>2022-07-27T11:42:44Z</time>
      </trkpt>
      <trkpt lat="46.63196" lon="5.82977">
        <ele>641.34</ele>
        <time>2022-07-27T11:42:45Z</time>
      </trkpt>
      <trkpt lat="46.63204" lon="5.82983">
        <ele>641.34</ele>
        <time>2022-07-27T11:42:46Z</time>
      </trkpt>
      <trkpt lat="46.63258" lon="5.83013">
        <ele>639.89</ele>
        <time>2022-07-27T11:42:53Z</time>
      </trkpt>
      <trkpt lat="46.63297" lon="5.83012">
        <ele>639.41</ele>
        <time>2022-07-27T11:42:58Z</time>
      </trkpt>
      <trkpt lat="46.63337" lon="5.82999">
        <ele>639.41</ele>
        <time>2022-07-27T11:43:04Z</time>
      </trkpt>
      <trkpt lat="46.63423" lon="5.83002">
        <ele>638.45</ele>
        <time>2022-07-27T11:43:18Z</time>
      </trkpt>
      <trkpt lat="46.63469" lon="5.82992">
        <ele>638.93</ele>
        <time>2022-07-27T11:43:30Z</time>
      </trkpt>
      <trkpt lat="46.63517" lon="5.82951">
        <ele>636.53</ele>
        <time>2022-07-27T11:43:42Z</time>
      </trkpt>
      <trkpt lat="46.6358" lon="5.8291">
        <ele>635.09</ele>
        <time>2022-07-27T11:43:57Z</time>
      </trkpt>
      <trkpt lat="46.63591" lon="5.82907">
        <ele>634.61</ele>
        <time>2022-07-27T11:43:59Z</time>
      </trkpt>
      <trkpt lat="46.63661" lon="5.82903">
        <ele>634.61</ele>
        <time>2022-07-27T11:44:15Z</time>
      </trkpt>
      <trkpt lat="46.63717" lon="5.82902">
        <ele>635.57</ele>
        <time>2022-07-27T11:44:33Z</time>
      </trkpt>
      <trkpt lat="46.6375" lon="5.82879">
        <ele>635.09</ele>
        <time>2022-07-27T11:44:42Z</time>
      </trkpt>
      <trkpt lat="46.63756" lon="5.82871">
        <ele>635.57</ele>
        <time>2022-07-27T11:44:44Z</time>
      </trkpt>
      <trkpt lat="46.63807" lon="5.82789">
        <ele>636.05</ele>
        <time>2022-07-27T11:45:03Z</time>
      </trkpt>
      <trkpt lat="46.63811" lon="5.82784">
        <ele>635.57</ele>
        <time>2022-07-27T11:45:04Z</time>
      </trkpt>
      <trkpt lat="46.63815" lon="5.82778">
        <ele>635.09</ele>
        <time>2022-07-27T11:45:05Z</time>
      </trkpt>
      <trkpt lat="46.63818" lon="5.82773">
        <ele>635.57</ele>
        <time>2022-07-27T11:45:06Z</time>
      </trkpt>
      <trkpt lat="46.63821" lon="5.82768">
        <ele>636.05</ele>
        <time>2022-07-27T11:45:07Z</time>
      </trkpt>
      <trkpt lat="46.63824" lon="5.82762">
        <ele>635.57</ele>
        <time>2022-07-27T11:45:08Z</time>
      </trkpt>
      <trkpt lat="46.63843" lon="5.82737">
        <ele>636.05</ele>
        <time>2022-07-27T11:45:14Z</time>
      </trkpt>
      <trkpt lat="46.639" lon="5.82695">
        <ele>634.13</ele>
        <time>2022-07-27T11:45:29Z</time>
      </trkpt>
      <trkpt lat="46.63911" lon="5.82682">
        <ele>634.13</ele>
        <time>2022-07-27T11:45:32Z</time>
      </trkpt>
      <trkpt lat="46.63972" lon="5.82589">
        <ele>633.17</ele>
        <time>2022-07-27T11:45:50Z</time>
      </trkpt>
      <trkpt lat="46.64042" lon="5.82519">
        <ele>629.32</ele>
        <time>2022-07-27T11:46:03Z</time>
      </trkpt>
      <trkpt lat="46.64047" lon="5.82513">
        <ele>628.84</ele>
        <time>2022-07-27T11:46:04Z</time>
      </trkpt>
      <trkpt lat="46.6415" lon="5.82417">
        <ele>626.44</ele>
        <time>2022-07-27T11:46:24Z</time>
      </trkpt>
      <trkpt lat="46.64229" lon="5.82404">
        <ele>625.96</ele>
        <time>2022-07-27T11:46:38Z</time>
      </trkpt>
      <trkpt lat="46.64329" lon="5.82402">
        <ele>625.47</ele>
        <time>2022-07-27T11:46:55Z</time>
      </trkpt>
      <trkpt lat="46.64387" lon="5.82401">
        <ele>626.92</ele>
        <time>2022-07-27T11:47:10Z</time>
      </trkpt>
      <trkpt lat="46.64422" lon="5.82399">
        <ele>630.28</ele>
        <time>2022-07-27T11:47:27Z</time>
      </trkpt>
      <trkpt lat="46.64451" lon="5.82391">
        <ele>632.2</ele>
        <time>2022-07-27T11:47:42Z</time>
      </trkpt>
      <trkpt lat="46.64483" lon="5.82372">
        <ele>632.68</ele>
        <time>2022-07-27T11:47:58Z</time>
      </trkpt>
      <trkpt lat="46.64525" lon="5.82335">
        <ele>633.65</ele>
        <time>2022-07-27T11:48:14Z</time>
      </trkpt>
      <trkpt lat="46.64592" lon="5.82313">
        <ele>632.68</ele>
        <time>2022-07-27T11:48:31Z</time>
      </trkpt>
      <trkpt lat="46.64631" lon="5.82288">
        <ele>632.2</ele>
        <time>2022-07-27T11:48:40Z</time>
      </trkpt>
      <trkpt lat="46.64718" lon="5.82234">
        <ele>628.84</ele>
        <time>2022-07-27T11:48:59Z</time>
      </trkpt>
      <trkpt lat="46.64749" lon="5.82222">
        <ele>628.84</ele>
        <time>2022-07-27T11:49:05Z</time>
      </trkpt>
      <trkpt lat="46.64818" lon="5.82193">
        <ele>627.4</ele>
        <time>2022-07-27T11:49:21Z</time>
      </trkpt>
      <trkpt lat="46.64822" lon="5.82191">
        <ele>627.4</ele>
        <time>2022-07-27T11:49:22Z</time>
      </trkpt>
      <trkpt lat="46.64921" lon="5.8215">
        <ele>626.92</ele>
        <time>2022-07-27T11:49:41Z</time>
      </trkpt>
      <trkpt lat="46.64996" lon="5.82099">
        <ele>627.4</ele>
        <time>2022-07-27T11:49:59Z</time>
      </trkpt>
      <trkpt lat="46.65018" lon="5.82081">
        <ele>626.92</ele>
        <time>2022-07-27T11:50:05Z</time>
      </trkpt>
      <trkpt lat="46.65079" lon="5.82054">
        <ele>627.88</ele>
        <time>2022-07-27T11:50:23Z</time>
      </trkpt>
      <trkpt lat="46.6514" lon="5.82037">
        <ele>628.84</ele>
        <time>2022-07-27T11:50:40Z</time>
      </trkpt>
      <trkpt lat="46.65209" lon="5.81984">
        <ele>626.44</ele>
        <time>2022-07-27T11:50:56Z</time>
      </trkpt>
      <trkpt lat="46.6525" lon="5.81951">
        <ele>623.55</ele>
        <time>2022-07-27T11:51:04Z</time>
      </trkpt>
      <trkpt lat="46.65256" lon="5.81946">
        <ele>623.55</ele>
        <time>2022-07-27T11:51:05Z</time>
      </trkpt>
      <trkpt lat="46.65262" lon="5.81941">
        <ele>623.07</ele>
        <time>2022-07-27T11:51:06Z</time>
      </trkpt>
      <trkpt lat="46.65329" lon="5.81904">
        <ele>620.19</ele>
        <time>2022-07-27T11:51:16Z</time>
      </trkpt>
      <trkpt lat="46.65364" lon="5.81879">
        <ele>618.75</ele>
        <time>2022-07-27T11:51:21Z</time>
      </trkpt>
      <trkpt lat="46.65371" lon="5.81872">
        <ele>618.26</ele>
        <time>2022-07-27T11:51:22Z</time>
      </trkpt>
      <trkpt lat="46.65428" lon="5.8175">
        <ele>615.86</ele>
        <time>2022-07-27T11:51:35Z</time>
      </trkpt>
      <trkpt lat="46.65464" lon="5.81607">
        <ele>613.94</ele>
        <time>2022-07-27T11:51:49Z</time>
      </trkpt>
      <trkpt lat="46.6548" lon="5.81465">
        <ele>611.06</ele>
        <time>2022-07-27T11:52:04Z</time>
      </trkpt>
      <trkpt lat="46.65503" lon="5.81337">
        <ele>608.65</ele>
        <time>2022-07-27T11:52:20Z</time>
      </trkpt>
      <trkpt lat="46.65513" lon="5.81284">
        <ele>607.69</ele>
        <time>2022-07-27T11:52:27Z</time>
      </trkpt>
      <trkpt lat="46.65535" lon="5.81199">
        <ele>606.25</ele>
        <time>2022-07-27T11:52:38Z</time>
      </trkpt>
      <trkpt lat="46.65548" lon="5.81156">
        <ele>604.81</ele>
        <time>2022-07-27T11:52:43Z</time>
      </trkpt>
      <trkpt lat="46.65607" lon="5.80987">
        <ele>602.88</ele>
        <time>2022-07-27T11:53:02Z</time>
      </trkpt>
      <trkpt lat="46.65646" lon="5.80875">
        <ele>604.81</ele>
        <time>2022-07-27T11:53:17Z</time>
      </trkpt>
      <trkpt lat="46.6565" lon="5.80864">
        <ele>606.25</ele>
        <time>2022-07-27T11:53:19Z</time>
      </trkpt>
      <trkpt lat="46.65652" lon="5.80858">
        <ele>607.21</ele>
        <time>2022-07-27T11:53:20Z</time>
      </trkpt>
      <trkpt lat="46.65654" lon="5.80853">
        <ele>606.73</ele>
        <time>2022-07-27T11:53:21Z</time>
      </trkpt>
      <trkpt lat="46.65678" lon="5.80787">
        <ele>605.77</ele>
        <time>2022-07-27T11:53:36Z</time>
      </trkpt>
      <trkpt lat="46.65693" lon="5.80712">
        <ele>606.73</ele>
        <time>2022-07-27T11:53:54Z</time>
      </trkpt>
      <trkpt lat="46.65684" lon="5.80615">
        <ele>609.13</ele>
        <time>2022-07-27T11:54:17Z</time>
      </trkpt>
      <trkpt lat="46.65671" lon="5.80526">
        <ele>610.57</ele>
        <time>2022-07-27T11:54:38Z</time>
      </trkpt>
      <trkpt lat="46.65681" lon="5.80451">
        <ele>611.54</ele>
        <time>2022-07-27T11:54:56Z</time>
      </trkpt>
      <trkpt lat="46.65691" lon="5.80365">
        <ele>614.42</ele>
        <time>2022-07-27T11:55:17Z</time>
      </trkpt>
      <trkpt lat="46.65696" lon="5.80293">
        <ele>617.3</ele>
        <time>2022-07-27T11:55:34Z</time>
      </trkpt>
      <trkpt lat="46.65697" lon="5.80289">
        <ele>617.3</ele>
        <time>2022-07-27T11:55:35Z</time>
      </trkpt>
      <trkpt lat="46.65698" lon="5.80227">
        <ele>614.9</ele>
        <time>2022-07-27T11:55:48Z</time>
      </trkpt>
      <trkpt lat="46.65698" lon="5.80192">
        <ele>616.82</ele>
        <time>2022-07-27T11:55:55Z</time>
      </trkpt>
      <trkpt lat="46.65698" lon="5.80152">
        <ele>614.42</ele>
        <time>2022-07-27T11:56:03Z</time>
      </trkpt>
      <trkpt lat="46.65699" lon="5.80048">
        <ele>613.46</ele>
        <time>2022-07-27T11:56:21Z</time>
      </trkpt>
      <trkpt lat="46.65699" lon="5.79997">
        <ele>614.42</ele>
        <time>2022-07-27T11:56:28Z</time>
      </trkpt>
      <trkpt lat="46.65699" lon="5.79973">
        <ele>611.54</ele>
        <time>2022-07-27T11:56:31Z</time>
      </trkpt>
      <trkpt lat="46.65699" lon="5.79926">
        <ele>615.38</ele>
        <time>2022-07-27T11:56:36Z</time>
      </trkpt>
      <trkpt lat="46.65699" lon="5.79917">
        <ele>614.9</ele>
        <time>2022-07-27T11:56:37Z</time>
      </trkpt>
      <trkpt lat="46.65695" lon="5.79837">
        <ele>610.57</ele>
        <time>2022-07-27T11:56:45Z</time>
      </trkpt>
      <trkpt lat="46.65691" lon="5.79817">
        <ele>607.69</ele>
        <time>2022-07-27T11:56:47Z</time>
      </trkpt>
      <trkpt lat="46.65687" lon="5.79798">
        <ele>606.73</ele>
        <time>2022-07-27T11:56:49Z</time>
      </trkpt>
      <trkpt lat="46.65681" lon="5.79766">
        <ele>603.36</ele>
        <time>2022-07-27T11:56:52Z</time>
      </trkpt>
      <trkpt lat="46.65679" lon="5.79756">
        <ele>603.85</ele>
        <time>2022-07-27T11:56:53Z</time>
      </trkpt>
      <trkpt lat="46.65645" lon="5.79573">
        <ele>600.48</ele>
        <time>2022-07-27T11:57:12Z</time>
      </trkpt>
      <trkpt lat="46.6564" lon="5.79446">
        <ele>599.04</ele>
        <time>2022-07-27T11:57:28Z</time>
      </trkpt>
      <trkpt lat="46.6564" lon="5.79438">
        <ele>598.56</ele>
        <time>2022-07-27T11:57:29Z</time>
      </trkpt>
      <trkpt lat="46.6564" lon="5.79431">
        <ele>599.04</ele>
        <time>2022-07-27T11:57:30Z</time>
      </trkpt>
      <trkpt lat="46.65641" lon="5.79324">
        <ele>598.08</ele>
        <time>2022-07-27T11:57:44Z</time>
      </trkpt>
      <trkpt lat="46.65629" lon="5.79197">
        <ele>596.64</ele>
        <time>2022-07-27T11:58:03Z</time>
      </trkpt>
      <trkpt lat="46.65624" lon="5.79172">
        <ele>596.64</ele>
        <time>2022-07-27T11:58:07Z</time>
      </trkpt>
      <trkpt lat="46.65614" lon="5.79144">
        <ele>595.19</ele>
        <time>2022-07-27T11:58:12Z</time>
      </trkpt>
      <trkpt lat="46.65603" lon="5.79116">
        <ele>594.23</ele>
        <time>2022-07-27T11:58:17Z</time>
      </trkpt>
      <trkpt lat="46.65599" lon="5.79103">
        <ele>594.23</ele>
        <time>2022-07-27T11:58:19Z</time>
      </trkpt>
      <trkpt lat="46.65577" lon="5.79055">
        <ele>592.31</ele>
        <time>2022-07-27T11:58:26Z</time>
      </trkpt>
      <trkpt lat="46.65561" lon="5.79032">
        <ele>590.87</ele>
        <time>2022-07-27T11:58:29Z</time>
      </trkpt>
      <trkpt lat="46.65555" lon="5.79026">
        <ele>590.87</ele>
        <time>2022-07-27T11:58:30Z</time>
      </trkpt>
      <trkpt lat="46.65549" lon="5.79021">
        <ele>590.39</ele>
        <time>2022-07-27T11:58:31Z</time>
      </trkpt>
      <trkpt lat="46.65543" lon="5.79017">
        <ele>589.43</ele>
        <time>2022-07-27T11:58:32Z</time>
      </trkpt>
      <trkpt lat="46.65536" lon="5.79013">
        <ele>589.91</ele>
        <time>2022-07-27T11:58:33Z</time>
      </trkpt>
      <trkpt lat="46.65511" lon="5.78996">
        <ele>587.5</ele>
        <time>2022-07-27T11:58:37Z</time>
      </trkpt>
      <trkpt lat="46.655" lon="5.78988">
        <ele>586.54</ele>
        <time>2022-07-27T11:58:39Z</time>
      </trkpt>
      <trkpt lat="46.65495" lon="5.78982">
        <ele>585.58</ele>
        <time>2022-07-27T11:58:40Z</time>
      </trkpt>
      <trkpt lat="46.6549" lon="5.78977">
        <ele>585.1</ele>
        <time>2022-07-27T11:58:41Z</time>
      </trkpt>
      <trkpt lat="46.65482" lon="5.78967">
        <ele>584.14</ele>
        <time>2022-07-27T11:58:43Z</time>
      </trkpt>
      <trkpt lat="46.65478" lon="5.78964">
        <ele>584.62</ele>
        <time>2022-07-27T11:58:44Z</time>
      </trkpt>
      <trkpt lat="46.65469" lon="5.78953">
        <ele>582.7</ele>
        <time>2022-07-27T11:58:52Z</time>
      </trkpt>
      <trkpt lat="46.65468" lon="5.78955">
        <ele>583.66</ele>
        <time>2022-07-27T11:59:08Z</time>
      </trkpt>
      <trkpt lat="46.65464" lon="5.78953">
        <ele>582.7</ele>
        <time>2022-07-27T11:59:41Z</time>
      </trkpt>
      <trkpt lat="46.65468" lon="5.78953">
        <ele>583.18</ele>
        <time>2022-07-27T12:00:11Z</time>
      </trkpt>
      <trkpt lat="46.6547" lon="5.78951">
        <ele>583.18</ele>
        <time>2022-07-27T12:00:49Z</time>
      </trkpt>
      <trkpt lat="46.65467" lon="5.78948">
        <ele>583.18</ele>
        <time>2022-07-27T12:01:04Z</time>
      </trkpt>
      <trkpt lat="46.65463" lon="5.78898">
        <ele>581.73</ele>
        <time>2022-07-27T12:01:14Z</time>
      </trkpt>
      <trkpt lat="46.65447" lon="5.78827">
        <ele>578.37</ele>
        <time>2022-07-27T12:01:22Z</time>
      </trkpt>
      <trkpt lat="46.6543" lon="5.78757">
        <ele>575.49</ele>
        <time>2022-07-27T12:01:28Z</time>
      </trkpt>
      <trkpt lat="46.65414" lon="5.78694">
        <ele>572.12</ele>
        <time>2022-07-27T12:01:33Z</time>
      </trkpt>
      <trkpt lat="46.65397" lon="5.78626">
        <ele>568.76</ele>
        <time>2022-07-27T12:01:38Z</time>
      </trkpt>
      <trkpt lat="46.6539" lon="5.78597">
        <ele>567.8</ele>
        <time>2022-07-27T12:01:40Z</time>
      </trkpt>
      <trkpt lat="46.65379" lon="5.78555">
        <ele>566.35</ele>
        <time>2022-07-27T12:01:43Z</time>
      </trkpt>
      <trkpt lat="46.65365" lon="5.78497">
        <ele>562.99</ele>
        <time>2022-07-27T12:01:47Z</time>
      </trkpt>
      <trkpt lat="46.65358" lon="5.78467">
        <ele>562.03</ele>
        <time>2022-07-27T12:01:49Z</time>
      </trkpt>
      <trkpt lat="46.65344" lon="5.78405">
        <ele>558.18</ele>
        <time>2022-07-27T12:01:53Z</time>
      </trkpt>
      <trkpt lat="46.65338" lon="5.78372">
        <ele>557.7</ele>
        <time>2022-07-27T12:01:55Z</time>
      </trkpt>
      <trkpt lat="46.65325" lon="5.78304">
        <ele>554.34</ele>
        <time>2022-07-27T12:01:59Z</time>
      </trkpt>
      <trkpt lat="46.65317" lon="5.78236">
        <ele>550.49</ele>
        <time>2022-07-27T12:02:03Z</time>
      </trkpt>
      <trkpt lat="46.65315" lon="5.78157">
        <ele>547.13</ele>
        <time>2022-07-27T12:02:08Z</time>
      </trkpt>
      <trkpt lat="46.65315" lon="5.78101">
        <ele>544.24</ele>
        <time>2022-07-27T12:02:12Z</time>
      </trkpt>
      <trkpt lat="46.65316" lon="5.78088">
        <ele>544.24</ele>
        <time>2022-07-27T12:02:13Z</time>
      </trkpt>
      <trkpt lat="46.65319" lon="5.78033">
        <ele>541.36</ele>
        <time>2022-07-27T12:02:18Z</time>
      </trkpt>
      <trkpt lat="46.65325" lon="5.77987">
        <ele>538.96</ele>
        <time>2022-07-27T12:02:24Z</time>
      </trkpt>
      <trkpt lat="46.65324" lon="5.77982">
        <ele>539.44</ele>
        <time>2022-07-27T12:02:25Z</time>
      </trkpt>
      <trkpt lat="46.65322" lon="5.77981">
        <ele>538.96</ele>
        <time>2022-07-27T12:02:26Z</time>
      </trkpt>
      <trkpt lat="46.65318" lon="5.77983">
        <ele>539.44</ele>
        <time>2022-07-27T12:02:27Z</time>
      </trkpt>
      <trkpt lat="46.65316" lon="5.77985">
        <ele>539.44</ele>
        <time>2022-07-27T12:02:28Z</time>
      </trkpt>
      <trkpt lat="46.65314" lon="5.77989">
        <ele>538.96</ele>
        <time>2022-07-27T12:02:29Z</time>
      </trkpt>
      <trkpt lat="46.65312" lon="5.77992">
        <ele>538.96</ele>
        <time>2022-07-27T12:02:30Z</time>
      </trkpt>
      <trkpt lat="46.65312" lon="5.77996">
        <ele>538.96</ele>
        <time>2022-07-27T12:02:44Z</time>
      </trkpt>
      <trkpt lat="46.65312" lon="5.77999">
        <ele>538.48</ele>
        <time>2022-07-27T12:02:47Z</time>
      </trkpt>
      <trkpt lat="46.65313" lon="5.78001">
        <ele>538.48</ele>
        <time>2022-07-27T12:02:48Z</time>
      </trkpt>
      <trkpt lat="46.65312" lon="5.78003">
        <ele>537.99</ele>
        <time>2022-07-27T12:02:49Z</time>
      </trkpt>
      <trkpt lat="46.65311" lon="5.78006">
        <ele>537.99</ele>
        <time>2022-07-27T12:02:50Z</time>
      </trkpt>
      <trkpt lat="46.6531" lon="5.7801">
        <ele>537.51</ele>
        <time>2022-07-27T12:02:51Z</time>
      </trkpt>
      <trkpt lat="46.65308" lon="5.78015">
        <ele>538.96</ele>
        <time>2022-07-27T12:02:52Z</time>
      </trkpt>
      <trkpt lat="46.65305" lon="5.78026">
        <ele>537.03</ele>
        <time>2022-07-27T12:02:54Z</time>
      </trkpt>
      <trkpt lat="46.65304" lon="5.78033">
        <ele>536.07</ele>
        <time>2022-07-27T12:02:55Z</time>
      </trkpt>
      <trkpt lat="46.65302" lon="5.7804">
        <ele>536.07</ele>
        <time>2022-07-27T12:02:56Z</time>
      </trkpt>
      <trkpt lat="46.65283" lon="5.78162">
        <ele>532.71</ele>
        <time>2022-07-27T12:03:09Z</time>
      </trkpt>
      <trkpt lat="46.65284" lon="5.78308">
        <ele>530.3</ele>
        <time>2022-07-27T12:03:22Z</time>
      </trkpt>
      <trkpt lat="46.653" lon="5.78467">
        <ele>528.38</ele>
        <time>2022-07-27T12:03:38Z</time>
      </trkpt>
      <trkpt lat="46.65318" lon="5.78558">
        <ele>528.86</ele>
        <time>2022-07-27T12:03:53Z</time>
      </trkpt>
      <trkpt lat="46.65323" lon="5.78581">
        <ele>528.86</ele>
        <time>2022-07-27T12:03:57Z</time>
      </trkpt>
      <trkpt lat="46.65324" lon="5.78587">
        <ele>528.38</ele>
        <time>2022-07-27T12:03:58Z</time>
      </trkpt>
      <trkpt lat="46.65343" lon="5.78708">
        <ele>528.38</ele>
        <time>2022-07-27T12:04:16Z</time>
      </trkpt>
      <trkpt lat="46.65354" lon="5.78773">
        <ele>530.79</ele>
        <time>2022-07-27T12:04:29Z</time>
      </trkpt>
      <trkpt lat="46.65365" lon="5.78843">
        <ele>533.19</ele>
        <time>2022-07-27T12:04:47Z</time>
      </trkpt>
      <trkpt lat="46.65361" lon="5.78919">
        <ele>532.23</ele>
        <time>2022-07-27T12:05:04Z</time>
      </trkpt>
      <trkpt lat="46.65334" lon="5.79002">
        <ele>531.75</ele>
        <time>2022-07-27T12:05:20Z</time>
      </trkpt>
      <trkpt lat="46.65302" lon="5.7907">
        <ele>529.34</ele>
        <time>2022-07-27T12:05:34Z</time>
      </trkpt>
      <trkpt lat="46.65263" lon="5.79172">
        <ele>527.9</ele>
        <time>2022-07-27T12:05:47Z</time>
      </trkpt>
      <trkpt lat="46.65203" lon="5.7933">
        <ele>525.98</ele>
        <time>2022-07-27T12:06:07Z</time>
      </trkpt>
      <trkpt lat="46.6516" lon="5.79444">
        <ele>523.58</ele>
        <time>2022-07-27T12:06:22Z</time>
      </trkpt>
      <trkpt lat="46.65115" lon="5.79567">
        <ele>523.09</ele>
        <time>2022-07-27T12:06:37Z</time>
      </trkpt>
      <trkpt lat="46.65096" lon="5.79625">
        <ele>523.58</ele>
        <time>2022-07-27T12:06:44Z</time>
      </trkpt>
      <trkpt lat="46.65088" lon="5.79654">
        <ele>523.09</ele>
        <time>2022-07-27T12:06:48Z</time>
      </trkpt>
      <trkpt lat="46.65052" lon="5.79748">
        <ele>523.58</ele>
        <time>2022-07-27T12:07:03Z</time>
      </trkpt>
      <trkpt lat="46.65004" lon="5.79837">
        <ele>522.61</ele>
        <time>2022-07-27T12:07:18Z</time>
      </trkpt>
      <trkpt lat="46.64962" lon="5.79944">
        <ele>523.09</ele>
        <time>2022-07-27T12:07:33Z</time>
      </trkpt>
      <trkpt lat="46.6493" lon="5.80038">
        <ele>523.58</ele>
        <time>2022-07-27T12:07:46Z</time>
      </trkpt>
      <trkpt lat="46.64922" lon="5.80058">
        <ele>523.09</ele>
        <time>2022-07-27T12:07:49Z</time>
      </trkpt>
      <trkpt lat="46.6492" lon="5.80064">
        <ele>523.58</ele>
        <time>2022-07-27T12:07:50Z</time>
      </trkpt>
      <trkpt lat="46.64887" lon="5.80186">
        <ele>523.58</ele>
        <time>2022-07-27T12:08:09Z</time>
      </trkpt>
      <trkpt lat="46.64869" lon="5.80246">
        <ele>524.06</ele>
        <time>2022-07-27T12:08:20Z</time>
      </trkpt>
      <trkpt lat="46.64863" lon="5.803">
        <ele>524.54</ele>
        <time>2022-07-27T12:08:28Z</time>
      </trkpt>
      <trkpt lat="46.64847" lon="5.80377">
        <ele>526.94</ele>
        <time>2022-07-27T12:08:43Z</time>
      </trkpt>
      <trkpt lat="46.64844" lon="5.80449">
        <ele>528.38</ele>
        <time>2022-07-27T12:09:00Z</time>
      </trkpt>
      <trkpt lat="46.64842" lon="5.80528">
        <ele>527.9</ele>
        <time>2022-07-27T12:09:15Z</time>
      </trkpt>
      <trkpt lat="46.64813" lon="5.80574">
        <ele>528.38</ele>
        <time>2022-07-27T12:09:27Z</time>
      </trkpt>
      <trkpt lat="46.64781" lon="5.80612">
        <ele>528.86</ele>
        <time>2022-07-27T12:09:41Z</time>
      </trkpt>
      <trkpt lat="46.64735" lon="5.80647">
        <ele>528.86</ele>
        <time>2022-07-27T12:09:55Z</time>
      </trkpt>
      <trkpt lat="46.64678" lon="5.80694">
        <ele>526.46</ele>
        <time>2022-07-27T12:10:10Z</time>
      </trkpt>
      <trkpt lat="46.64628" lon="5.8074">
        <ele>524.54</ele>
        <time>2022-07-27T12:10:20Z</time>
      </trkpt>
      <trkpt lat="46.64621" lon="5.80742">
        <ele>524.54</ele>
        <time>2022-07-27T12:10:21Z</time>
      </trkpt>
      <trkpt lat="46.64551" lon="5.8075">
        <ele>522.61</ele>
        <time>2022-07-27T12:10:31Z</time>
      </trkpt>
      <trkpt lat="46.64545" lon="5.80748">
        <ele>522.61</ele>
        <time>2022-07-27T12:10:32Z</time>
      </trkpt>
      <trkpt lat="46.6454" lon="5.80746">
        <ele>522.61</ele>
        <time>2022-07-27T12:10:33Z</time>
      </trkpt>
      <trkpt lat="46.64514" lon="5.80733">
        <ele>522.61</ele>
        <time>2022-07-27T12:10:38Z</time>
      </trkpt>
      <trkpt lat="46.64508" lon="5.80733">
        <ele>523.09</ele>
        <time>2022-07-27T12:10:39Z</time>
      </trkpt>
      <trkpt lat="46.64502" lon="5.80732">
        <ele>522.13</ele>
        <time>2022-07-27T12:10:40Z</time>
      </trkpt>
      <trkpt lat="46.64403" lon="5.8076">
        <ele>523.09</ele>
        <time>2022-07-27T12:10:56Z</time>
      </trkpt>
      <trkpt lat="46.64397" lon="5.80765">
        <ele>523.09</ele>
        <time>2022-07-27T12:10:57Z</time>
      </trkpt>
      <trkpt lat="46.64393" lon="5.80769">
        <ele>523.09</ele>
        <time>2022-07-27T12:10:58Z</time>
      </trkpt>
      <trkpt lat="46.64332" lon="5.80819">
        <ele>524.06</ele>
        <time>2022-07-27T12:11:12Z</time>
      </trkpt>
      <trkpt lat="46.64327" lon="5.80822">
        <ele>524.06</ele>
        <time>2022-07-27T12:11:13Z</time>
      </trkpt>
      <trkpt lat="46.64322" lon="5.80824">
        <ele>523.58</ele>
        <time>2022-07-27T12:11:14Z</time>
      </trkpt>
      <trkpt lat="46.64242" lon="5.8086">
        <ele>524.54</ele>
        <time>2022-07-27T12:11:31Z</time>
      </trkpt>
      <trkpt lat="46.64175" lon="5.80902">
        <ele>524.54</ele>
        <time>2022-07-27T12:11:46Z</time>
      </trkpt>
      <trkpt lat="46.64153" lon="5.80919">
        <ele>524.54</ele>
        <time>2022-07-27T12:11:51Z</time>
      </trkpt>
      <trkpt lat="46.64149" lon="5.80923">
        <ele>524.06</ele>
        <time>2022-07-27T12:11:52Z</time>
      </trkpt>
      <trkpt lat="46.64073" lon="5.80972">
        <ele>523.09</ele>
        <time>2022-07-27T12:12:07Z</time>
      </trkpt>
      <trkpt lat="46.63975" lon="5.81033">
        <ele>522.61</ele>
        <time>2022-07-27T12:12:25Z</time>
      </trkpt>
      <trkpt lat="46.63907" lon="5.8108">
        <ele>523.58</ele>
        <time>2022-07-27T12:12:41Z</time>
      </trkpt>
      <trkpt lat="46.63871" lon="5.81105">
        <ele>525.02</ele>
        <time>2022-07-27T12:12:55Z</time>
      </trkpt>
      <trkpt lat="46.63824" lon="5.81155">
        <ele>525.5</ele>
        <time>2022-07-27T12:13:11Z</time>
      </trkpt>
      <trkpt lat="46.63763" lon="5.81212">
        <ele>525.02</ele>
        <time>2022-07-27T12:13:28Z</time>
      </trkpt>
      <trkpt lat="46.63707" lon="5.81298">
        <ele>525.98</ele>
        <time>2022-07-27T12:13:43Z</time>
      </trkpt>
      <trkpt lat="46.63645" lon="5.81409">
        <ele>526.46</ele>
        <time>2022-07-27T12:14:03Z</time>
      </trkpt>
      <trkpt lat="46.63633" lon="5.81438">
        <ele>526.46</ele>
        <time>2022-07-27T12:14:08Z</time>
      </trkpt>
      <trkpt lat="46.6363" lon="5.81443">
        <ele>525.98</ele>
        <time>2022-07-27T12:14:09Z</time>
      </trkpt>
      <trkpt lat="46.63591" lon="5.81484">
        <ele>526.46</ele>
        <time>2022-07-27T12:14:21Z</time>
      </trkpt>
      <trkpt lat="46.63503" lon="5.81529">
        <ele>526.94</ele>
        <time>2022-07-27T12:14:39Z</time>
      </trkpt>
      <trkpt lat="46.63424" lon="5.81568">
        <ele>525.98</ele>
        <time>2022-07-27T12:14:55Z</time>
      </trkpt>
      <trkpt lat="46.63332" lon="5.81615">
        <ele>525.02</ele>
        <time>2022-07-27T12:15:14Z</time>
      </trkpt>
      <trkpt lat="46.63272" lon="5.81644">
        <ele>521.65</ele>
        <time>2022-07-27T12:15:23Z</time>
      </trkpt>
      <trkpt lat="46.63247" lon="5.81651">
        <ele>519.73</ele>
        <time>2022-07-27T12:15:26Z</time>
      </trkpt>
      <trkpt lat="46.63238" lon="5.81652">
        <ele>519.73</ele>
        <time>2022-07-27T12:15:27Z</time>
      </trkpt>
      <trkpt lat="46.6316" lon="5.81628">
        <ele>519.25</ele>
        <time>2022-07-27T12:15:37Z</time>
      </trkpt>
      <trkpt lat="46.63053" lon="5.81588">
        <ele>519.73</ele>
        <time>2022-07-27T12:15:53Z</time>
      </trkpt>
      <trkpt lat="46.62963" lon="5.81566">
        <ele>519.25</ele>
        <time>2022-07-27T12:16:09Z</time>
      </trkpt>
      <trkpt lat="46.62869" lon="5.81583">
        <ele>519.73</ele>
        <time>2022-07-27T12:16:24Z</time>
      </trkpt>
      <trkpt lat="46.62783" lon="5.81623">
        <ele>520.21</ele>
        <time>2022-07-27T12:16:39Z</time>
      </trkpt>
      <trkpt lat="46.62699" lon="5.81666">
        <ele>520.69</ele>
        <time>2022-07-27T12:16:54Z</time>
      </trkpt>
      <trkpt lat="46.62694" lon="5.81668">
        <ele>520.69</ele>
        <time>2022-07-27T12:16:55Z</time>
      </trkpt>
      <trkpt lat="46.62688" lon="5.81671">
        <ele>520.21</ele>
        <time>2022-07-27T12:16:56Z</time>
      </trkpt>
      <trkpt lat="46.62683" lon="5.81674">
        <ele>520.69</ele>
        <time>2022-07-27T12:16:57Z</time>
      </trkpt>
      <trkpt lat="46.62663" lon="5.8169">
        <ele>520.21</ele>
        <time>2022-07-27T12:17:01Z</time>
      </trkpt>
      <trkpt lat="46.62658" lon="5.81695">
        <ele>519.73</ele>
        <time>2022-07-27T12:17:02Z</time>
      </trkpt>
      <trkpt lat="46.62654" lon="5.817">
        <ele>520.21</ele>
        <time>2022-07-27T12:17:03Z</time>
      </trkpt>
      <trkpt lat="46.62631" lon="5.81735">
        <ele>520.21</ele>
        <time>2022-07-27T12:17:09Z</time>
      </trkpt>
      <trkpt lat="46.62565" lon="5.81805">
        <ele>519.25</ele>
        <time>2022-07-27T12:17:24Z</time>
      </trkpt>
      <trkpt lat="46.62504" lon="5.81882">
        <ele>518.77</ele>
        <time>2022-07-27T12:17:39Z</time>
      </trkpt>
      <trkpt lat="46.62449" lon="5.81951">
        <ele>518.29</ele>
        <time>2022-07-27T12:17:53Z</time>
      </trkpt>
      <trkpt lat="46.62419" lon="5.81975">
        <ele>518.77</ele>
        <time>2022-07-27T12:17:59Z</time>
      </trkpt>
      <trkpt lat="46.62415" lon="5.8198">
        <ele>518.29</ele>
        <time>2022-07-27T12:18:00Z</time>
      </trkpt>
      <trkpt lat="46.62353" lon="5.82036">
        <ele>517.33</ele>
        <time>2022-07-27T12:18:13Z</time>
      </trkpt>
      <trkpt lat="46.62339" lon="5.82044">
        <ele>517.81</ele>
        <time>2022-07-27T12:18:16Z</time>
      </trkpt>
      <trkpt lat="46.62292" lon="5.82079">
        <ele>517.81</ele>
        <time>2022-07-27T12:18:26Z</time>
      </trkpt>
      <trkpt lat="46.62287" lon="5.82082">
        <ele>517.81</ele>
        <time>2022-07-27T12:18:27Z</time>
      </trkpt>
      <trkpt lat="46.62224" lon="5.82126">
        <ele>518.29</ele>
        <time>2022-07-27T12:18:43Z</time>
      </trkpt>
      <trkpt lat="46.622" lon="5.82152">
        <ele>517.81</ele>
        <time>2022-07-27T12:18:54Z</time>
      </trkpt>
      <trkpt lat="46.62198" lon="5.82153">
        <ele>517.81</ele>
        <time>2022-07-27T12:18:55Z</time>
      </trkpt>
      <trkpt lat="46.62187" lon="5.82153">
        <ele>517.33</ele>
        <time>2022-07-27T12:19:07Z</time>
      </trkpt>
      <trkpt lat="46.62172" lon="5.82155">
        <ele>516.37</ele>
        <time>2022-07-27T12:19:30Z</time>
      </trkpt>
      <trkpt lat="46.62143" lon="5.82177">
        <ele>516.85</ele>
        <time>2022-07-27T12:19:44Z</time>
      </trkpt>
      <trkpt lat="46.62105" lon="5.82178">
        <ele>517.81</ele>
        <time>2022-07-27T12:19:57Z</time>
      </trkpt>
      <trkpt lat="46.62066" lon="5.82177">
        <ele>517.33</ele>
        <time>2022-07-27T12:20:11Z</time>
      </trkpt>
      <trkpt lat="46.62054" lon="5.82177">
        <ele>518.77</ele>
        <time>2022-07-27T12:20:17Z</time>
      </trkpt>
      <trkpt lat="46.62052" lon="5.8217">
        <ele>518.77</ele>
        <time>2022-07-27T12:20:20Z</time>
      </trkpt>
      <trkpt lat="46.62051" lon="5.82166">
        <ele>519.25</ele>
        <time>2022-07-27T12:20:22Z</time>
      </trkpt>
      <trkpt lat="46.62045" lon="5.82154">
        <ele>522.61</ele>
        <time>2022-07-27T12:20:27Z</time>
      </trkpt>
      <trkpt lat="46.62045" lon="5.82151">
        <ele>521.65</ele>
        <time>2022-07-27T12:20:28Z</time>
      </trkpt>
      <trkpt lat="46.62047" lon="5.82144">
        <ele>518.29</ele>
        <time>2022-07-27T12:20:31Z</time>
      </trkpt>
      <trkpt lat="46.62049" lon="5.82137">
        <ele>517.81</ele>
        <time>2022-07-27T12:20:38Z</time>
      </trkpt>
      <trkpt lat="46.62073" lon="5.82107">
        <ele>529.34</ele>
        <time>2022-07-27T13:11:33Z</time>
      </trkpt>
      <trkpt lat="46.62074" lon="5.82106">
        <ele>529.34</ele>
        <time>2022-07-27T13:11:34Z</time>
      </trkpt>
      <trkpt lat="46.62071" lon="5.82112">
        <ele>526.94</ele>
        <time>2022-07-27T13:11:49Z</time>
      </trkpt>
      <trkpt lat="46.6207" lon="5.82113">
        <ele>524.06</ele>
        <time>2022-07-27T13:11:55Z</time>
      </trkpt>
      <trkpt lat="46.62071" lon="5.82113">
        <ele>524.06</ele>
        <time>2022-07-27T13:11:56Z</time>
      </trkpt>
      <trkpt lat="46.62063" lon="5.82125">
        <ele>520.69</ele>
        <time>2022-07-27T13:12:09Z</time>
      </trkpt>
      <trkpt lat="46.62056" lon="5.82133">
        <ele>519.25</ele>
        <time>2022-07-27T13:12:24Z</time>
      </trkpt>
      <trkpt lat="46.6205" lon="5.82145">
        <ele>518.77</ele>
        <time>2022-07-27T13:12:43Z</time>
      </trkpt>
      <trkpt lat="46.62059" lon="5.82147">
        <ele>519.25</ele>
        <time>2022-07-27T13:13:09Z</time>
      </trkpt>
      <trkpt lat="46.62057" lon="5.82148">
        <ele>520.21</ele>
        <time>2022-07-27T13:13:21Z</time>
      </trkpt>
      <trkpt lat="46.62058" lon="5.8215">
        <ele>520.69</ele>
        <time>2022-07-27T13:13:23Z</time>
      </trkpt>
      <trkpt lat="46.62061" lon="5.82156">
        <ele>520.21</ele>
        <time>2022-07-27T13:13:27Z</time>
      </trkpt>
      <trkpt lat="46.62061" lon="5.82168">
        <ele>520.21</ele>
        <time>2022-07-27T13:13:42Z</time>
      </trkpt>
      <trkpt lat="46.62058" lon="5.82175">
        <ele>519.73</ele>
        <time>2022-07-27T13:13:49Z</time>
      </trkpt>
      <trkpt lat="46.62036" lon="5.82188">
        <ele>520.21</ele>
        <time>2022-07-27T13:14:05Z</time>
      </trkpt>
      <trkpt lat="46.62003" lon="5.82205">
        <ele>521.17</ele>
        <time>2022-07-27T13:14:21Z</time>
      </trkpt>
      <trkpt lat="46.62" lon="5.82207">
        <ele>521.17</ele>
        <time>2022-07-27T13:14:23Z</time>
      </trkpt>
      <trkpt lat="46.61977" lon="5.82224">
        <ele>521.65</ele>
        <time>2022-07-27T13:14:35Z</time>
      </trkpt>
      <trkpt lat="46.61954" lon="5.82259">
        <ele>520.21</ele>
        <time>2022-07-27T13:14:48Z</time>
      </trkpt>
      <trkpt lat="46.61931" lon="5.82321">
        <ele>521.17</ele>
        <time>2022-07-27T13:15:03Z</time>
      </trkpt>
      <trkpt lat="46.61904" lon="5.82396">
        <ele>523.09</ele>
        <time>2022-07-27T13:15:23Z</time>
      </trkpt>
      <trkpt lat="46.61878" lon="5.8247">
        <ele>525.98</ele>
        <time>2022-07-27T13:15:45Z</time>
      </trkpt>
      <trkpt lat="46.61848" lon="5.8251">
        <ele>525.98</ele>
        <time>2022-07-27T13:16:01Z</time>
      </trkpt>
      <trkpt lat="46.61817" lon="5.82564">
        <ele>524.06</ele>
        <time>2022-07-27T13:16:13Z</time>
      </trkpt>
      <trkpt lat="46.6175" lon="5.8266">
        <ele>521.65</ele>
        <time>2022-07-27T13:16:27Z</time>
      </trkpt>
      <trkpt lat="46.61675" lon="5.82738">
        <ele>520.69</ele>
        <time>2022-07-27T13:16:42Z</time>
      </trkpt>
      <trkpt lat="46.61626" lon="5.82804">
        <ele>521.65</ele>
        <time>2022-07-27T13:16:58Z</time>
      </trkpt>
      <trkpt lat="46.6158" lon="5.82882">
        <ele>521.65</ele>
        <time>2022-07-27T13:17:16Z</time>
      </trkpt>
      <trkpt lat="46.6153" lon="5.82995">
        <ele>520.69</ele>
        <time>2022-07-27T13:17:38Z</time>
      </trkpt>
      <trkpt lat="46.61488" lon="5.8311">
        <ele>521.17</ele>
        <time>2022-07-27T13:17:57Z</time>
      </trkpt>
      <trkpt lat="46.61446" lon="5.83232">
        <ele>519.73</ele>
        <time>2022-07-27T13:18:15Z</time>
      </trkpt>
      <trkpt lat="46.61439" lon="5.83358">
        <ele>520.69</ele>
        <time>2022-07-27T13:18:32Z</time>
      </trkpt>
      <trkpt lat="46.61434" lon="5.83478">
        <ele>521.65</ele>
        <time>2022-07-27T13:18:49Z</time>
      </trkpt>
      <trkpt lat="46.61429" lon="5.83612">
        <ele>521.17</ele>
        <time>2022-07-27T13:19:10Z</time>
      </trkpt>
      <trkpt lat="46.61429" lon="5.83625">
        <ele>521.65</ele>
        <time>2022-07-27T13:19:12Z</time>
      </trkpt>
      <trkpt lat="46.61439" lon="5.83701">
        <ele>522.61</ele>
        <time>2022-07-27T13:19:26Z</time>
      </trkpt>
      <trkpt lat="46.61468" lon="5.83798">
        <ele>522.61</ele>
        <time>2022-07-27T13:19:43Z</time>
      </trkpt>
      <trkpt lat="46.61496" lon="5.83881">
        <ele>524.54</ele>
        <time>2022-07-27T13:19:59Z</time>
      </trkpt>
      <trkpt lat="46.61518" lon="5.83977">
        <ele>526.94</ele>
        <time>2022-07-27T13:20:19Z</time>
      </trkpt>
      <trkpt lat="46.61533" lon="5.84044">
        <ele>528.86</ele>
        <time>2022-07-27T13:20:36Z</time>
      </trkpt>
      <trkpt lat="46.6155" lon="5.84108">
        <ele>529.34</ele>
        <time>2022-07-27T13:20:52Z</time>
      </trkpt>
      <trkpt lat="46.61553" lon="5.84178">
        <ele>529.34</ele>
        <time>2022-07-27T13:21:08Z</time>
      </trkpt>
      <trkpt lat="46.61547" lon="5.84213">
        <ele>528.38</ele>
        <time>2022-07-27T13:21:13Z</time>
      </trkpt>
      <trkpt lat="46.6154" lon="5.84236">
        <ele>527.42</ele>
        <time>2022-07-27T13:21:16Z</time>
      </trkpt>
      <trkpt lat="46.61538" lon="5.84245">
        <ele>527.42</ele>
        <time>2022-07-27T13:21:17Z</time>
      </trkpt>
      <trkpt lat="46.61536" lon="5.84253">
        <ele>527.42</ele>
        <time>2022-07-27T13:21:18Z</time>
      </trkpt>
      <trkpt lat="46.61536" lon="5.8426">
        <ele>527.42</ele>
        <time>2022-07-27T13:21:19Z</time>
      </trkpt>
      <trkpt lat="46.61536" lon="5.84266">
        <ele>528.38</ele>
        <time>2022-07-27T13:21:20Z</time>
      </trkpt>
      <trkpt lat="46.61536" lon="5.84271">
        <ele>528.86</ele>
        <time>2022-07-27T13:21:21Z</time>
      </trkpt>
      <trkpt lat="46.61537" lon="5.84275">
        <ele>528.86</ele>
        <time>2022-07-27T13:21:22Z</time>
      </trkpt>
      <trkpt lat="46.61541" lon="5.84309">
        <ele>532.23</ele>
        <time>2022-07-27T13:21:35Z</time>
      </trkpt>
      <trkpt lat="46.61557" lon="5.84349">
        <ele>533.19</ele>
        <time>2022-07-27T13:21:51Z</time>
      </trkpt>
      <trkpt lat="46.61564" lon="5.84402">
        <ele>533.67</ele>
        <time>2022-07-27T13:22:07Z</time>
      </trkpt>
      <trkpt lat="46.61565" lon="5.84422">
        <ele>533.19</ele>
        <time>2022-07-27T13:22:10Z</time>
      </trkpt>
      <trkpt lat="46.61565" lon="5.84436">
        <ele>532.71</ele>
        <time>2022-07-27T13:22:12Z</time>
      </trkpt>
      <trkpt lat="46.61561" lon="5.84515">
        <ele>530.79</ele>
        <time>2022-07-27T13:22:22Z</time>
      </trkpt>
      <trkpt lat="46.61534" lon="5.84602">
        <ele>530.79</ele>
        <time>2022-07-27T13:22:35Z</time>
      </trkpt>
      <trkpt lat="46.61517" lon="5.84653">
        <ele>530.79</ele>
        <time>2022-07-27T13:22:46Z</time>
      </trkpt>
      <trkpt lat="46.61499" lon="5.84715">
        <ele>530.3</ele>
        <time>2022-07-27T13:23:00Z</time>
      </trkpt>
      <trkpt lat="46.6149" lon="5.84758">
        <ele>531.75</ele>
        <time>2022-07-27T13:23:13Z</time>
      </trkpt>
      <trkpt lat="46.61488" lon="5.84759">
        <ele>530.79</ele>
        <time>2022-07-27T13:23:14Z</time>
      </trkpt>
      <trkpt lat="46.61486" lon="5.8476">
        <ele>530.79</ele>
        <time>2022-07-27T13:23:15Z</time>
      </trkpt>
      <trkpt lat="46.61456" lon="5.84804">
        <ele>531.75</ele>
        <time>2022-07-27T13:23:28Z</time>
      </trkpt>
      <trkpt lat="46.61444" lon="5.84854">
        <ele>532.71</ele>
        <time>2022-07-27T13:23:41Z</time>
      </trkpt>
      <trkpt lat="46.61428" lon="5.84851">
        <ele>532.23</ele>
        <time>2022-07-27T13:23:51Z</time>
      </trkpt>
      <trkpt lat="46.6142" lon="5.8485">
        <ele>532.71</ele>
        <time>2022-07-27T13:24:08Z</time>
      </trkpt>
      <trkpt lat="46.61417" lon="5.84852">
        <ele>533.19</ele>
        <time>2022-07-27T13:24:22Z</time>
      </trkpt>
      <trkpt lat="46.61424" lon="5.84868">
        <ele>532.71</ele>
        <time>2022-07-27T13:24:38Z</time>
      </trkpt>
    </trkseg>
  </trk>
</gpx>